Time,TemperatureF,DewpointF,PressureIn,WindDirection,WindDirectionDegrees,WindSpeedMPH,WindSpeedGustMPH,Humidity,HourlyPrecipIn,Conditions,Clouds,dailyrainin,SolarRadiationWatts/m^2,SoftwareType,DateUTC
2013-11-26 00:00:00,35.2,18.4,30.30,South,170,0.0,0.0,50,0.00,,,0.00,0.00,VWS V14.01,2013-11-26 05:00:00,
2013-11-26 00:01:00,35.0,18.7,30.31,South,170,0.0,0.0,51,0.00,,,0.00,0.00,VWS V14.01,2013-11-26 05:01:00,
2013-11-26 00:03:00,35.0,18.7,30.31,South,170,0.0,0.0,51,0.00,,,0.00,0.00,VWS V14.01,2013-11-26 05:03:00,
2013-11-26 00:04:00,35.3,19.0,30.30,South,170,0.0,0.0,51,0.00,,,0.00,0.00,VWS V14.01,2013-11-26 05:04:00,
2013-11-26 00:05:00,35.3,19.0,30.30,South,170,0.0,0.0,51,0.00,,,0.00,0.00,VWS V14.01,2013-11-26 05:05:00,
2013-11-26 00:06:00,35.2,18.9,30.31,South,170,0.0,0.0,51,0.00,,,0.00,0.00,VWS V14.01,2013-11-26 05:06:00,
2013-11-26 00:07:00,35.3,18.5,30.30,South,170,0.0,0.0,50,0.00,,,0.00,0.00,VWS V14.01,2013-11-26 05:07:00,
2013-11-26 00:08:00,35.3,18.5,30.30,South,170,0.0,0.0,50,0.00,,,0.00,0.00,VWS V14.01,2013-11-26 05:08:00,
2013-11-26 00:09:00,35.3,18.5,30.30,South,170,0.0,0.0,50,0.00,,,0.00,0.00,VWS V14.01,2013-11-26 05:09:00,
2013-11-26 00:10:00,35.3,18.5,30.30,South,170,0.0,0.0,50,0.00,,,0.00,0.00,VWS V14.01,2013-11-26 05:10:00,
2013-11-26 00:11:00,35.5,18.7,30.30,South,170,0.0,0.0,50,0.00,,,0.00,0.00,VWS V14.01,2013-11-26 05:11:00,
2013-11-26 00:12:00,35.2,18.4,30.30,South,170,0.0,0.0,50,0.00,,,0.00,0.00,VWS V14.01,2013-11-26 05:12:00,
2013-11-26 00:13:00,35.5,18.2,30.30,South,170,0.0,0.0,49,0.00,,,0.00,0.00,VWS V14.01,2013-11-26 05:13:00,
2013-11-26 00:14:00,35.5,18.2,30.30,South,170,0.0,0.0,49,0.00,,,0.00,0.00,VWS V14.01,2013-11-26 05:14:00,
2013-11-26 00:15:00,35.5,18.7,30.28,South,170,0.0,0.0,50,0.00,,,0.00,0.00,VWS V14.01,2013-11-26 05:15:00,
2013-11-26 00:16:00,35.5,18.7,30.28,South,170,0.0,2.0,50,0.00,,,0.00,0.00,VWS V14.01,2013-11-26 05:16:00,
2013-11-26 00:17:00,35.3,18.5,30.30,South,170,0.0,0.0,50,0.00,,,0.00,0.00,VWS V14.01,2013-11-26 05:17:00,
2013-11-26 00:18:00,35.6,18.3,30.28,South,170,0.0,2.0,49,0.00,,,0.00,0.00,VWS V14.01,2013-11-26 05:18:00,
2013-11-26 00:19:00,35.6,18.8,30.28,South,170,0.0,1.0,50,0.00,,,0.00,0.00,VWS V14.01,2013-11-26 05:19:00,
2013-11-26 00:20:00,35.6,18.3,30.28,South,170,0.0,0.0,49,0.00,,,0.00,0.00,VWS V14.01,2013-11-26 05:20:00,
2013-11-26 00:21:00,35.6,18.3,30.28,South,170,0.0,0.0,49,0.00,,,0.00,0.00,VWS V14.01,2013-11-26 05:21:00,
2013-11-26 00:22:00,35.5,18.7,30.28,South,170,0.0,0.0,50,0.00,,,0.00,0.00,VWS V14.01,2013-11-26 05:22:00,
2013-11-26 00:23:00,35.6,18.3,30.28,South,170,0.0,0.0,49,0.00,,,0.00,0.00,VWS V14.01,2013-11-26 05:23:00,
2013-11-26 00:24:00,35.6,18.3,30.28,South,170,0.0,0.0,49,0.00,,,0.00,0.00,VWS V14.01,2013-11-26 05:24:00,
2013-11-26 00:25:00,35.6,18.3,30.28,South,170,0.0,0.0,49,0.00,,,0.00,0.00,VWS V14.01,2013-11-26 05:25:00,
2013-11-26 00:26:00,35.6,18.3,30.28,South,170,0.0,0.0,49,0.00,,,0.00,0.00,VWS V14.01,2013-11-26 05:26:00,
2013-11-26 00:27:00,35.6,18.3,30.28,South,170,0.0,0.0,49,0.00,,,0.00,0.00,VWS V14.01,2013-11-26 05:27:00,
2013-11-26 00:28:00,35.6,18.3,30.28,South,170,0.0,0.0,49,0.00,,,0.00,0.00,VWS V14.01,2013-11-26 05:28:00,
2013-11-26 00:29:00,35.6,18.3,30.28,South,170,0.0,0.0,49,0.00,,,0.00,0.00,VWS V14.01,2013-11-26 05:29:00,
2013-11-26 00:30:00,35.6,18.3,30.28,South,170,0.0,0.0,49,0.00,,,0.00,0.00,VWS V14.01,2013-11-26 05:30:00,
2013-11-26 00:31:00,35.6,17.9,30.28,South,170,0.0,0.0,48,0.00,,,0.00,0.00,VWS V14.01,2013-11-26 05:31:00,
2013-11-26 00:32:00,35.8,18.0,30.28,South,170,0.0,0.0,48,0.00,,,0.00,0.00,VWS V14.01,2013-11-26 05:32:00,
2013-11-26 00:33:00,35.6,18.3,30.28,South,170,0.0,0.0,49,0.00,,,0.00,0.00,VWS V14.01,2013-11-26 05:33:00,
2013-11-26 00:34:00,35.8,18.5,30.28,South,170,0.0,0.0,49,0.00,,,0.00,0.00,VWS V14.01,2013-11-26 05:34:00,
2013-11-26 00:35:00,35.8,18.0,30.28,South,170,0.0,0.0,48,0.00,,,0.00,0.00,VWS V14.01,2013-11-26 05:35:00,
2013-11-26 00:36:00,35.8,18.0,30.28,South,170,0.0,0.0,48,0.00,,,0.00,0.00,VWS V14.01,2013-11-26 05:36:00,
2013-11-26 00:37:00,35.8,18.5,30.28,South,170,0.0,0.0,49,0.00,,,0.00,0.00,VWS V14.01,2013-11-26 05:37:00,
2013-11-26 00:38:00,35.6,18.3,30.28,South,170,0.0,0.0,49,0.00,,,0.00,0.00,VWS V14.01,2013-11-26 05:38:00,
2013-11-26 00:39:00,35.8,18.5,30.28,South,170,0.0,0.0,49,0.00,,,0.00,0.00,VWS V14.01,2013-11-26 05:39:00,
2013-11-26 00:40:00,35.8,18.5,30.28,South,170,0.0,0.0,49,0.00,,,0.00,0.00,VWS V14.01,2013-11-26 05:40:00,
2013-11-26 00:41:00,35.8,18.5,30.28,South,170,0.0,0.0,49,0.00,,,0.00,0.00,VWS V14.01,2013-11-26 05:41:00,
2013-11-26 00:42:00,35.8,19.0,30.28,South,170,0.0,0.0,50,0.00,,,0.00,0.00,VWS V14.01,2013-11-26 05:42:00,
2013-11-26 00:43:00,35.8,18.0,30.28,South,170,0.0,0.0,48,0.00,,,0.00,0.00,VWS V14.01,2013-11-26 05:43:00,
2013-11-26 00:44:00,35.8,18.5,30.26,South,170,0.0,0.0,49,0.00,,,0.00,0.00,VWS V14.01,2013-11-26 05:44:00,
2013-11-26 00:45:00,35.9,18.6,30.26,South,170,0.0,0.0,49,0.00,,,0.00,0.00,VWS V14.01,2013-11-26 05:45:00,
2013-11-26 00:46:00,35.9,18.6,30.26,South,170,0.0,0.0,49,0.00,,,0.00,0.00,VWS V14.01,2013-11-26 05:46:00,
2013-11-26 00:47:00,35.9,18.6,30.26,South,170,0.0,0.0,49,0.00,,,0.00,0.00,VWS V14.01,2013-11-26 05:47:00,
2013-11-26 00:48:00,35.8,18.5,30.28,South,170,0.0,0.0,49,0.00,,,0.00,0.00,VWS V14.01,2013-11-26 05:48:00,
2013-11-26 00:49:00,35.9,18.6,30.26,South,170,0.0,0.0,49,0.00,,,0.00,0.00,VWS V14.01,2013-11-26 05:49:00,
2013-11-26 00:50:00,35.9,18.6,30.26,South,170,0.0,1.0,49,0.00,,,0.00,0.00,VWS V14.01,2013-11-26 05:50:00,
2013-11-26 00:51:00,35.9,18.6,30.26,South,170,0.0,0.0,49,0.00,,,0.00,0.00,VWS V14.01,2013-11-26 05:51:00,
2013-11-26 00:52:00,35.9,19.1,30.26,South,170,0.0,0.0,50,0.00,,,0.00,0.00,VWS V14.01,2013-11-26 05:52:00,
2013-11-26 00:53:00,35.9,18.6,30.26,South,170,0.0,0.0,49,0.00,,,0.00,0.00,VWS V14.01,2013-11-26 05:53:00,
2013-11-26 00:54:00,35.9,18.6,30.26,South,170,0.0,0.0,49,0.00,,,0.00,0.00,VWS V14.01,2013-11-26 05:54:00,
2013-11-26 00:55:00,36.0,18.7,30.26,South,170,0.0,0.0,49,0.00,,,0.00,0.00,VWS V14.01,2013-11-26 05:55:00,
2013-11-26 00:56:00,36.0,18.7,30.26,South,170,0.0,0.0,49,0.00,,,0.00,0.00,VWS V14.01,2013-11-26 05:56:00,
2013-11-26 00:57:00,36.0,18.7,30.26,South,170,0.0,0.0,49,0.00,,,0.00,0.00,VWS V14.01,2013-11-26 05:57:00,
2013-11-26 00:58:00,35.9,18.6,30.26,South,170,0.0,0.0,49,0.00,,,0.00,0.00,VWS V14.01,2013-11-26 05:58:00,
2013-11-26 00:59:00,36.0,18.7,30.25,South,170,0.0,0.0,49,0.00,,,0.00,0.00,VWS V14.01,2013-11-26 05:59:00,
2013-11-26 01:00:00,36.0,18.7,30.25,South,170,0.0,0.0,49,0.00,,,0.00,0.00,VWS V14.01,2013-11-26 06:00:00,
2013-11-26 01:01:00,36.0,18.7,30.25,South,170,0.0,0.0,49,0.00,,,0.00,0.00,VWS V14.01,2013-11-26 06:01:00,
2013-11-26 01:02:00,36.0,19.2,30.25,South,170,0.0,0.0,50,0.00,,,0.00,0.00,VWS V14.01,2013-11-26 06:02:00,
2013-11-26 01:03:00,36.0,18.7,30.26,South,170,0.0,0.0,49,0.00,,,0.00,0.00,VWS V14.01,2013-11-26 06:03:00,
2013-11-26 01:04:00,36.0,18.7,30.25,South,170,0.0,0.0,49,0.00,,,0.00,0.00,VWS V14.01,2013-11-26 06:04:00,
2013-11-26 01:05:00,36.0,18.2,30.25,South,170,0.0,0.0,48,0.00,,,0.00,0.00,VWS V14.01,2013-11-26 06:05:00,
2013-11-26 01:06:00,36.0,18.2,30.25,South,170,0.0,0.0,48,0.00,,,0.00,0.00,VWS V14.01,2013-11-26 06:06:00,
2013-11-26 01:07:00,36.0,17.7,30.25,South,170,0.0,0.0,47,0.00,,,0.00,0.00,VWS V14.01,2013-11-26 06:07:00,
2013-11-26 01:08:00,36.0,18.7,30.25,South,170,0.0,0.0,49,0.00,,,0.00,0.00,VWS V14.01,2013-11-26 06:08:00,
2013-11-26 01:09:00,36.0,17.7,30.25,South,170,0.0,0.0,47,0.00,,,0.00,0.00,VWS V14.01,2013-11-26 06:09:00,
2013-11-26 01:10:00,36.0,17.7,30.25,South,170,0.0,0.0,47,0.00,,,0.00,0.00,VWS V14.01,2013-11-26 06:10:00,
2013-11-26 01:11:00,36.0,16.7,30.25,South,170,0.0,0.0,45,0.00,,,0.00,0.00,VWS V14.01,2013-11-26 06:11:00,
2013-11-26 01:12:00,36.0,16.7,30.25,South,170,0.0,0.0,45,0.00,,,0.00,0.00,VWS V14.01,2013-11-26 06:12:00,
2013-11-26 01:13:00,36.0,18.2,30.25,South,170,0.0,0.0,48,0.00,,,0.00,0.00,VWS V14.01,2013-11-26 06:13:00,
2013-11-26 01:14:00,36.0,16.7,30.25,South,170,0.0,0.0,45,0.00,,,0.00,0.00,VWS V14.01,2013-11-26 06:14:00,
2013-11-26 01:15:00,36.0,16.7,30.25,South,170,0.0,0.0,45,0.00,,,0.00,0.00,VWS V14.01,2013-11-26 06:15:00,
2013-11-26 01:16:00,36.0,16.7,30.25,South,170,0.0,0.0,45,0.00,,,0.00,0.00,VWS V14.01,2013-11-26 06:16:00,
2013-11-26 01:17:00,36.0,16.7,30.25,South,170,0.0,0.0,45,0.00,,,0.00,0.00,VWS V14.01,2013-11-26 06:17:00,
2013-11-26 01:18:00,36.0,17.7,30.25,South,170,0.0,0.0,47,0.00,,,0.00,0.00,VWS V14.01,2013-11-26 06:18:00,
2013-11-26 01:19:00,36.0,16.7,30.25,South,170,0.0,0.0,45,0.00,,,0.00,0.00,VWS V14.01,2013-11-26 06:19:00,
2013-11-26 01:20:00,36.0,16.2,30.25,South,170,0.0,0.0,44,0.00,,,0.00,0.00,VWS V14.01,2013-11-26 06:20:00,
2013-11-26 01:21:00,36.2,16.4,30.25,South,170,0.0,0.0,44,0.00,,,0.00,0.00,VWS V14.01,2013-11-26 06:21:00,
2013-11-26 01:23:00,36.0,16.7,30.25,South,170,0.0,0.0,45,0.00,,,0.00,0.00,VWS V14.01,2013-11-26 06:23:00,
2013-11-26 01:26:00,36.2,16.4,30.25,South,170,0.0,0.0,44,0.00,,,0.00,0.00,VWS V14.01,2013-11-26 06:26:00,
2013-11-26 01:27:00,36.2,16.4,30.25,South,170,0.0,0.0,44,0.00,,,0.00,0.00,VWS V14.01,2013-11-26 06:27:00,
2013-11-26 01:28:00,36.2,16.4,30.25,South,170,0.0,0.0,44,0.00,,,0.00,0.00,VWS V14.01,2013-11-26 06:28:00,
2013-11-26 01:29:00,36.2,16.4,30.25,South,170,0.0,0.0,44,0.00,,,0.00,0.00,VWS V14.01,2013-11-26 06:29:00,
2013-11-26 01:30:00,36.3,16.5,30.24,South,170,0.0,0.0,44,0.00,,,0.00,0.00,VWS V14.01,2013-11-26 06:30:00,
2013-11-26 01:31:00,36.3,16.5,30.24,South,170,0.0,0.0,44,0.00,,,0.00,0.00,VWS V14.01,2013-11-26 06:31:00,
2013-11-26 01:32:00,36.3,16.5,30.24,South,170,0.0,0.0,44,0.00,,,0.00,0.00,VWS V14.01,2013-11-26 06:32:00,
2013-11-26 01:33:00,36.2,16.4,30.25,South,170,0.0,0.0,44,0.00,,,0.00,0.00,VWS V14.01,2013-11-26 06:33:00,
2013-11-26 01:34:00,36.3,17.0,30.24,South,170,0.0,0.0,45,0.00,,,0.00,0.00,VWS V14.01,2013-11-26 06:34:00,
2013-11-26 01:35:00,36.5,17.7,30.24,South,170,0.0,0.0,46,0.00,,,0.00,0.00,VWS V14.01,2013-11-26 06:35:00,
2013-11-26 01:36:00,36.5,17.2,30.24,South,170,0.0,0.0,45,0.00,,,0.00,0.00,VWS V14.01,2013-11-26 06:36:00,
2013-11-26 01:37:00,36.5,17.2,30.24,South,170,0.0,0.0,45,0.00,,,0.00,0.00,VWS V14.01,2013-11-26 06:37:00,
2013-11-26 01:38:00,36.5,17.2,30.24,South,170,0.0,0.0,45,0.00,,,0.00,0.00,VWS V14.01,2013-11-26 06:38:00,
2013-11-26 01:39:00,36.3,16.5,30.24,South,170,0.0,0.0,44,0.00,,,0.00,0.00,VWS V14.01,2013-11-26 06:39:00,
2013-11-26 01:40:00,36.5,17.2,30.24,South,170,0.0,0.0,45,0.00,,,0.00,0.00,VWS V14.01,2013-11-26 06:40:00,
2013-11-26 01:41:00,36.5,17.2,30.24,South,170,0.0,0.0,45,0.00,,,0.00,0.00,VWS V14.01,2013-11-26 06:41:00,
2013-11-26 01:42:00,36.5,16.7,30.24,South,170,0.0,0.0,44,0.00,,,0.00,0.00,VWS V14.01,2013-11-26 06:42:00,
2013-11-26 01:43:00,36.5,16.1,30.24,South,170,0.0,0.0,43,0.00,,,0.00,0.00,VWS V14.01,2013-11-26 06:43:00,
2013-11-26 01:44:00,36.5,17.2,30.24,South,170,0.0,0.0,45,0.00,,,0.00,0.00,VWS V14.01,2013-11-26 06:44:00,
2013-11-26 01:45:00,36.6,16.2,30.24,South,170,0.0,0.0,43,0.00,,,0.00,0.00,VWS V14.01,2013-11-26 06:45:00,
2013-11-26 01:46:00,36.6,15.7,30.24,South,170,0.0,0.0,42,0.00,,,0.00,0.00,VWS V14.01,2013-11-26 06:46:00,
2013-11-26 01:47:00,36.6,15.7,30.24,South,170,0.0,0.0,42,0.00,,,0.00,0.00,VWS V14.01,2013-11-26 06:47:00,
2013-11-26 01:48:00,36.6,15.7,30.24,South,170,0.0,0.0,42,0.00,,,0.00,0.00,VWS V14.01,2013-11-26 06:48:00,
2013-11-26 01:49:00,36.5,17.2,30.24,South,170,0.0,0.0,45,0.00,,,0.00,0.00,VWS V14.01,2013-11-26 06:49:00,
2013-11-26 01:50:00,36.6,15.7,30.24,South,170,0.0,0.0,42,0.00,,,0.00,0.00,VWS V14.01,2013-11-26 06:50:00,
2013-11-26 01:51:00,36.6,15.7,30.24,South,170,0.0,0.0,42,0.00,,,0.00,0.00,VWS V14.01,2013-11-26 06:51:00,
2013-11-26 01:52:00,36.6,15.7,30.24,South,170,0.0,0.0,42,0.00,,,0.00,0.00,VWS V14.01,2013-11-26 06:52:00,
2013-11-26 01:53:00,36.6,16.2,30.24,South,170,0.0,0.0,43,0.00,,,0.00,0.00,VWS V14.01,2013-11-26 06:53:00,
2013-11-26 01:54:00,36.6,15.7,30.24,South,170,0.0,0.0,42,0.00,,,0.00,0.00,VWS V14.01,2013-11-26 06:54:00,
2013-11-26 01:55:00,36.6,16.2,30.24,South,170,0.0,0.0,43,0.00,,,0.00,0.00,VWS V14.01,2013-11-26 06:55:00,
2013-11-26 01:56:00,36.6,16.2,30.24,South,170,0.0,0.0,43,0.00,,,0.00,0.00,VWS V14.01,2013-11-26 06:56:00,
2013-11-26 01:57:00,36.6,15.7,30.24,South,170,0.0,0.0,42,0.00,,,0.00,0.00,VWS V14.01,2013-11-26 06:57:00,
2013-11-26 01:58:00,36.6,15.7,30.24,South,170,0.0,0.0,42,0.00,,,0.00,0.00,VWS V14.01,2013-11-26 06:58:00,
2013-11-26 01:59:00,36.6,15.7,30.24,South,170,0.0,0.0,42,0.00,,,0.00,0.00,VWS V14.01,2013-11-26 06:59:00,
2013-11-26 02:00:00,36.8,16.4,30.22,South,170,0.0,0.0,43,0.00,,,0.00,0.00,VWS V14.01,2013-11-26 07:00:00,
2013-11-26 02:01:00,36.8,16.4,30.22,South,170,0.0,0.0,43,0.00,,,0.00,0.00,VWS V14.01,2013-11-26 07:01:00,
2013-11-26 02:02:00,36.8,16.4,30.22,South,170,0.0,0.0,43,0.00,,,0.00,0.00,VWS V14.01,2013-11-26 07:02:00,
2013-11-26 02:03:00,36.8,16.4,30.22,South,170,0.0,0.0,43,0.00,,,0.00,0.00,VWS V14.01,2013-11-26 07:03:00,
2013-11-26 02:04:00,36.6,16.2,30.24,South,170,0.0,0.0,43,0.00,,,0.00,0.00,VWS V14.01,2013-11-26 07:04:00,
2013-11-26 02:05:00,36.8,16.4,30.22,South,170,0.0,0.0,43,0.00,,,0.00,0.00,VWS V14.01,2013-11-26 07:05:00,
2013-11-26 02:06:00,36.8,17.0,30.22,South,170,0.0,0.0,44,0.00,,,0.00,0.00,VWS V14.01,2013-11-26 07:06:00,
2013-11-26 02:07:00,36.8,17.0,30.22,South,170,0.0,0.0,44,0.00,,,0.00,0.00,VWS V14.01,2013-11-26 07:07:00,
2013-11-26 02:08:00,36.8,17.0,30.22,South,170,0.0,0.0,44,0.00,,,0.00,0.00,VWS V14.01,2013-11-26 07:08:00,
2013-11-26 02:09:00,36.8,16.4,30.22,South,170,0.0,0.0,43,0.00,,,0.00,0.00,VWS V14.01,2013-11-26 07:09:00,
2013-11-26 02:10:00,36.8,16.4,30.22,South,170,0.0,0.0,43,0.00,,,0.00,0.00,VWS V14.01,2013-11-26 07:10:00,
2013-11-26 02:11:00,36.9,16.5,30.22,South,170,0.0,0.0,43,0.00,,,0.00,0.00,VWS V14.01,2013-11-26 07:11:00,
2013-11-26 02:12:00,36.9,16.5,30.22,South,170,0.0,0.0,43,0.00,,,0.00,0.00,VWS V14.01,2013-11-26 07:12:00,
2013-11-26 02:13:00,36.9,16.5,30.22,South,170,0.0,0.0,43,0.00,,,0.00,0.00,VWS V14.01,2013-11-26 07:13:00,
2013-11-26 02:14:00,36.8,17.0,30.22,South,170,0.0,0.0,44,0.00,,,0.00,0.00,VWS V14.01,2013-11-26 07:14:00,
2013-11-26 02:15:00,36.9,16.5,30.22,South,170,0.0,0.0,43,0.00,,,0.00,0.00,VWS V14.01,2013-11-26 07:15:00,
2013-11-26 02:16:00,36.9,16.5,30.22,South,170,0.0,0.0,43,0.00,,,0.00,0.00,VWS V14.01,2013-11-26 07:16:00,
2013-11-26 02:17:00,36.9,16.5,30.22,South,170,0.0,0.0,43,0.00,,,0.00,0.00,VWS V14.01,2013-11-26 07:17:00,
2013-11-26 02:18:00,36.9,16.5,30.22,South,170,0.0,0.0,43,0.00,,,0.00,0.00,VWS V14.01,2013-11-26 07:18:00,
2013-11-26 02:19:00,36.9,16.5,30.22,South,170,0.0,0.0,43,0.00,,,0.00,0.00,VWS V14.01,2013-11-26 07:19:00,
2013-11-26 02:20:00,36.9,16.5,30.22,South,170,0.0,0.0,43,0.00,,,0.00,0.00,VWS V14.01,2013-11-26 07:20:00,
2013-11-26 02:21:00,36.8,16.4,30.22,South,170,0.0,0.0,43,0.00,,,0.00,0.00,VWS V14.01,2013-11-26 07:21:00,
2013-11-26 02:22:00,36.9,16.5,30.22,South,170,0.0,0.0,43,0.00,,,0.00,0.00,VWS V14.01,2013-11-26 07:22:00,
2013-11-26 02:23:00,36.9,17.0,30.22,South,170,0.0,0.0,44,0.00,,,0.00,0.00,VWS V14.01,2013-11-26 07:23:00,
2013-11-26 02:24:00,36.9,16.5,30.22,South,170,0.0,0.0,43,0.00,,,0.00,0.00,VWS V14.01,2013-11-26 07:24:00,
2013-11-26 02:25:00,36.8,16.4,30.22,South,170,0.0,0.0,43,0.00,,,0.00,0.00,VWS V14.01,2013-11-26 07:25:00,
2013-11-26 02:26:00,36.8,16.4,30.22,South,170,0.0,0.0,43,0.00,,,0.00,0.00,VWS V14.01,2013-11-26 07:26:00,
2013-11-26 02:27:00,36.9,17.0,30.22,South,170,0.0,0.0,44,0.00,,,0.00,0.00,VWS V14.01,2013-11-26 07:27:00,
2013-11-26 02:28:00,36.8,17.0,30.22,South,170,0.0,0.0,44,0.00,,,0.00,0.00,VWS V14.01,2013-11-26 07:28:00,
2013-11-26 02:29:00,36.9,16.5,30.22,South,170,0.0,0.0,43,0.00,,,0.00,0.00,VWS V14.01,2013-11-26 07:29:00,
2013-11-26 02:30:00,36.9,17.0,30.22,South,170,0.0,0.0,44,0.00,,,0.00,0.00,VWS V14.01,2013-11-26 07:30:00,
2013-11-26 02:31:00,36.9,17.0,30.22,South,170,0.0,0.0,44,0.00,,,0.00,0.00,VWS V14.01,2013-11-26 07:31:00,
2013-11-26 02:32:00,36.9,17.0,30.22,South,170,0.0,0.0,44,0.00,,,0.00,0.00,VWS V14.01,2013-11-26 07:32:00,
2013-11-26 02:33:00,36.9,17.6,30.22,South,170,0.0,0.0,45,0.00,,,0.00,0.00,VWS V14.01,2013-11-26 07:33:00,
2013-11-26 02:34:00,36.8,16.4,30.22,South,170,0.0,0.0,43,0.00,,,0.00,0.00,VWS V14.01,2013-11-26 07:34:00,
2013-11-26 02:35:00,36.9,17.6,30.22,South,170,0.0,0.0,45,0.00,,,0.00,0.00,VWS V14.01,2013-11-26 07:35:00,
2013-11-26 02:36:00,36.9,17.6,30.22,South,170,0.0,0.0,45,0.00,,,0.00,0.00,VWS V14.01,2013-11-26 07:36:00,
2013-11-26 02:37:00,36.9,17.6,30.22,South,170,0.0,0.0,45,0.00,,,0.00,0.00,VWS V14.01,2013-11-26 07:37:00,
2013-11-26 02:38:00,36.9,17.6,30.22,South,170,0.0,0.0,45,0.00,,,0.00,0.00,VWS V14.01,2013-11-26 07:38:00,
2013-11-26 02:39:00,36.9,17.0,30.22,South,170,0.0,0.0,44,0.00,,,0.00,0.00,VWS V14.01,2013-11-26 07:39:00,
2013-11-26 02:40:00,36.9,18.1,30.22,South,170,0.0,3.0,46,0.00,,,0.00,0.00,VWS V14.01,2013-11-26 07:40:00,
2013-11-26 02:41:00,36.9,18.1,30.22,South,170,2.0,2.0,46,0.00,,,0.00,0.00,VWS V14.01,2013-11-26 07:41:00,
2013-11-26 02:42:00,37.0,18.2,30.22,South,170,0.0,2.0,46,0.00,,,0.00,0.00,VWS V14.01,2013-11-26 07:42:00,
2013-11-26 02:43:00,37.0,18.2,30.22,South,170,0.0,0.0,46,0.00,,,0.00,0.00,VWS V14.01,2013-11-26 07:43:00,
2013-11-26 02:44:00,36.9,17.6,30.22,South,170,0.0,0.0,45,0.00,,,0.00,0.00,VWS V14.01,2013-11-26 07:44:00,
2013-11-26 02:45:00,37.0,18.2,30.22,South,170,0.0,0.0,46,0.00,,,0.00,0.00,VWS V14.01,2013-11-26 07:45:00,
2013-11-26 02:46:00,37.0,18.2,30.22,South,170,0.0,0.0,46,0.00,,,0.00,0.00,VWS V14.01,2013-11-26 07:46:00,
2013-11-26 02:47:00,37.0,18.2,30.22,South,170,0.0,0.0,46,0.00,,,0.00,0.00,VWS V14.01,2013-11-26 07:47:00,
2013-11-26 02:48:00,37.0,18.2,30.22,South,170,0.0,0.0,46,0.00,,,0.00,0.00,VWS V14.01,2013-11-26 07:48:00,
2013-11-26 02:49:00,37.0,18.2,30.22,South,170,0.0,2.0,46,0.00,,,0.00,0.00,VWS V14.01,2013-11-26 07:49:00,
2013-11-26 02:50:00,37.0,18.2,30.22,South,170,0.0,0.0,46,0.00,,,0.00,0.00,VWS V14.01,2013-11-26 07:50:00,
2013-11-26 02:51:00,37.0,18.2,30.22,South,170,0.0,0.0,46,0.00,,,0.00,0.00,VWS V14.01,2013-11-26 07:51:00,
2013-11-26 02:52:00,37.0,18.2,30.22,South,170,0.0,0.0,46,0.00,,,0.00,0.00,VWS V14.01,2013-11-26 07:52:00,
2013-11-26 02:53:00,37.0,18.7,30.22,South,170,0.0,0.0,47,0.00,,,0.00,0.00,VWS V14.01,2013-11-26 07:53:00,
2013-11-26 02:54:00,37.2,18.8,30.22,South,170,0.0,0.0,47,0.00,,,0.00,0.00,VWS V14.01,2013-11-26 07:54:00,
2013-11-26 02:55:00,37.0,18.2,30.22,South,170,0.0,0.0,46,0.00,,,0.00,0.00,VWS V14.01,2013-11-26 07:55:00,
2013-11-26 02:56:00,37.2,18.8,30.22,South,170,0.0,0.0,47,0.00,,,0.00,0.00,VWS V14.01,2013-11-26 07:56:00,
2013-11-26 02:57:00,37.2,18.8,30.22,South,170,0.0,0.0,47,0.00,,,0.00,0.00,VWS V14.01,2013-11-26 07:57:00,
2013-11-26 02:58:00,37.2,18.8,30.22,South,170,0.0,0.0,47,0.00,,,0.00,0.00,VWS V14.01,2013-11-26 07:58:00,
2013-11-26 02:59:00,37.2,18.8,30.22,South,170,0.0,0.0,47,0.00,,,0.00,0.00,VWS V14.01,2013-11-26 07:59:00,
2013-11-26 03:00:00,37.0,18.2,30.22,South,170,0.0,0.0,46,0.00,,,0.00,0.00,VWS V14.01,2013-11-26 08:00:00,
2013-11-26 03:01:00,37.2,18.8,30.21,South,170,0.0,0.0,47,0.00,,,0.00,0.00,VWS V14.01,2013-11-26 08:01:00,
2013-11-26 03:02:00,37.2,18.8,30.21,South,170,0.0,0.0,47,0.00,,,0.00,0.00,VWS V14.01,2013-11-26 08:02:00,
2013-11-26 03:03:00,37.2,18.8,30.21,South,170,0.0,0.0,47,0.00,,,0.00,0.00,VWS V14.01,2013-11-26 08:03:00,
2013-11-26 03:04:00,37.2,18.8,30.21,South,170,0.0,0.0,47,0.00,,,0.00,0.00,VWS V14.01,2013-11-26 08:04:00,
2013-11-26 03:05:00,37.2,18.8,30.22,South,170,0.0,0.0,47,0.00,,,0.00,0.00,VWS V14.01,2013-11-26 08:05:00,
2013-11-26 03:06:00,37.2,18.8,30.21,South,170,0.0,0.0,47,0.00,,,0.00,0.00,VWS V14.01,2013-11-26 08:06:00,
2013-11-26 03:07:00,37.2,18.8,30.21,South,170,0.0,0.0,47,0.00,,,0.00,0.00,VWS V14.01,2013-11-26 08:07:00,
2013-11-26 03:08:00,37.2,18.8,30.21,South,170,0.0,0.0,47,0.00,,,0.00,0.00,VWS V14.01,2013-11-26 08:08:00,
2013-11-26 03:09:00,37.2,18.8,30.21,South,170,0.0,0.0,47,0.00,,,0.00,0.00,VWS V14.01,2013-11-26 08:09:00,
2013-11-26 03:10:00,37.2,18.8,30.21,South,170,0.0,0.0,47,0.00,,,0.00,0.00,VWS V14.01,2013-11-26 08:10:00,
2013-11-26 03:11:00,37.2,18.8,30.21,South,170,0.0,0.0,47,0.00,,,0.00,0.00,VWS V14.01,2013-11-26 08:11:00,
2013-11-26 03:12:00,37.2,18.8,30.21,South,170,0.0,0.0,47,0.00,,,0.00,0.00,VWS V14.01,2013-11-26 08:12:00,
2013-11-26 03:13:00,37.2,18.8,30.21,South,170,0.0,0.0,47,0.00,,,0.00,0.00,VWS V14.01,2013-11-26 08:13:00,
2013-11-26 03:14:00,37.2,18.8,30.21,South,170,0.0,1.0,47,0.00,,,0.00,0.00,VWS V14.01,2013-11-26 08:14:00,
2013-11-26 03:15:00,37.2,18.8,30.21,South,170,0.0,0.0,47,0.00,,,0.00,0.00,VWS V14.01,2013-11-26 08:15:00,
2013-11-26 03:16:00,37.2,18.8,30.20,South,170,0.0,0.0,47,0.00,,,0.00,0.00,VWS V14.01,2013-11-26 08:16:00,
2013-11-26 03:17:00,37.2,18.8,30.20,South,170,0.0,0.0,47,0.00,,,0.00,0.00,VWS V14.01,2013-11-26 08:17:00,
2013-11-26 03:18:00,37.3,18.9,30.20,South,170,0.0,0.0,47,0.00,,,0.00,0.00,VWS V14.01,2013-11-26 08:18:00,
2013-11-26 03:19:00,37.3,18.9,30.20,South,170,0.0,0.0,47,0.00,,,0.00,0.00,VWS V14.01,2013-11-26 08:19:00,
2013-11-26 03:20:00,37.2,18.8,30.21,South,170,0.0,0.0,47,0.00,,,0.00,0.00,VWS V14.01,2013-11-26 08:20:00,
2013-11-26 03:21:00,37.3,18.9,30.20,South,170,0.0,0.0,47,0.00,,,0.00,0.00,VWS V14.01,2013-11-26 08:21:00,
2013-11-26 03:22:00,37.3,18.9,30.20,South,170,0.0,0.0,47,0.00,,,0.00,0.00,VWS V14.01,2013-11-26 08:22:00,
2013-11-26 03:23:00,37.3,18.9,30.20,South,170,0.0,0.0,47,0.00,,,0.00,0.00,VWS V14.01,2013-11-26 08:23:00,
2013-11-26 03:24:00,37.3,19.4,30.20,South,170,0.0,0.0,48,0.00,,,0.00,0.00,VWS V14.01,2013-11-26 08:24:00,
2013-11-26 03:25:00,37.3,18.9,30.20,South,170,0.0,0.0,47,0.00,,,0.00,0.00,VWS V14.01,2013-11-26 08:25:00,
2013-11-26 03:26:00,37.3,19.4,30.20,South,170,2.0,2.0,48,0.00,,,0.00,0.00,VWS V14.01,2013-11-26 08:26:00,
2013-11-26 03:27:00,37.3,19.4,30.20,SSE,161,0.0,3.0,48,0.00,,,0.00,0.00,VWS V14.01,2013-11-26 08:27:00,
2013-11-26 03:28:00,37.3,19.4,30.20,SSE,161,0.0,0.0,48,0.00,,,0.00,0.00,VWS V14.01,2013-11-26 08:28:00,
2013-11-26 03:29:00,37.3,18.9,30.20,SSE,161,0.0,0.0,47,0.00,,,0.00,0.00,VWS V14.01,2013-11-26 08:29:00,
2013-11-26 03:30:00,37.3,18.9,30.20,South,170,0.0,0.0,47,0.00,,,0.00,0.00,VWS V14.01,2013-11-26 08:30:00,
2013-11-26 03:31:00,37.3,19.4,30.19,SSE,161,0.0,0.0,48,0.00,,,0.00,0.00,VWS V14.01,2013-11-26 08:31:00,
2013-11-26 03:32:00,37.3,19.4,30.19,NNE,14,0.0,0.0,48,0.00,,,0.00,0.00,VWS V14.01,2013-11-26 08:32:00,
2013-11-26 03:33:00,37.3,18.9,30.19,NNE,14,0.0,0.0,47,0.00,,,0.00,0.00,VWS V14.01,2013-11-26 08:33:00,
2013-11-26 03:34:00,37.3,18.9,30.19,NNE,14,0.0,0.0,47,0.00,,,0.00,0.00,VWS V14.01,2013-11-26 08:34:00,
2013-11-26 03:35:00,37.3,19.4,30.20,SSE,161,0.0,0.0,48,0.00,,,0.00,0.00,VWS V14.01,2013-11-26 08:35:00,
2013-11-26 03:36:00,37.3,18.9,30.19,NNE,15,0.0,0.0,47,0.00,,,0.00,0.00,VWS V14.01,2013-11-26 08:36:00,
2013-11-26 03:37:00,37.3,18.9,30.19,NNE,18,0.0,2.0,47,0.00,,,0.00,0.00,VWS V14.01,2013-11-26 08:37:00,
2013-11-26 03:38:00,37.3,18.9,30.19,NNE,20,2.0,2.0,47,0.00,,,0.00,0.00,VWS V14.01,2013-11-26 08:38:00,
2013-11-26 03:39:00,37.3,18.9,30.19,NNE,27,0.0,3.0,47,0.00,,,0.00,0.00,VWS V14.01,2013-11-26 08:39:00,
2013-11-26 03:40:00,37.3,19.4,30.19,NNE,14,0.0,0.0,48,0.00,,,0.00,0.00,VWS V14.01,2013-11-26 08:40:00,
2013-11-26 03:41:00,37.2,18.8,30.19,NNE,27,0.0,0.0,47,0.00,,,0.00,0.00,VWS V14.01,2013-11-26 08:41:00,
2013-11-26 03:42:00,37.2,18.8,30.19,NNE,27,0.0,0.0,47,0.00,,,0.00,0.00,VWS V14.01,2013-11-26 08:42:00,
2013-11-26 03:43:00,37.2,18.8,30.19,NNE,25,0.0,0.0,47,0.00,,,0.00,0.00,VWS V14.01,2013-11-26 08:43:00,
2013-11-26 03:44:00,37.2,19.3,30.19,NNE,25,0.0,0.0,48,0.00,,,0.00,0.00,VWS V14.01,2013-11-26 08:44:00,
2013-11-26 03:45:00,37.3,18.9,30.19,NNE,19,2.0,2.0,47,0.00,,,0.00,0.00,VWS V14.01,2013-11-26 08:45:00,
2013-11-26 03:46:00,37.2,19.3,30.19,NNE,25,0.0,3.0,48,0.00,,,0.00,0.00,VWS V14.01,2013-11-26 08:46:00,
2013-11-26 03:47:00,37.2,19.3,30.19,NNE,25,0.0,2.0,48,0.00,,,0.00,0.00,VWS V14.01,2013-11-26 08:47:00,
2013-11-26 03:48:00,37.2,19.3,30.19,NNE,25,0.0,0.0,48,0.00,,,0.00,0.00,VWS V14.01,2013-11-26 08:48:00,
2013-11-26 03:49:00,37.2,19.3,30.19,NNE,25,3.0,4.0,48,0.00,,,0.00,0.00,VWS V14.01,2013-11-26 08:49:00,
2013-11-26 03:50:00,37.2,18.8,30.19,NNE,25,0.0,0.0,47,0.00,,,0.00,0.00,VWS V14.01,2013-11-26 08:50:00,
2013-11-26 03:51:00,37.2,19.3,30.19,NNE,25,0.0,0.0,48,0.00,,,0.00,0.00,VWS V14.01,2013-11-26 08:51:00,
2013-11-26 03:52:00,37.2,19.3,30.19,NNE,25,0.0,0.0,48,0.00,,,0.00,0.00,VWS V14.01,2013-11-26 08:52:00,
2013-11-26 03:53:00,37.2,19.3,30.19,NNE,24,0.0,2.0,48,0.00,,,0.00,0.00,VWS V14.01,2013-11-26 08:53:00,
2013-11-26 03:54:00,37.2,18.8,30.19,NNE,25,0.0,3.0,47,0.00,,,0.00,0.00,VWS V14.01,2013-11-26 08:54:00,
2013-11-26 03:55:00,37.2,19.3,30.19,NNE,25,0.0,0.0,48,0.00,,,0.00,0.00,VWS V14.01,2013-11-26 08:55:00,
2013-11-26 03:56:00,37.2,18.8,30.19,NE,35,1.0,1.0,47,0.00,,,0.00,0.00,VWS V14.01,2013-11-26 08:56:00,
2013-11-26 03:57:00,37.3,18.9,30.19,NE,35,1.0,1.0,47,0.00,,,0.00,0.00,VWS V14.01,2013-11-26 08:57:00,
2013-11-26 03:58:00,37.3,18.9,30.19,NE,35,3.0,4.0,47,0.00,,,0.00,0.00,VWS V14.01,2013-11-26 08:58:00,
2013-11-26 03:59:00,37.3,18.9,30.19,NNE,33,0.0,3.0,47,0.00,,,0.00,0.00,VWS V14.01,2013-11-26 08:59:00,
2013-11-26 04:00:00,37.2,19.3,30.19,NNE,24,0.0,2.0,48,0.00,,,0.00,0.00,VWS V14.01,2013-11-26 09:00:00,
2013-11-26 04:01:00,37.3,18.9,30.19,NNE,32,0.0,0.0,47,0.00,,,0.00,0.00,VWS V14.01,2013-11-26 09:01:00,
2013-11-26 04:02:00,37.3,18.9,30.19,NNE,32,0.0,0.0,47,0.00,,,0.00,0.00,VWS V14.01,2013-11-26 09:02:00,
2013-11-26 04:03:00,37.3,18.9,30.19,NNE,32,0.0,0.0,47,0.00,,,0.00,0.00,VWS V14.01,2013-11-26 09:03:00,
2013-11-26 04:04:00,37.3,18.9,30.19,NNE,32,0.0,0.0,47,0.00,,,0.00,0.00,VWS V14.01,2013-11-26 09:04:00,
2013-11-26 04:05:00,37.3,18.9,30.19,NE,35,3.0,4.0,47,0.00,,,0.00,0.00,VWS V14.01,2013-11-26 09:05:00,
2013-11-26 04:06:00,37.3,18.9,30.19,NNE,32,0.0,1.0,47,0.00,,,0.00,0.00,VWS V14.01,2013-11-26 09:06:00,
2013-11-26 04:07:00,37.3,18.9,30.19,NNE,32,0.0,3.0,47,0.00,,,0.00,0.00,VWS V14.01,2013-11-26 09:07:00,
2013-11-26 04:08:00,37.3,18.9,30.19,NNE,32,0.0,0.0,47,0.00,,,0.00,0.00,VWS V14.01,2013-11-26 09:08:00,
2013-11-26 04:09:00,37.3,18.9,30.19,NNE,32,0.0,0.0,47,0.00,,,0.00,0.00,VWS V14.01,2013-11-26 09:09:00,
2013-11-26 04:10:00,37.3,18.9,30.19,NNE,30,0.0,3.0,47,0.00,,,0.00,0.00,VWS V14.01,2013-11-26 09:10:00,
2013-11-26 04:11:00,37.3,18.9,30.19,NNE,32,0.0,0.0,47,0.00,,,0.00,0.00,VWS V14.01,2013-11-26 09:11:00,
2013-11-26 04:12:00,37.3,18.9,30.19,NNE,30,0.0,0.0,47,0.00,,,0.00,0.00,VWS V14.01,2013-11-26 09:12:00,
2013-11-26 04:13:00,37.3,18.9,30.19,NNE,30,0.0,0.0,47,0.00,,,0.00,0.00,VWS V14.01,2013-11-26 09:13:00,
2013-11-26 04:14:00,37.3,18.4,30.19,NNE,30,0.0,0.0,46,0.00,,,0.00,0.00,VWS V14.01,2013-11-26 09:14:00,
2013-11-26 04:15:00,37.3,18.4,30.19,NNE,30,0.0,0.0,46,0.00,,,0.00,0.00,VWS V14.01,2013-11-26 09:15:00,
2013-11-26 04:16:00,37.3,18.9,30.19,NNE,32,0.0,0.0,47,0.00,,,0.00,0.00,VWS V14.01,2013-11-26 09:16:00,
2013-11-26 04:17:00,37.5,18.6,30.19,NNE,30,0.0,0.0,46,0.00,,,0.00,0.00,VWS V14.01,2013-11-26 09:17:00,
2013-11-26 04:18:00,37.5,19.1,30.19,NNE,30,0.0,0.0,47,0.00,,,0.00,0.00,VWS V14.01,2013-11-26 09:18:00,
2013-11-26 04:19:00,37.5,19.1,30.19,NNE,30,0.0,0.0,47,0.00,,,0.00,0.00,VWS V14.01,2013-11-26 09:19:00,
2013-11-26 04:20:00,37.5,19.1,30.19,NNE,30,0.0,3.0,47,0.00,,,0.00,0.00,VWS V14.01,2013-11-26 09:20:00,
2013-11-26 04:21:00,37.3,18.9,30.19,NNE,30,0.0,0.0,47,0.00,,,0.00,0.00,VWS V14.01,2013-11-26 09:21:00,
2013-11-26 04:22:00,37.5,19.1,30.19,NNE,30,0.0,0.0,47,0.00,,,0.00,0.00,VWS V14.01,2013-11-26 09:22:00,
2013-11-26 04:23:00,37.5,19.1,30.19,NNE,30,0.0,0.0,47,0.00,,,0.00,0.00,VWS V14.01,2013-11-26 09:23:00,
2013-11-26 04:24:00,37.5,19.1,30.19,NNE,30,0.0,1.0,47,0.00,,,0.00,0.00,VWS V14.01,2013-11-26 09:24:00,
2013-11-26 04:25:00,37.5,19.1,30.19,NNE,30,0.0,0.0,47,0.00,,,0.00,0.00,VWS V14.01,2013-11-26 09:25:00,
2013-11-26 04:26:00,37.5,19.1,30.19,NNE,30,0.0,0.0,47,0.00,,,0.00,0.00,VWS V14.01,2013-11-26 09:26:00,
2013-11-26 04:27:00,37.5,19.1,30.19,NE,37,0.0,0.0,47,0.00,,,0.00,0.00,VWS V14.01,2013-11-26 09:27:00,
2013-11-26 04:28:00,37.5,19.1,30.19,NE,37,0.0,0.0,47,0.00,,,0.00,0.00,VWS V14.01,2013-11-26 09:28:00,
2013-11-26 04:29:00,37.5,19.1,30.19,NE,37,1.0,1.0,47,0.00,,,0.00,0.00,VWS V14.01,2013-11-26 09:29:00,
2013-11-26 04:30:00,37.5,19.1,30.19,NE,37,0.0,1.0,47,0.00,,,0.00,0.00,VWS V14.01,2013-11-26 09:30:00,
2013-11-26 04:31:00,37.5,19.1,30.19,NNE,30,0.0,0.0,47,0.00,,,0.00,0.00,VWS V14.01,2013-11-26 09:31:00,
2013-11-26 04:32:00,37.6,19.2,30.19,NE,34,0.0,1.0,47,0.00,,,0.00,0.00,VWS V14.01,2013-11-26 09:32:00,
2013-11-26 04:33:00,37.6,19.2,30.19,NE,34,0.0,0.0,47,0.00,,,0.00,0.00,VWS V14.01,2013-11-26 09:33:00,
2013-11-26 04:34:00,37.6,19.2,30.19,NE,34,1.0,1.0,47,0.00,,,0.00,0.00,VWS V14.01,2013-11-26 09:34:00,
2013-11-26 04:35:00,37.6,19.2,30.19,NE,34,0.0,1.0,47,0.00,,,0.00,0.00,VWS V14.01,2013-11-26 09:35:00,
2013-11-26 04:36:00,37.5,19.1,30.19,NE,37,0.0,0.0,47,0.00,,,0.00,0.00,VWS V14.01,2013-11-26 09:36:00,
2013-11-26 04:37:00,37.6,19.2,30.19,NE,34,0.0,0.0,47,0.00,,,0.00,0.00,VWS V14.01,2013-11-26 09:37:00,
2013-11-26 04:38:00,37.6,19.2,30.19,NE,34,0.0,0.0,47,0.00,,,0.00,0.00,VWS V14.01,2013-11-26 09:38:00,
2013-11-26 04:39:00,37.6,19.2,30.19,NE,34,0.0,0.0,47,0.00,,,0.00,0.00,VWS V14.01,2013-11-26 09:39:00,
2013-11-26 04:40:00,37.6,19.2,30.19,NE,34,0.0,0.0,47,0.00,,,0.00,0.00,VWS V14.01,2013-11-26 09:40:00,
2013-11-26 04:41:00,37.6,19.2,30.19,NE,34,0.0,0.0,47,0.00,,,0.00,0.00,VWS V14.01,2013-11-26 09:41:00,
2013-11-26 04:42:00,37.6,19.2,30.19,NE,34,0.0,0.0,47,0.00,,,0.00,0.00,VWS V14.01,2013-11-26 09:42:00,
2013-11-26 04:43:00,37.6,19.2,30.19,NNE,30,0.0,3.0,47,0.00,,,0.00,0.00,VWS V14.01,2013-11-26 09:43:00,
2013-11-26 04:44:00,37.6,19.2,30.19,NNE,30,0.0,0.0,47,0.00,,,0.00,0.00,VWS V14.01,2013-11-26 09:44:00,
2013-11-26 04:45:00,37.6,19.2,30.19,NNE,30,0.0,0.0,47,0.00,,,0.00,0.00,VWS V14.01,2013-11-26 09:45:00,
2013-11-26 04:46:00,37.6,19.2,30.19,NE,34,0.0,0.0,47,0.00,,,0.00,0.00,VWS V14.01,2013-11-26 09:46:00,
2013-11-26 04:47:00,37.6,19.2,30.19,NNE,30,0.0,0.0,47,0.00,,,0.00,0.00,VWS V14.01,2013-11-26 09:47:00,
2013-11-26 04:48:00,37.6,19.2,30.19,NNE,30,0.0,0.0,47,0.00,,,0.00,0.00,VWS V14.01,2013-11-26 09:48:00,
2013-11-26 04:49:00,37.6,19.2,30.19,NNE,30,0.0,0.0,47,0.00,,,0.00,0.00,VWS V14.01,2013-11-26 09:49:00,
2013-11-26 04:50:00,37.6,19.2,30.19,NNE,30,0.0,0.0,47,0.00,,,0.00,0.00,VWS V14.01,2013-11-26 09:50:00,
2013-11-26 04:51:00,37.6,19.2,30.19,NNE,30,0.0,0.0,47,0.00,,,0.00,0.00,VWS V14.01,2013-11-26 09:51:00,
2013-11-26 04:52:00,37.6,19.2,30.19,NNE,30,0.0,0.0,47,0.00,,,0.00,0.00,VWS V14.01,2013-11-26 09:52:00,
2013-11-26 04:53:00,37.6,19.2,30.19,NNE,30,0.0,0.0,47,0.00,,,0.00,0.00,VWS V14.01,2013-11-26 09:53:00,
2013-11-26 04:54:00,37.6,19.2,30.19,NNE,30,0.0,0.0,47,0.00,,,0.00,0.00,VWS V14.01,2013-11-26 09:54:00,
2013-11-26 04:55:00,37.8,19.4,30.19,NNE,30,0.0,0.0,47,0.00,,,0.00,0.00,VWS V14.01,2013-11-26 09:55:00,
2013-11-26 04:56:00,37.6,19.2,30.19,NNE,30,0.0,0.0,47,0.00,,,0.00,0.00,VWS V14.01,2013-11-26 09:56:00,
2013-11-26 04:57:00,37.8,19.4,30.19,NNE,30,0.0,0.0,47,0.00,,,0.00,0.00,VWS V14.01,2013-11-26 09:57:00,
2013-11-26 04:58:00,37.8,19.4,30.19,NNE,30,0.0,0.0,47,0.00,,,0.00,0.00,VWS V14.01,2013-11-26 09:58:00,
2013-11-26 04:59:00,37.8,19.4,30.19,NNE,30,0.0,0.0,47,0.00,,,0.00,0.00,VWS V14.01,2013-11-26 09:59:00,
2013-11-26 05:00:00,37.8,19.4,30.19,NNE,30,2.0,2.0,47,0.00,,,0.00,0.00,VWS V14.01,2013-11-26 10:00:00,
2013-11-26 05:01:00,37.6,19.2,30.19,NNE,30,0.0,0.0,47,0.00,,,0.00,0.00,VWS V14.01,2013-11-26 10:01:00,
2013-11-26 05:02:00,37.8,19.4,30.19,NNE,30,0.0,0.0,47,0.00,,,0.00,0.00,VWS V14.01,2013-11-26 10:02:00,
2013-11-26 05:03:00,37.8,19.4,30.19,NNE,30,0.0,0.0,47,0.00,,,0.00,0.00,VWS V14.01,2013-11-26 10:03:00,
2013-11-26 05:04:00,37.8,19.4,30.19,NNE,30,0.0,0.0,47,0.00,,,0.00,0.00,VWS V14.01,2013-11-26 10:04:00,
2013-11-26 05:05:00,37.8,19.4,30.19,NNE,30,0.0,0.0,47,0.00,,,0.00,0.00,VWS V14.01,2013-11-26 10:05:00,
2013-11-26 05:06:00,37.8,19.4,30.19,NNE,30,0.0,0.0,47,0.00,,,0.00,0.00,VWS V14.01,2013-11-26 10:06:00,
2013-11-26 05:07:00,37.8,19.4,30.19,NNE,30,0.0,0.0,47,0.00,,,0.00,0.00,VWS V14.01,2013-11-26 10:07:00,
2013-11-26 05:08:00,37.8,19.4,30.19,NNE,30,0.0,0.0,47,0.00,,,0.00,0.00,VWS V14.01,2013-11-26 10:08:00,
2013-11-26 05:09:00,37.8,19.9,30.19,NNE,30,0.0,0.0,48,0.00,,,0.00,0.00,VWS V14.01,2013-11-26 10:09:00,
2013-11-26 05:10:00,37.8,19.9,30.19,NNE,30,0.0,0.0,48,0.00,,,0.00,0.00,VWS V14.01,2013-11-26 10:10:00,
2013-11-26 05:11:00,37.8,19.4,30.19,NNE,30,0.0,0.0,47,0.00,,,0.00,0.00,VWS V14.01,2013-11-26 10:11:00,
2013-11-26 05:12:00,37.8,19.9,30.19,NNE,30,0.0,2.0,48,0.00,,,0.00,0.00,VWS V14.01,2013-11-26 10:12:00,
2013-11-26 05:13:00,37.8,19.9,30.19,NNE,30,0.0,0.0,48,0.00,,,0.00,0.00,VWS V14.01,2013-11-26 10:13:00,
2013-11-26 05:14:00,37.8,19.9,30.19,NNE,30,2.0,2.0,48,0.00,,,0.00,0.00,VWS V14.01,2013-11-26 10:14:00,
2013-11-26 05:15:00,37.8,19.4,30.18,NNE,30,4.0,4.0,47,0.00,,,0.00,0.00,VWS V14.01,2013-11-26 10:15:00,
2013-11-26 05:16:00,37.8,19.9,30.19,NNE,30,0.0,0.0,48,0.00,,,0.00,0.00,VWS V14.01,2013-11-26 10:16:00,
2013-11-26 05:17:00,37.8,19.4,30.18,NNE,30,0.0,0.0,47,0.00,,,0.00,0.00,VWS V14.01,2013-11-26 10:17:00,
2013-11-26 05:18:00,37.9,19.5,30.18,NNE,30,0.0,0.0,47,0.00,,,0.00,0.00,VWS V14.01,2013-11-26 10:18:00,
2013-11-26 05:19:00,37.9,19.5,30.18,NNE,30,0.0,0.0,47,0.00,,,0.00,0.00,VWS V14.01,2013-11-26 10:19:00,
2013-11-26 05:20:00,37.9,19.5,30.18,NNE,30,2.0,2.0,47,0.00,,,0.00,0.00,VWS V14.01,2013-11-26 10:20:00,
2013-11-26 05:21:00,37.8,19.9,30.19,NNE,30,1.0,1.0,48,0.00,,,0.00,0.00,VWS V14.01,2013-11-26 10:21:00,
2013-11-26 05:22:00,37.9,19.5,30.18,NNE,30,2.0,2.0,47,0.00,,,0.00,0.00,VWS V14.01,2013-11-26 10:22:00,
2013-11-26 05:23:00,37.9,19.5,30.18,NNE,30,0.0,3.0,47,0.00,,,0.00,0.00,VWS V14.01,2013-11-26 10:23:00,
2013-11-26 05:24:00,37.9,19.5,30.18,NNE,30,0.0,0.0,47,0.00,,,0.00,0.00,VWS V14.01,2013-11-26 10:24:00,
2013-11-26 05:25:00,37.9,19.5,30.18,NNE,29,2.0,3.0,47,0.00,,,0.00,0.00,VWS V14.01,2013-11-26 10:25:00,
2013-11-26 05:26:00,37.9,19.5,30.18,NNE,30,0.0,0.0,47,0.00,,,0.00,0.00,VWS V14.01,2013-11-26 10:26:00,
2013-11-26 05:27:00,37.9,19.5,30.18,NNE,29,2.0,2.0,47,0.00,,,0.00,0.00,VWS V14.01,2013-11-26 10:27:00,
2013-11-26 05:28:00,37.9,19.5,30.18,NNE,29,2.0,2.0,47,0.00,,,0.00,0.00,VWS V14.01,2013-11-26 10:28:00,
2013-11-26 05:29:00,37.9,19.5,30.19,NNE,29,3.0,4.0,47,0.00,,,0.00,0.00,VWS V14.01,2013-11-26 10:29:00,
2013-11-26 05:30:00,38.0,19.6,30.19,NNE,29,0.0,3.0,47,0.00,,,0.00,0.00,VWS V14.01,2013-11-26 10:30:00,
2013-11-26 05:31:00,37.9,19.5,30.18,NNE,30,0.0,0.0,47,0.00,,,0.00,0.00,VWS V14.01,2013-11-26 10:31:00,
2013-11-26 05:32:00,38.0,19.6,30.19,NNE,29,0.0,0.0,47,0.00,,,0.00,0.00,VWS V14.01,2013-11-26 10:32:00,
2013-11-26 05:33:00,38.0,19.6,30.19,NNE,29,0.0,0.0,47,0.00,,,0.00,0.00,VWS V14.01,2013-11-26 10:33:00,
2013-11-26 05:34:00,38.0,19.6,30.19,NNE,29,0.0,0.0,47,0.00,,,0.00,0.00,VWS V14.01,2013-11-26 10:34:00,
2013-11-26 05:35:00,38.0,19.6,30.19,NNE,29,0.0,0.0,47,0.00,,,0.00,0.00,VWS V14.01,2013-11-26 10:35:00,
2013-11-26 05:36:00,37.9,19.5,30.18,NNE,29,2.0,4.0,47,0.00,,,0.00,0.00,VWS V14.01,2013-11-26 10:36:00,
2013-11-26 05:37:00,38.0,19.6,30.19,NNE,28,0.0,0.0,47,0.00,,,0.00,0.00,VWS V14.01,2013-11-26 10:37:00,
2013-11-26 05:38:00,38.0,19.6,30.19,NNE,28,0.0,0.0,47,0.00,,,0.00,0.00,VWS V14.01,2013-11-26 10:38:00,
2013-11-26 05:39:00,38.0,19.6,30.19,NNE,28,0.0,4.0,47,0.00,,,0.00,0.00,VWS V14.01,2013-11-26 10:39:00,
2013-11-26 05:40:00,38.0,19.6,30.19,NNE,28,0.0,0.0,47,0.00,,,0.00,0.00,VWS V14.01,2013-11-26 10:40:00,
2013-11-26 05:41:00,38.0,19.6,30.19,NNE,29,0.0,0.0,47,0.00,,,0.00,0.00,VWS V14.01,2013-11-26 10:41:00,
2013-11-26 05:42:00,38.2,19.8,30.19,North,354,0.0,4.0,47,0.00,,,0.00,0.00,VWS V14.01,2013-11-26 10:42:00,
2013-11-26 05:43:00,38.2,19.8,30.19,North,355,0.0,3.0,47,0.00,,,0.00,0.00,VWS V14.01,2013-11-26 10:43:00,
2013-11-26 05:44:00,38.2,19.8,30.19,North,355,0.0,0.0,47,0.00,,,0.00,0.00,VWS V14.01,2013-11-26 10:44:00,
2013-11-26 05:45:00,38.2,19.8,30.18,North,355,0.0,0.0,47,0.00,,,0.00,0.00,VWS V14.01,2013-11-26 10:45:00,
2013-11-26 05:46:00,38.2,19.8,30.18,North,356,0.0,0.0,47,0.00,,,0.00,0.00,VWS V14.01,2013-11-26 10:46:00,
2013-11-26 05:47:00,38.0,19.6,30.19,NNE,28,0.0,4.0,47,0.00,,,0.00,0.00,VWS V14.01,2013-11-26 10:47:00,
2013-11-26 05:48:00,38.2,19.8,30.18,North,356,0.0,1.0,47,0.00,,,0.00,0.00,VWS V14.01,2013-11-26 10:48:00,
2013-11-26 05:49:00,38.2,19.8,30.18,North,0,1.0,4.0,47,0.00,,,0.00,0.00,VWS V14.01,2013-11-26 10:49:00,
2013-11-26 05:50:00,38.2,19.8,30.18,North,6,3.0,4.0,47,0.00,,,0.00,0.00,VWS V14.01,2013-11-26 10:50:00,
2013-11-26 05:51:00,38.2,19.8,30.18,North,0,0.0,3.0,47,0.00,,,0.00,0.00,VWS V14.01,2013-11-26 10:51:00,
2013-11-26 05:52:00,38.2,19.8,30.19,North,355,0.0,0.0,47,0.00,,,0.00,0.00,VWS V14.01,2013-11-26 10:52:00,
2013-11-26 05:53:00,38.2,19.8,30.18,North,0,3.0,3.0,47,0.00,,,0.00,0.00,VWS V14.01,2013-11-26 10:53:00,
2013-11-26 05:54:00,38.2,19.8,30.18,North,0,0.0,6.0,47,0.00,,,0.00,0.00,VWS V14.01,2013-11-26 10:54:00,
2013-11-26 05:55:00,38.2,19.8,30.18,North,358,2.0,5.0,47,0.00,,,0.00,0.00,VWS V14.01,2013-11-26 10:55:00,
2013-11-26 05:56:00,38.2,19.8,30.18,North,1,0.0,3.0,47,0.00,,,0.00,0.00,VWS V14.01,2013-11-26 10:56:00,
2013-11-26 05:57:00,38.2,19.8,30.18,North,0,1.0,4.0,47,0.00,,,0.00,0.00,VWS V14.01,2013-11-26 10:57:00,
2013-11-26 05:58:00,38.2,19.8,30.18,North,1,0.0,0.0,47,0.00,,,0.00,0.00,VWS V14.01,2013-11-26 10:58:00,
2013-11-26 05:59:00,38.2,19.8,30.18,North,1,0.0,0.0,47,0.00,,,0.00,0.00,VWS V14.01,2013-11-26 10:59:00,
2013-11-26 06:00:00,38.2,19.8,30.18,North,1,0.0,0.0,47,0.00,,,0.00,0.00,VWS V14.01,2013-11-26 11:00:00,
2013-11-26 06:01:00,38.2,19.8,30.18,North,0,0.0,4.0,47,0.00,,,0.00,0.00,VWS V14.01,2013-11-26 11:01:00,
2013-11-26 06:02:00,38.2,19.8,30.18,North,0,4.0,5.0,47,0.00,,,0.00,0.00,VWS V14.01,2013-11-26 11:02:00,
2013-11-26 06:03:00,38.2,19.3,30.18,North,0,0.0,0.0,46,0.00,,,0.00,0.00,VWS V14.01,2013-11-26 11:03:00,
2013-11-26 06:04:00,38.2,19.8,30.18,North,0,0.0,0.0,47,0.00,,,0.00,0.00,VWS V14.01,2013-11-26 11:04:00,
2013-11-26 06:05:00,38.2,19.3,30.18,North,0,2.0,2.0,46,0.00,,,0.00,0.00,VWS V14.01,2013-11-26 11:05:00,
2013-11-26 06:06:00,38.2,19.3,30.18,North,0,0.0,2.0,46,0.00,,,0.00,0.00,VWS V14.01,2013-11-26 11:06:00,
2013-11-26 06:07:00,38.2,19.8,30.18,North,1,0.0,0.0,47,0.00,,,0.00,0.00,VWS V14.01,2013-11-26 11:07:00,
2013-11-26 06:08:00,38.3,19.9,30.18,North,0,0.0,0.0,47,0.00,,,0.00,0.00,VWS V14.01,2013-11-26 11:08:00,
2013-11-26 06:09:00,38.3,19.9,30.18,North,0,0.0,0.0,47,0.00,,,0.00,0.00,VWS V14.01,2013-11-26 11:09:00,
2013-11-26 06:10:00,38.3,19.9,30.18,North,0,0.0,0.0,47,0.00,,,0.00,0.00,VWS V14.01,2013-11-26 11:10:00,
2013-11-26 06:11:00,38.3,19.9,30.18,North,0,0.0,0.0,47,0.00,,,0.00,0.00,VWS V14.01,2013-11-26 11:11:00,
2013-11-26 06:12:00,38.2,19.8,30.18,North,0,2.0,2.0,47,0.00,,,0.00,0.00,VWS V14.01,2013-11-26 11:12:00,
2013-11-26 06:13:00,38.3,19.4,30.18,North,0,3.0,5.0,46,0.00,,,0.00,0.00,VWS V14.01,2013-11-26 11:13:00,
2013-11-26 06:14:00,38.3,19.4,30.18,North,0,0.0,3.0,46,0.00,,,0.00,0.00,VWS V14.01,2013-11-26 11:14:00,
2013-11-26 06:15:00,38.3,19.4,30.18,North,0,0.0,0.0,46,0.00,,,0.00,0.00,VWS V14.01,2013-11-26 11:15:00,
2013-11-26 06:16:00,38.3,19.4,30.18,North,0,0.0,5.0,46,0.00,,,0.00,0.00,VWS V14.01,2013-11-26 11:16:00,
2013-11-26 06:17:00,38.3,19.9,30.18,North,0,0.0,0.0,47,0.00,,,0.00,0.00,VWS V14.01,2013-11-26 11:17:00,
2013-11-26 06:18:00,38.3,19.4,30.18,NE,39,0.0,2.0,46,0.00,,,0.00,0.00,VWS V14.01,2013-11-26 11:18:00,
2013-11-26 06:19:00,38.3,19.4,30.18,NNE,16,0.0,0.0,46,0.00,,,0.00,0.00,VWS V14.01,2013-11-26 11:19:00,
2013-11-26 06:20:00,38.3,19.9,30.18,NNE,19,0.0,1.0,47,0.00,,,0.00,0.00,VWS V14.01,2013-11-26 11:20:00,
2013-11-26 06:21:00,38.3,19.9,30.18,NNE,28,3.0,4.0,47,0.00,,,0.00,0.00,VWS V14.01,2013-11-26 11:21:00,
2013-11-26 06:22:00,38.3,19.4,30.18,North,0,0.0,0.0,46,0.00,,,0.00,0.00,VWS V14.01,2013-11-26 11:22:00,
2013-11-26 06:23:00,38.3,19.4,30.18,NNE,20,1.0,1.0,46,0.00,,,0.00,0.00,VWS V14.01,2013-11-26 11:23:00,
2013-11-26 06:24:00,38.3,19.4,30.18,NE,45,0.0,4.0,46,0.00,,,0.00,0.00,VWS V14.01,2013-11-26 11:24:00,
2013-11-26 06:25:00,38.5,19.5,30.18,NE,42,0.0,0.0,46,0.00,,,0.00,0.00,VWS V14.01,2013-11-26 11:25:00,
2013-11-26 06:26:00,38.5,19.5,30.18,NNE,15,3.0,3.0,46,0.00,,,0.00,0.00,VWS V14.01,2013-11-26 11:26:00,
2013-11-26 06:27:00,38.3,19.4,30.18,NNE,18,0.0,0.0,46,0.00,,,0.00,0.00,VWS V14.01,2013-11-26 11:27:00,
2013-11-26 06:28:00,38.5,20.0,30.18,NE,35,0.0,3.0,47,0.00,,,0.00,0.00,VWS V14.01,2013-11-26 11:28:00,
2013-11-26 06:29:00,38.5,19.5,30.18,NNE,26,2.0,2.0,46,0.00,,,0.00,0.00,VWS V14.01,2013-11-26 11:29:00,
2013-11-26 06:30:00,38.5,19.5,30.17,NNE,27,0.0,2.0,46,0.00,,,0.00,0.00,VWS V14.01,2013-11-26 11:30:00,
2013-11-26 06:31:00,38.5,19.5,30.17,NNE,27,0.0,0.0,46,0.00,,,0.00,0.00,VWS V14.01,2013-11-26 11:31:00,
2013-11-26 06:32:00,38.5,19.5,30.18,NE,45,0.0,0.0,46,0.00,,,0.00,0.00,VWS V14.01,2013-11-26 11:32:00,
2013-11-26 06:33:00,38.5,19.5,30.17,NNE,19,0.0,3.0,46,0.00,,,0.00,0.00,VWS V14.01,2013-11-26 11:33:00,
2013-11-26 06:34:00,38.5,19.5,30.17,NNE,21,2.0,4.0,46,0.00,,,0.00,0.00,VWS V14.01,2013-11-26 11:34:00,
2013-11-26 06:35:00,38.5,19.5,30.17,NNE,18,0.0,3.0,46,0.00,,,0.00,0.00,VWS V14.01,2013-11-26 11:35:00,
2013-11-26 06:36:00,38.5,19.5,30.17,NNE,18,0.0,0.0,46,0.00,,,0.00,0.00,VWS V14.01,2013-11-26 11:36:00,
2013-11-26 06:37:00,38.5,19.5,30.17,NNE,27,0.0,2.0,46,0.00,,,0.00,0.00,VWS V14.01,2013-11-26 11:37:00,
2013-11-26 06:38:00,38.5,19.5,30.17,NNE,19,2.0,4.0,46,0.00,,,0.00,0.00,VWS V14.01,2013-11-26 11:38:00,
2013-11-26 06:39:00,38.5,19.5,30.17,NNE,29,0.0,2.0,46,0.00,,,0.00,0.00,VWS V14.01,2013-11-26 11:39:00,
2013-11-26 06:40:00,38.5,19.5,30.17,NNE,29,0.0,0.0,46,0.00,,,0.00,0.00,VWS V14.01,2013-11-26 11:40:00,
2013-11-26 06:41:00,38.5,19.5,30.17,NNE,29,0.0,0.0,46,0.00,,,0.00,0.00,VWS V14.01,2013-11-26 11:41:00,
2013-11-26 06:42:00,38.5,19.5,30.17,NNE,18,0.0,3.0,46,0.00,,,0.00,0.00,VWS V14.01,2013-11-26 11:42:00,
2013-11-26 06:43:00,38.5,20.0,30.17,NNE,29,0.0,0.0,47,0.00,,,0.00,0.00,VWS V14.01,2013-11-26 11:43:00,
2013-11-26 06:44:00,38.5,19.5,30.17,NNE,29,0.0,0.0,46,0.00,,,0.00,0.00,VWS V14.01,2013-11-26 11:44:00,
2013-11-26 06:45:00,38.5,19.5,30.18,NNE,29,0.0,0.0,46,0.00,,,0.00,0.00,VWS V14.01,2013-11-26 11:45:00,
2013-11-26 06:46:00,38.5,19.5,30.18,NNE,29,0.0,0.0,46,0.00,,,0.00,0.00,VWS V14.01,2013-11-26 11:46:00,
2013-11-26 06:47:00,38.5,19.5,30.17,NNE,29,0.0,0.0,46,0.00,,,0.00,0.00,VWS V14.01,2013-11-26 11:47:00,
2013-11-26 06:48:00,38.6,20.1,30.18,NNE,29,0.0,0.0,47,0.00,,,0.00,0.00,VWS V14.01,2013-11-26 11:48:00,
2013-11-26 06:49:00,38.6,20.1,30.18,NNE,28,0.0,0.0,47,0.00,,,0.00,0.00,VWS V14.01,2013-11-26 11:49:00,
2013-11-26 06:50:00,38.6,20.1,30.18,NNE,28,0.0,0.0,47,0.00,,,0.00,0.00,VWS V14.01,2013-11-26 11:50:00,
2013-11-26 06:51:00,38.6,20.1,30.18,ENE,64,3.0,5.0,47,0.00,,,0.00,0.00,VWS V14.01,2013-11-26 11:51:00,
2013-11-26 06:52:00,38.5,19.5,30.18,NNE,29,0.0,0.0,46,0.00,,,0.00,0.00,VWS V14.01,2013-11-26 11:52:00,
2013-11-26 06:53:00,38.6,20.1,30.18,ENE,60,0.0,0.0,47,0.00,,,0.00,0.00,VWS V14.01,2013-11-26 11:53:00,
2013-11-26 06:54:00,38.6,20.1,30.18,ENE,60,0.0,0.0,47,0.00,,,0.00,0.00,VWS V14.01,2013-11-26 11:54:00,
2013-11-26 06:55:00,38.6,20.1,30.18,ENE,60,0.0,0.0,47,0.00,,,0.00,0.00,VWS V14.01,2013-11-26 11:55:00,
2013-11-26 06:56:00,38.6,20.1,30.18,ENE,60,0.0,0.0,47,0.00,,,0.00,0.00,VWS V14.01,2013-11-26 11:56:00,
2013-11-26 06:57:00,38.6,20.1,30.18,NNE,28,0.0,0.0,47,0.00,,,0.00,0.00,VWS V14.01,2013-11-26 11:57:00,
2013-11-26 06:58:00,38.8,20.3,30.18,ENE,60,0.0,0.0,47,0.00,,,0.00,0.00,VWS V14.01,2013-11-26 11:58:00,
2013-11-26 06:59:00,38.8,20.8,30.18,ENE,60,0.0,0.0,48,0.00,,,0.00,0.00,VWS V14.01,2013-11-26 11:59:00,
2013-11-26 07:00:00,38.8,20.3,30.17,ENE,60,0.0,0.0,47,0.00,,,0.00,0.00,VWS V14.01,2013-11-26 12:00:00,
2013-11-26 07:01:00,38.8,20.3,30.17,ENE,60,0.0,0.0,47,0.00,,,0.00,0.00,VWS V14.01,2013-11-26 12:01:00,
2013-11-26 07:02:00,38.6,20.1,30.18,ENE,60,0.0,0.0,47,0.00,,,0.00,0.00,VWS V14.01,2013-11-26 12:02:00,
2013-11-26 07:03:00,38.8,20.3,30.17,NNE,33,2.0,2.0,47,0.00,,,0.00,0.00,VWS V14.01,2013-11-26 12:03:00,
2013-11-26 07:04:00,38.8,20.3,30.17,NE,37,0.0,3.0,47,0.00,,,0.00,0.00,VWS V14.01,2013-11-26 12:04:00,
2013-11-26 07:05:00,38.8,20.3,30.17,NE,40,0.0,1.0,47,0.00,,,0.00,0.00,VWS V14.01,2013-11-26 12:05:00,
2013-11-26 07:06:00,38.8,20.3,30.17,NE,40,0.0,0.0,47,0.00,,,0.00,0.00,VWS V14.01,2013-11-26 12:06:00,
2013-11-26 07:07:00,38.8,20.3,30.17,NE,40,0.0,2.0,47,0.00,,,0.00,0.00,VWS V14.01,2013-11-26 12:07:00,
2013-11-26 07:08:00,38.8,20.3,30.17,ENE,60,0.0,0.0,47,0.00,,,0.00,0.00,VWS V14.01,2013-11-26 12:08:00,
2013-11-26 07:09:00,38.8,20.3,30.17,NNE,32,0.0,4.0,47,0.00,,,0.00,0.00,VWS V14.01,2013-11-26 12:09:00,
2013-11-26 07:10:00,38.8,20.3,30.17,NE,44,1.0,2.0,47,0.00,,,0.00,0.00,VWS V14.01,2013-11-26 12:10:00,
2013-11-26 07:11:00,38.8,20.3,30.17,NE,52,3.0,3.0,47,0.00,,,0.00,5.00,VWS V14.01,2013-11-26 12:11:00,
2013-11-26 07:12:00,38.8,20.3,30.17,NE,51,1.0,7.0,47,0.00,,,0.00,5.00,VWS V14.01,2013-11-26 12:12:00,
2013-11-26 07:13:00,38.8,20.3,30.17,NE,40,0.0,1.0,47,0.00,,,0.00,0.00,VWS V14.01,2013-11-26 12:13:00,
2013-11-26 07:14:00,38.8,19.8,30.17,NNE,20,5.0,5.0,46,0.00,,,0.00,7.00,VWS V14.01,2013-11-26 12:14:00,
2013-11-26 07:15:00,38.8,19.8,30.16,NNE,29,2.0,5.0,46,0.00,,,0.00,7.00,VWS V14.01,2013-11-26 12:15:00,
2013-11-26 07:16:00,38.8,20.3,30.16,NNE,29,0.0,2.0,47,0.00,,,0.00,7.00,VWS V14.01,2013-11-26 12:16:00,
2013-11-26 07:17:00,38.8,20.3,30.16,NE,34,1.0,4.0,47,0.00,,,0.00,9.00,VWS V14.01,2013-11-26 12:17:00,
2013-11-26 07:18:00,38.8,20.3,30.17,NE,44,1.0,2.0,47,0.00,,,0.00,0.00,VWS V14.01,2013-11-26 12:18:00,
2013-11-26 07:19:00,38.8,19.8,30.16,NNE,29,0.0,0.0,46,0.00,,,0.00,11.00,VWS V14.01,2013-11-26 12:19:00,
2013-11-26 07:20:00,38.8,19.8,30.16,NNE,29,0.0,0.0,46,0.00,,,0.00,11.00,VWS V14.01,2013-11-26 12:20:00,
2013-11-26 07:21:00,38.8,19.8,30.16,NNE,29,0.0,0.0,46,0.00,,,0.00,12.00,VWS V14.01,2013-11-26 12:21:00,
2013-11-26 07:22:00,38.8,19.8,30.16,NNE,29,0.0,0.0,46,0.00,,,0.00,14.00,VWS V14.01,2013-11-26 12:22:00,
2013-11-26 07:23:00,38.8,19.8,30.16,NNE,29,2.0,5.0,46,0.00,,,0.00,7.00,VWS V14.01,2013-11-26 12:23:00,
2013-11-26 07:24:00,38.8,20.3,30.16,NNE,29,0.0,0.0,47,0.00,,,0.00,16.00,VWS V14.01,2013-11-26 12:24:00,
2013-11-26 07:25:00,38.8,20.3,30.16,NNE,23,0.0,1.0,47,0.00,,,0.00,16.00,VWS V14.01,2013-11-26 12:25:00,
2013-11-26 07:26:00,38.8,20.3,30.16,NE,48,0.0,2.0,47,0.00,,,0.00,18.00,VWS V14.01,2013-11-26 12:26:00,
2013-11-26 07:27:00,38.8,20.3,30.16,NE,49,3.0,3.0,47,0.00,,,0.00,19.00,VWS V14.01,2013-11-26 12:27:00,
2013-11-26 07:28:00,38.8,19.8,30.16,NNE,29,0.0,0.0,46,0.00,,,0.00,11.00,VWS V14.01,2013-11-26 12:28:00,
2013-11-26 07:29:00,38.8,20.3,30.16,NE,49,0.0,0.0,47,0.00,,,0.00,21.00,VWS V14.01,2013-11-26 12:29:00,
2013-11-26 07:30:00,38.9,20.4,30.16,NE,48,0.0,0.0,47,0.00,,,0.00,21.00,VWS V14.01,2013-11-26 12:30:00,
2013-11-26 07:31:00,38.9,20.4,30.16,NE,48,0.0,0.0,47,0.00,,,0.00,21.00,VWS V14.01,2013-11-26 12:31:00,
2013-11-26 07:32:00,38.9,20.4,30.16,NE,48,0.0,0.0,47,0.00,,,0.00,21.00,VWS V14.01,2013-11-26 12:32:00,
2013-11-26 07:33:00,38.8,20.3,30.16,NNE,23,0.0,1.0,47,0.00,,,0.00,16.00,VWS V14.01,2013-11-26 12:33:00,
2013-11-26 07:34:00,38.9,20.4,30.16,NE,36,0.0,4.0,47,0.00,,,0.00,21.00,VWS V14.01,2013-11-26 12:34:00,
2013-11-26 07:35:00,38.9,20.4,30.16,NE,37,0.0,0.0,47,0.00,,,0.00,23.00,VWS V14.01,2013-11-26 12:35:00,
2013-11-26 07:36:00,38.9,20.4,30.16,North,4,5.0,5.0,47,0.00,,,0.00,23.00,VWS V14.01,2013-11-26 12:36:00,
2013-11-26 07:37:00,38.9,20.4,30.16,North,4,2.0,5.0,47,0.00,,,0.00,23.00,VWS V14.01,2013-11-26 12:37:00,
2013-11-26 07:38:00,38.9,20.4,30.16,NE,48,0.0,0.0,47,0.00,,,0.00,21.00,VWS V14.01,2013-11-26 12:38:00,
2013-11-26 07:39:00,38.9,20.4,30.16,NNE,23,0.0,0.0,47,0.00,,,0.00,23.00,VWS V14.01,2013-11-26 12:39:00,
2013-11-26 07:40:00,38.9,20.4,30.16,NNE,25,0.0,3.0,47,0.00,,,0.00,25.00,VWS V14.01,2013-11-26 12:40:00,
2013-11-26 07:41:00,38.9,20.4,30.16,NNE,25,0.0,0.0,47,0.00,,,0.00,23.00,VWS V14.01,2013-11-26 12:41:00,
2013-11-26 07:42:00,38.9,20.4,30.16,NNE,25,2.0,2.0,47,0.00,,,0.00,23.00,VWS V14.01,2013-11-26 12:42:00,
2013-11-26 07:43:00,38.9,20.4,30.16,NE,37,0.0,0.0,47,0.00,,,0.00,23.00,VWS V14.01,2013-11-26 12:43:00,
2013-11-26 07:44:00,39.1,21.1,30.16,NE,48,4.0,4.0,48,0.00,,,0.00,23.00,VWS V14.01,2013-11-26 12:44:00,
2013-11-26 07:45:00,39.1,21.1,30.15,NE,48,4.0,4.0,48,0.00,,,0.00,23.00,VWS V14.01,2013-11-26 12:45:00,
2013-11-26 07:46:00,39.1,21.1,30.15,NE,48,4.0,4.0,48,0.00,,,0.00,23.00,VWS V14.01,2013-11-26 12:46:00,
2013-11-26 07:47:00,39.1,21.1,30.15,NE,48,4.0,4.0,48,0.00,,,0.00,23.00,VWS V14.01,2013-11-26 12:47:00,
2013-11-26 07:48:00,38.9,20.4,30.16,NNE,25,0.0,0.0,47,0.00,,,0.00,25.00,VWS V14.01,2013-11-26 12:48:00,
2013-11-26 07:49:00,39.1,21.1,30.15,NE,48,4.0,4.0,48,0.00,,,0.00,23.00,VWS V14.01,2013-11-26 12:49:00,
2013-11-26 07:50:00,39.1,21.1,30.15,NE,48,4.0,4.0,48,0.00,,,0.00,23.00,VWS V14.01,2013-11-26 12:50:00,
2013-11-26 07:51:00,39.1,21.1,30.15,NE,41,7.0,7.0,48,0.00,,,0.00,28.00,VWS V14.01,2013-11-26 12:51:00,
2013-11-26 07:52:00,39.2,20.7,30.15,NNE,31,0.0,7.0,47,0.00,,,0.00,30.00,VWS V14.01,2013-11-26 12:52:00,
2013-11-26 07:53:00,39.1,21.1,30.15,NE,48,4.0,4.0,48,0.00,,,0.00,23.00,VWS V14.01,2013-11-26 12:53:00,
2013-11-26 07:54:00,39.2,20.7,30.15,NE,35,0.0,0.0,47,0.00,,,0.00,32.00,VWS V14.01,2013-11-26 12:54:00,
2013-11-26 07:55:00,39.2,20.7,30.15,NE,35,0.0,0.0,47,0.00,,,0.00,33.00,VWS V14.01,2013-11-26 12:55:00,
2013-11-26 07:56:00,39.2,20.7,30.15,NNE,23,0.0,3.0,47,0.00,,,0.00,33.00,VWS V14.01,2013-11-26 12:56:00,
2013-11-26 07:57:00,39.2,20.7,30.15,NNE,23,0.0,0.0,47,0.00,,,0.00,37.00,VWS V14.01,2013-11-26 12:57:00,
2013-11-26 07:58:00,39.1,21.1,30.15,NE,48,4.0,4.0,48,0.00,,,0.00,23.00,VWS V14.01,2013-11-26 12:58:00,
2013-11-26 07:59:00,39.2,20.7,30.15,NNE,24,2.0,2.0,47,0.00,,,0.00,39.00,VWS V14.01,2013-11-26 12:59:00,
2013-11-26 08:00:00,39.2,20.7,30.13,NNE,28,0.0,2.0,47,0.00,,,0.00,40.00,VWS V14.01,2013-11-26 13:00:00,
2013-11-26 08:01:00,39.2,20.7,30.13,North,9,1.0,2.0,47,0.00,,,0.00,42.00,VWS V14.01,2013-11-26 13:01:00,
2013-11-26 08:02:00,39.3,20.8,30.13,NNE,25,4.0,4.0,47,0.00,,,0.00,46.00,VWS V14.01,2013-11-26 13:02:00,
2013-11-26 08:03:00,39.2,20.7,30.15,NNE,23,3.0,3.0,47,0.00,,,0.00,33.00,VWS V14.01,2013-11-26 13:03:00,
2013-11-26 08:04:00,39.3,20.3,30.13,NNE,14,0.0,0.0,46,0.00,,,0.00,53.00,VWS V14.01,2013-11-26 13:04:00,
2013-11-26 08:05:00,39.3,20.8,30.13,NNE,14,0.0,0.0,47,0.00,,,0.00,54.00,VWS V14.01,2013-11-26 13:05:00,
2013-11-26 08:06:00,39.3,20.8,30.13,ENE,61,0.0,2.0,47,0.00,,,0.00,54.00,VWS V14.01,2013-11-26 13:06:00,
2013-11-26 08:07:00,39.3,20.8,30.13,ENE,61,0.0,0.0,47,0.00,,,0.00,56.00,VWS V14.01,2013-11-26 13:07:00,
2013-11-26 08:08:00,39.2,20.7,30.13,North,8,0.0,2.0,47,0.00,,,0.00,42.00,VWS V14.01,2013-11-26 13:08:00,
2013-11-26 08:09:00,39.5,21.5,30.13,NE,41,0.0,0.0,48,0.00,,,0.00,62.00,VWS V14.01,2013-11-26 13:09:00,
2013-11-26 08:10:00,39.5,21.0,30.13,NE,47,0.0,1.0,47,0.00,,,0.00,62.00,VWS V14.01,2013-11-26 13:10:00,
2013-11-26 08:11:00,39.5,21.0,30.13,NNE,24,3.0,4.0,47,0.00,,,0.00,63.00,VWS V14.01,2013-11-26 13:11:00,
2013-11-26 08:12:00,39.6,21.0,30.13,NNE,25,0.0,3.0,47,0.00,,,0.00,65.00,VWS V14.01,2013-11-26 13:12:00,
2013-11-26 08:13:00,39.3,20.8,30.13,ENE,61,0.0,2.0,47,0.00,,,0.00,54.00,VWS V14.01,2013-11-26 13:13:00,
2013-11-26 08:14:00,39.6,21.0,30.13,NNE,30,0.0,0.0,47,0.00,,,0.00,69.00,VWS V14.01,2013-11-26 13:14:00,
2013-11-26 08:15:00,39.6,21.0,30.13,NE,34,2.0,2.0,47,0.00,,,0.00,72.00,VWS V14.01,2013-11-26 13:15:00,
2013-11-26 08:16:00,39.6,21.0,30.13,NE,44,0.0,4.0,47,0.00,,,0.00,72.00,VWS V14.01,2013-11-26 13:16:00,
2013-11-26 08:17:00,39.8,21.2,30.13,NE,44,0.0,1.0,47,0.00,,,0.00,72.00,VWS V14.01,2013-11-26 13:17:00,
2013-11-26 08:18:00,39.5,21.0,30.13,NNE,24,3.0,4.0,47,0.00,,,0.00,63.00,VWS V14.01,2013-11-26 13:18:00,
2013-11-26 08:19:00,39.8,21.2,30.13,NNE,13,2.0,4.0,47,0.00,,,0.00,70.00,VWS V14.01,2013-11-26 13:19:00,
2013-11-26 08:20:00,39.9,21.3,30.13,NE,37,2.0,5.0,47,0.00,,,0.00,69.00,VWS V14.01,2013-11-26 13:20:00,
2013-11-26 08:21:00,39.9,21.3,30.13,NNE,20,0.0,2.0,47,0.00,,,0.00,63.00,VWS V14.01,2013-11-26 13:21:00,
2013-11-26 08:22:00,39.9,21.3,30.13,NNE,20,0.0,3.0,47,0.00,,,0.00,60.00,VWS V14.01,2013-11-26 13:22:00,
2013-11-26 08:23:00,39.9,21.3,30.13,NNE,29,1.0,1.0,47,0.00,,,0.00,54.00,VWS V14.01,2013-11-26 13:23:00,
2013-11-26 08:24:00,39.6,21.0,30.13,NE,44,0.0,4.0,47,0.00,,,0.00,72.00,VWS V14.01,2013-11-26 13:24:00,
2013-11-26 08:25:00,40.1,21.5,30.13,North,10,0.0,3.0,47,0.00,,,0.00,53.00,VWS V14.01,2013-11-26 13:25:00,
2013-11-26 08:26:00,40.1,21.5,30.13,NNE,32,0.0,1.0,47,0.00,,,0.00,53.00,VWS V14.01,2013-11-26 13:26:00,
2013-11-26 08:27:00,40.1,21.5,30.13,NNE,32,0.0,0.0,47,0.00,,,0.00,56.00,VWS V14.01,2013-11-26 13:27:00,
2013-11-26 08:28:00,40.1,21.5,30.13,NNE,32,0.0,0.0,47,0.00,,,0.00,56.00,VWS V14.01,2013-11-26 13:28:00,
2013-11-26 08:29:00,39.9,21.3,30.13,NNE,20,0.0,2.0,47,0.00,,,0.00,63.00,VWS V14.01,2013-11-26 13:29:00,
2013-11-26 08:30:00,40.2,21.6,30.12,NE,35,0.0,3.0,47,0.00,,,0.00,58.00,VWS V14.01,2013-11-26 13:30:00,
2013-11-26 08:31:00,40.2,22.1,30.12,NE,35,0.0,0.0,48,0.00,,,0.00,58.00,VWS V14.01,2013-11-26 13:31:00,
2013-11-26 08:32:00,40.2,21.6,30.12,NE,48,4.0,6.0,47,0.00,,,0.00,60.00,VWS V14.01,2013-11-26 13:32:00,
2013-11-26 08:33:00,40.2,21.6,30.12,NE,47,0.0,4.0,47,0.00,,,0.00,63.00,VWS V14.01,2013-11-26 13:33:00,
2013-11-26 08:34:00,40.1,21.5,30.13,NNE,32,0.0,1.0,47,0.00,,,0.00,53.00,VWS V14.01,2013-11-26 13:34:00,
2013-11-26 08:35:00,40.3,22.2,30.12,NE,56,0.0,5.0,48,0.00,,,0.00,69.00,VWS V14.01,2013-11-26 13:35:00,
2013-11-26 08:36:00,40.3,22.2,30.12,NE,56,0.0,0.0,48,0.00,,,0.00,70.00,VWS V14.01,2013-11-26 13:36:00,
2013-11-26 08:37:00,40.3,22.2,30.12,ENE,57,0.0,0.0,48,0.00,,,0.00,72.00,VWS V14.01,2013-11-26 13:37:00,
2013-11-26 08:38:00,40.3,22.2,30.12,NE,56,0.0,0.0,48,0.00,,,0.00,72.00,VWS V14.01,2013-11-26 13:38:00,
2013-11-26 08:39:00,40.2,22.1,30.12,NE,35,0.0,0.0,48,0.00,,,0.00,58.00,VWS V14.01,2013-11-26 13:39:00,
2013-11-26 08:40:00,40.5,22.4,30.12,NE,56,0.0,1.0,48,0.00,,,0.00,70.00,VWS V14.01,2013-11-26 13:40:00,
2013-11-26 08:41:00,40.5,22.4,30.12,NE,56,1.0,3.0,48,0.00,,,0.00,70.00,VWS V14.01,2013-11-26 13:41:00,
2013-11-26 08:42:00,40.5,22.4,30.12,ENE,60,4.0,10.0,48,0.00,,,0.00,70.00,VWS V14.01,2013-11-26 13:42:00,
2013-11-26 08:43:00,40.6,22.5,30.12,East,89,5.0,9.0,48,0.00,,,0.00,70.00,VWS V14.01,2013-11-26 13:43:00,
2013-11-26 08:44:00,40.3,22.2,30.12,NE,56,0.0,0.0,48,0.00,,,0.00,70.00,VWS V14.01,2013-11-26 13:44:00,
2013-11-26 08:45:00,40.6,22.5,30.11,ENE,75,1.0,3.0,48,0.00,,,0.00,72.00,VWS V14.01,2013-11-26 13:45:00,
2013-11-26 08:46:00,40.6,22.5,30.11,ENE,74,2.0,3.0,48,0.00,,,0.00,72.00,VWS V14.01,2013-11-26 13:46:00,
2013-11-26 08:47:00,40.8,22.6,30.11,East,89,0.0,2.0,48,0.00,,,0.00,72.00,VWS V14.01,2013-11-26 13:47:00,
2013-11-26 08:49:00,40.5,22.4,30.12,NE,56,1.0,3.0,48,0.00,,,0.00,70.00,VWS V14.01,2013-11-26 13:49:00,
2013-11-26 08:50:00,40.8,22.6,30.11,ENE,67,0.0,2.0,48,0.00,,,0.00,77.00,VWS V14.01,2013-11-26 13:50:00,
2013-11-26 08:52:00,40.8,23.1,30.11,NNE,30,0.0,4.0,49,0.00,,,0.00,83.00,VWS V14.01,2013-11-26 13:52:00,
2013-11-26 08:54:00,40.6,22.5,30.11,ENE,74,0.0,2.0,48,0.00,,,0.00,72.00,VWS V14.01,2013-11-26 13:54:00,
2013-11-26 08:55:00,40.9,23.7,30.11,NNE,32,1.0,1.0,50,0.00,,,0.00,91.00,VWS V14.01,2013-11-26 13:55:00,
2013-11-26 08:56:00,41.1,23.9,30.11,ENE,64,0.0,5.0,50,0.00,,,0.00,91.00,VWS V14.01,2013-11-26 13:56:00,
2013-11-26 08:57:00,41.1,23.9,30.11,NE,41,0.0,4.0,50,0.00,,,0.00,90.00,VWS V14.01,2013-11-26 13:57:00,
2013-11-26 08:58:00,41.1,23.9,30.11,NE,48,3.0,3.0,50,0.00,,,0.00,88.00,VWS V14.01,2013-11-26 13:58:00,
2013-11-26 08:59:00,40.8,23.1,30.11,NNE,30,2.0,4.0,49,0.00,,,0.00,79.00,VWS V14.01,2013-11-26 13:59:00,
2013-11-26 09:00:00,41.2,24.0,30.10,ENE,59,5.0,6.0,50,0.00,,,0.00,84.00,VWS V14.01,2013-11-26 14:00:00,
2013-11-26 09:01:00,41.2,24.0,30.10,ENE,72,2.0,5.0,50,0.00,,,0.00,84.00,VWS V14.01,2013-11-26 14:01:00,
2013-11-26 09:02:00,41.2,24.0,30.10,ENE,70,0.0,2.0,50,0.00,,,0.00,83.00,VWS V14.01,2013-11-26 14:02:00,
2013-11-26 09:03:00,41.2,24.0,30.10,ENE,70,0.0,0.0,50,0.00,,,0.00,83.00,VWS V14.01,2013-11-26 14:03:00,
2013-11-26 09:04:00,41.1,23.9,30.11,NE,43,3.0,3.0,50,0.00,,,0.00,91.00,VWS V14.01,2013-11-26 14:04:00,
2013-11-26 09:05:00,41.3,24.1,30.10,ENE,70,0.0,0.0,50,0.00,,,0.00,76.00,VWS V14.01,2013-11-26 14:05:00,
2013-11-26 09:06:00,41.3,24.1,30.10,ENE,70,0.0,0.0,50,0.00,,,0.00,72.00,VWS V14.01,2013-11-26 14:06:00,
2013-11-26 09:07:00,41.3,24.5,30.10,ENE,70,0.0,0.0,51,0.00,,,0.00,67.00,VWS V14.01,2013-11-26 14:07:00,
2013-11-26 09:08:00,41.3,24.5,30.10,ENE,70,0.0,0.0,51,0.00,,,0.00,67.00,VWS V14.01,2013-11-26 14:08:00,
2013-11-26 09:09:00,41.2,24.0,30.10,ENE,70,2.0,2.0,50,0.00,,,0.00,83.00,VWS V14.01,2013-11-26 14:09:00,
2013-11-26 09:10:00,41.5,24.7,30.10,NE,51,0.0,0.0,51,0.00,,,0.00,58.00,VWS V14.01,2013-11-26 14:10:00,
2013-11-26 09:11:00,41.5,24.7,30.10,NE,52,0.0,1.0,51,0.00,,,0.00,58.00,VWS V14.01,2013-11-26 14:11:00,
2013-11-26 09:12:00,41.5,24.7,30.10,NE,53,0.0,1.0,51,0.00,,,0.00,58.00,VWS V14.01,2013-11-26 14:12:00,
2013-11-26 09:13:00,41.5,25.2,30.10,NE,53,0.0,0.0,52,0.00,,,0.00,62.00,VWS V14.01,2013-11-26 14:13:00,
2013-11-26 09:14:00,41.3,24.5,30.10,ENE,70,0.0,0.0,51,0.00,,,0.00,67.00,VWS V14.01,2013-11-26 14:14:00,
2013-11-26 09:15:00,41.6,25.3,30.10,NE,53,0.0,0.0,52,0.00,,,0.00,67.00,VWS V14.01,2013-11-26 14:15:00,
2013-11-26 09:16:00,41.6,25.8,30.10,East,82,2.0,2.0,53,0.00,,,0.00,70.00,VWS V14.01,2013-11-26 14:16:00,
2013-11-26 09:17:00,41.6,25.8,30.10,East,98,0.0,4.0,53,0.00,,,0.00,74.00,VWS V14.01,2013-11-26 14:17:00,
2013-11-26 09:18:00,41.6,25.8,30.10,East,98,0.0,0.0,53,0.00,,,0.00,74.00,VWS V14.01,2013-11-26 14:18:00,
2013-11-26 09:19:00,41.5,24.7,30.10,NE,53,1.0,1.0,51,0.00,,,0.00,58.00,VWS V14.01,2013-11-26 14:19:00,
2013-11-26 09:20:00,41.8,26.4,30.10,East,98,0.0,0.0,54,0.00,,,0.00,77.00,VWS V14.01,2013-11-26 14:20:00,
2013-11-26 09:21:00,41.8,26.4,30.10,East,98,0.0,0.0,54,0.00,,,0.00,79.00,VWS V14.01,2013-11-26 14:21:00,
2013-11-26 09:22:00,41.8,26.8,30.10,East,98,0.0,0.0,55,0.00,,,0.00,77.00,VWS V14.01,2013-11-26 14:22:00,
2013-11-26 09:23:00,41.8,26.8,30.10,East,98,0.0,2.0,55,0.00,,,0.00,67.00,VWS V14.01,2013-11-26 14:23:00,
2013-11-26 09:24:00,41.6,25.8,30.10,East,98,0.0,4.0,53,0.00,,,0.00,72.00,VWS V14.01,2013-11-26 14:24:00,
2013-11-26 09:25:00,41.9,26.5,30.10,East,98,0.0,0.0,54,0.00,,,0.00,56.00,VWS V14.01,2013-11-26 14:25:00,
2013-11-26 09:26:00,41.9,26.9,30.10,East,98,1.0,1.0,55,0.00,,,0.00,53.00,VWS V14.01,2013-11-26 14:26:00,
2013-11-26 09:27:00,41.9,26.9,30.10,East,96,0.0,2.0,55,0.00,,,0.00,49.00,VWS V14.01,2013-11-26 14:27:00,
2013-11-26 09:28:00,41.9,26.9,30.10,ENE,75,2.0,4.0,55,0.00,,,0.00,46.00,VWS V14.01,2013-11-26 14:28:00,
2013-11-26 09:29:00,41.8,26.8,30.10,East,98,0.0,0.0,55,0.00,,,0.00,77.00,VWS V14.01,2013-11-26 14:29:00,
2013-11-26 09:30:00,42.1,27.1,30.09,ENE,73,0.0,0.0,55,0.00,,,0.00,44.00,VWS V14.01,2013-11-26 14:30:00,
2013-11-26 09:31:00,42.1,27.1,30.09,ENE,68,0.0,3.0,55,0.00,,,0.00,44.00,VWS V14.01,2013-11-26 14:31:00,
2013-11-26 09:32:00,42.1,27.1,30.09,ENE,69,0.0,0.0,55,0.00,,,0.00,46.00,VWS V14.01,2013-11-26 14:32:00,
2013-11-26 09:33:00,42.1,27.5,30.09,ENE,69,0.0,4.0,56,0.00,,,0.00,46.00,VWS V14.01,2013-11-26 14:33:00,
2013-11-26 09:34:00,41.9,26.9,30.10,East,94,0.0,2.0,55,0.00,,,0.00,49.00,VWS V14.01,2013-11-26 14:34:00,
2013-11-26 09:35:00,42.1,27.5,30.09,ENE,70,0.0,0.0,56,0.00,,,0.00,46.00,VWS V14.01,2013-11-26 14:35:00,
2013-11-26 09:36:00,42.1,27.5,30.09,ENE,70,0.0,0.0,56,0.00,,,0.00,46.00,VWS V14.01,2013-11-26 14:36:00,
2013-11-26 09:37:00,42.1,27.5,30.09,ENE,70,0.0,0.0,56,0.00,,,0.00,40.00,VWS V14.01,2013-11-26 14:37:00,
2013-11-26 09:38:00,42.1,28.0,30.09,ENE,70,2.0,3.0,57,0.00,,,0.00,39.00,VWS V14.01,2013-11-26 14:38:00,
2013-11-26 09:39:00,42.1,27.1,30.09,ENE,69,0.0,0.0,55,0.00,,,0.00,46.00,VWS V14.01,2013-11-26 14:39:00,
2013-11-26 09:40:00,42.1,28.4,30.09,ENE,70,0.0,0.0,58,0.00,,,0.00,35.00,VWS V14.01,2013-11-26 14:40:00,
2013-11-26 09:41:00,42.1,28.4,30.09,ENE,70,0.0,0.0,58,0.00,,,0.00,37.00,VWS V14.01,2013-11-26 14:41:00,
2013-11-26 09:42:00,42.1,28.8,30.09,ENE,70,0.0,0.0,59,0.00,,,0.00,37.00,VWS V14.01,2013-11-26 14:42:00,
2013-11-26 09:43:00,42.1,28.8,30.09,ENE,70,0.0,2.0,59,0.00,,,0.00,40.00,VWS V14.01,2013-11-26 14:43:00,
2013-11-26 09:44:00,42.1,28.8,30.08,ENE,70,0.0,0.0,59,0.00,,,0.00,42.00,VWS V14.01,2013-11-26 14:44:00,
2013-11-26 09:45:00,42.1,27.5,30.09,ENE,70,0.0,0.0,56,0.00,,,0.00,40.00,VWS V14.01,2013-11-26 14:45:00,
2013-11-26 09:46:00,42.1,28.8,30.08,ENE,70,0.0,0.0,59,0.00,,,0.00,42.00,VWS V14.01,2013-11-26 14:46:00,
2013-11-26 09:47:00,42.1,28.8,30.08,ENE,70,0.0,0.0,59,0.00,,,0.00,42.00,VWS V14.01,2013-11-26 14:47:00,
2013-11-26 09:48:00,42.1,28.8,30.08,ENE,70,0.0,0.0,59,0.00,,,0.00,42.00,VWS V14.01,2013-11-26 14:48:00,
2013-11-26 09:49:00,42.1,28.8,30.08,ENE,70,0.0,0.0,59,0.00,,,0.00,42.00,VWS V14.01,2013-11-26 14:49:00,
2013-11-26 09:50:00,42.1,28.8,30.09,ENE,70,0.0,0.0,59,0.00,,,0.00,37.00,VWS V14.01,2013-11-26 14:50:00,
2013-11-26 09:51:00,42.1,29.6,30.08,ENE,70,1.0,3.0,61,0.00,,,0.00,56.00,VWS V14.01,2013-11-26 14:51:00,
2013-11-26 09:52:00,41.9,29.5,30.08,ENE,70,0.0,1.0,61,0.00,,,0.00,62.00,VWS V14.01,2013-11-26 14:52:00,
2013-11-26 09:53:00,41.9,29.5,30.08,ENE,70,0.0,2.0,61,0.00,,,0.00,67.00,VWS V14.01,2013-11-26 14:53:00,
2013-11-26 09:54:00,41.9,29.5,30.08,ENE,70,3.0,3.0,61,0.00,,,0.00,69.00,VWS V14.01,2013-11-26 14:54:00,
2013-11-26 09:55:00,42.1,28.8,30.08,ENE,70,0.0,0.0,59,0.00,,,0.00,42.00,VWS V14.01,2013-11-26 14:55:00,
2013-11-26 09:56:00,41.9,29.5,30.08,ENE,70,0.0,3.0,61,0.00,,,0.00,65.00,VWS V14.01,2013-11-26 14:56:00,
2013-11-26 09:57:00,41.9,29.5,30.08,ENE,70,3.0,3.0,61,0.00,,,0.00,67.00,VWS V14.01,2013-11-26 14:57:00,
2013-11-26 09:58:00,41.9,29.5,30.08,ENE,70,0.0,3.0,61,0.00,,,0.00,72.00,VWS V14.01,2013-11-26 14:58:00,
2013-11-26 09:59:00,41.9,29.5,30.08,ENE,70,0.0,0.0,61,0.00,,,0.00,72.00,VWS V14.01,2013-11-26 14:59:00,
2013-11-26 10:00:00,41.9,29.5,30.08,ENE,70,0.0,1.0,61,0.00,,,0.00,62.00,VWS V14.01,2013-11-26 15:00:00,
2013-11-26 10:01:00,41.9,29.9,30.08,ENE,70,0.0,0.0,62,0.00,,,0.00,76.00,VWS V14.01,2013-11-26 15:01:00,
2013-11-26 10:02:00,41.9,29.9,30.08,ENE,70,0.0,0.0,62,0.00,,,0.00,70.00,VWS V14.01,2013-11-26 15:02:00,
2013-11-26 10:03:00,41.9,29.9,30.08,ENE,70,0.0,0.0,62,0.00,,,0.00,70.00,VWS V14.01,2013-11-26 15:03:00,
2013-11-26 10:04:00,41.9,29.9,30.08,ENE,70,0.0,0.0,62,0.00,,,0.00,63.00,VWS V14.01,2013-11-26 15:04:00,
2013-11-26 10:05:00,41.9,29.5,30.08,ENE,70,3.0,3.0,61,0.00,,,0.00,67.00,VWS V14.01,2013-11-26 15:05:00,
2013-11-26 10:06:00,41.9,30.2,30.08,ENE,70,0.0,0.0,63,0.00,,,0.00,72.00,VWS V14.01,2013-11-26 15:06:00,
2013-11-26 10:07:00,41.9,30.2,30.08,ENE,70,0.0,0.0,63,0.00,,,0.00,81.00,VWS V14.01,2013-11-26 15:07:00,
2013-11-26 10:08:00,41.9,30.2,30.08,ENE,70,0.0,0.0,63,0.00,,,0.00,86.00,VWS V14.01,2013-11-26 15:08:00,
2013-11-26 10:09:00,41.9,30.2,30.08,ENE,70,0.0,3.0,63,0.00,,,0.00,90.00,VWS V14.01,2013-11-26 15:09:00,
2013-11-26 10:10:00,41.9,29.9,30.08,ENE,70,0.0,0.0,62,0.00,,,0.00,70.00,VWS V14.01,2013-11-26 15:10:00,
2013-11-26 10:11:00,42.1,30.4,30.08,ENE,70,0.0,1.0,63,0.00,,,0.00,97.00,VWS V14.01,2013-11-26 15:11:00,
2013-11-26 10:12:00,42.1,30.4,30.08,ENE,70,3.0,3.0,63,0.00,,,0.00,97.00,VWS V14.01,2013-11-26 15:12:00,
2013-11-26 10:13:00,42.1,30.4,30.08,ENE,69,3.0,4.0,63,0.00,,,0.00,97.00,VWS V14.01,2013-11-26 15:13:00,
2013-11-26 10:14:00,42.1,30.8,30.08,ENE,69,0.0,3.0,64,0.00,,,0.00,100.00,VWS V14.01,2013-11-26 15:14:00,
2013-11-26 10:15:00,41.9,30.2,30.08,ENE,70,0.0,0.0,63,0.00,,,0.00,81.00,VWS V14.01,2013-11-26 15:15:00,
2013-11-26 10:16:00,42.1,30.4,30.08,ENE,58,0.0,5.0,63,0.00,,,0.00,97.00,VWS V14.01,2013-11-26 15:16:00,
2013-11-26 10:17:00,42.1,30.4,30.08,ENE,58,0.0,0.0,63,0.00,,,0.00,97.00,VWS V14.01,2013-11-26 15:17:00,
2013-11-26 10:18:00,42.1,30.8,30.08,ENE,57,0.0,0.0,64,0.00,,,0.00,109.00,VWS V14.01,2013-11-26 15:18:00,
2013-11-26 10:19:00,42.1,30.8,30.08,ENE,57,0.0,0.0,64,0.00,,,0.00,113.00,VWS V14.01,2013-11-26 15:19:00,
2013-11-26 10:20:00,42.1,30.4,30.08,ENE,70,3.0,3.0,63,0.00,,,0.00,97.00,VWS V14.01,2013-11-26 15:20:00,
2013-11-26 10:21:00,42.1,30.8,30.08,ENE,58,0.0,0.0,64,0.00,,,0.00,107.00,VWS V14.01,2013-11-26 15:21:00,
2013-11-26 10:22:00,42.1,31.2,30.08,ENE,65,3.0,3.0,65,0.00,,,0.00,91.00,VWS V14.01,2013-11-26 15:22:00,
2013-11-26 10:23:00,42.1,31.2,30.08,East,80,1.0,4.0,65,0.00,,,0.00,91.00,VWS V14.01,2013-11-26 15:23:00,
2013-11-26 10:24:00,42.2,31.3,30.08,East,80,0.0,1.0,65,0.00,,,0.00,81.00,VWS V14.01,2013-11-26 15:24:00,
2013-11-26 10:25:00,42.1,30.4,30.08,ENE,57,0.0,0.0,63,0.00,,,0.00,102.00,VWS V14.01,2013-11-26 15:25:00,
2013-11-26 10:26:00,42.2,31.3,30.08,East,80,0.0,0.0,65,0.00,,,0.00,76.00,VWS V14.01,2013-11-26 15:26:00,
2013-11-26 10:27:00,42.2,31.3,30.08,ENE,64,0.0,3.0,65,0.00,,,0.00,74.00,VWS V14.01,2013-11-26 15:27:00,
2013-11-26 10:28:00,42.2,31.3,30.08,ENE,62,4.0,4.0,65,0.00,,,0.00,74.00,VWS V14.01,2013-11-26 15:28:00,
2013-11-26 10:29:00,42.2,31.3,30.07,ENE,63,0.0,4.0,65,0.00,,,0.00,81.00,VWS V14.01,2013-11-26 15:29:00,
2013-11-26 10:30:00,42.1,31.2,30.08,East,95,4.0,4.0,65,0.00,,,0.00,91.00,VWS V14.01,2013-11-26 15:30:00,
2013-11-26 10:31:00,42.3,31.4,30.07,ENE,63,0.0,0.0,65,0.00,,,0.00,86.00,VWS V14.01,2013-11-26 15:31:00,
2013-11-26 10:32:00,42.3,31.4,30.07,ENE,63,0.0,0.0,65,0.00,,,0.00,86.00,VWS V14.01,2013-11-26 15:32:00,
2013-11-26 10:33:00,42.3,31.4,30.07,ENE,63,0.0,1.0,65,0.00,,,0.00,84.00,VWS V14.01,2013-11-26 15:33:00,
2013-11-26 10:34:00,42.3,31.4,30.07,ENE,58,0.0,0.0,65,0.00,,,0.00,83.00,VWS V14.01,2013-11-26 15:34:00,
2013-11-26 10:35:00,42.2,31.3,30.08,ENE,63,1.0,1.0,65,0.00,,,0.00,74.00,VWS V14.01,2013-11-26 15:35:00,
2013-11-26 10:36:00,42.3,31.8,30.07,NE,53,0.0,0.0,66,0.00,,,0.00,77.00,VWS V14.01,2013-11-26 15:36:00,
2013-11-26 10:37:00,42.3,31.8,30.07,NE,53,1.0,1.0,66,0.00,,,0.00,76.00,VWS V14.01,2013-11-26 15:37:00,
2013-11-26 10:38:00,42.3,31.8,30.07,NE,53,0.0,1.0,66,0.00,,,0.00,72.00,VWS V14.01,2013-11-26 15:38:00,
2013-11-26 10:39:00,42.3,31.8,30.07,NE,53,0.0,0.0,66,0.00,,,0.00,72.00,VWS V14.01,2013-11-26 15:39:00,
2013-11-26 10:40:00,42.3,31.4,30.07,ENE,63,0.0,1.0,65,0.00,,,0.00,84.00,VWS V14.01,2013-11-26 15:40:00,
2013-11-26 10:41:00,42.3,32.1,30.07,NE,53,0.0,0.0,67,0.00,,,0.00,72.00,VWS V14.01,2013-11-26 15:41:00,
2013-11-26 10:42:00,42.3,32.1,30.07,NE,53,0.0,0.0,67,0.00,,,0.00,63.00,VWS V14.01,2013-11-26 15:42:00,
2013-11-26 10:43:00,42.3,32.1,30.07,NE,53,2.0,2.0,67,0.00,,,0.00,58.00,VWS V14.01,2013-11-26 15:43:00,
2013-11-26 10:44:00,42.3,32.1,30.07,NE,53,3.0,3.0,67,0.00,,,0.00,56.00,VWS V14.01,2013-11-26 15:44:00,
2013-11-26 10:45:00,42.3,31.8,30.07,NE,53,0.0,1.0,66,0.00,,,0.00,72.00,VWS V14.01,2013-11-26 15:45:00,
2013-11-26 10:46:00,42.3,32.1,30.06,NE,53,2.0,2.0,67,0.00,,,0.00,60.00,VWS V14.01,2013-11-26 15:46:00,
2013-11-26 10:47:00,42.3,32.1,30.06,NE,53,0.0,2.0,67,0.00,,,0.00,62.00,VWS V14.01,2013-11-26 15:47:00,
2013-11-26 10:48:00,42.3,32.1,30.06,NE,53,0.0,0.0,67,0.00,,,0.00,63.00,VWS V14.01,2013-11-26 15:48:00,
2013-11-26 10:49:00,42.3,32.5,30.06,NE,53,2.0,2.0,68,0.00,,,0.00,63.00,VWS V14.01,2013-11-26 15:49:00,
2013-11-26 10:50:00,42.3,32.1,30.07,NE,53,2.0,2.0,67,0.00,,,0.00,58.00,VWS V14.01,2013-11-26 15:50:00,
2013-11-26 10:51:00,42.3,32.5,30.06,NE,53,1.0,1.0,68,0.00,,,0.00,58.00,VWS V14.01,2013-11-26 15:51:00,
2013-11-26 10:52:00,42.3,32.5,30.06,NE,53,0.0,3.0,68,0.00,,,0.00,56.00,VWS V14.01,2013-11-26 15:52:00,
2013-11-26 10:53:00,42.3,32.5,30.06,NE,53,0.0,0.0,68,0.00,,,0.00,56.00,VWS V14.01,2013-11-26 15:53:00,
2013-11-26 10:54:00,42.3,32.5,30.06,NE,53,2.0,3.0,68,0.00,,,0.00,54.00,VWS V14.01,2013-11-26 15:54:00,
2013-11-26 10:55:00,42.3,32.5,30.06,NE,53,0.0,2.0,68,0.00,,,0.00,56.00,VWS V14.01,2013-11-26 15:55:00,
2013-11-26 10:56:00,42.3,32.1,30.06,NE,53,0.0,0.0,67,0.00,,,0.00,63.00,VWS V14.01,2013-11-26 15:56:00,
2013-11-26 10:57:00,42.3,32.5,30.06,NE,53,0.0,0.0,68,0.00,,,0.00,63.00,VWS V14.01,2013-11-26 15:57:00,
2013-11-26 10:58:00,42.3,32.5,30.06,NE,53,0.0,1.0,68,0.00,,,0.00,70.00,VWS V14.01,2013-11-26 15:58:00,
2013-11-26 10:59:00,42.3,32.5,30.06,NE,53,0.0,0.0,68,0.00,,,0.00,77.00,VWS V14.01,2013-11-26 15:59:00,
2013-11-26 11:00:00,42.3,32.5,30.05,NE,53,0.0,0.0,68,0.00,,,0.00,84.00,VWS V14.01,2013-11-26 16:00:00,
2013-11-26 11:01:00,42.3,32.5,30.06,NE,53,0.0,0.0,68,0.00,,,0.00,56.00,VWS V14.01,2013-11-26 16:01:00,
2013-11-26 11:02:00,42.3,32.9,30.05,NE,56,0.0,3.0,69,0.00,,,0.00,93.00,VWS V14.01,2013-11-26 16:02:00,
2013-11-26 11:03:00,42.5,33.1,30.05,NE,56,1.0,1.0,69,0.00,,,0.00,100.00,VWS V14.01,2013-11-26 16:03:00,
2013-11-26 11:04:00,42.5,32.7,30.05,NE,41,3.0,5.0,68,0.00,,,0.00,118.00,VWS V14.01,2013-11-26 16:04:00,
2013-11-26 11:05:00,42.5,32.7,30.05,NNE,31,0.0,5.0,68,0.00,,,0.00,120.00,VWS V14.01,2013-11-26 16:05:00,
2013-11-26 11:06:00,42.3,32.5,30.06,NE,53,0.0,1.0,68,0.00,,,0.00,70.00,VWS V14.01,2013-11-26 16:06:00,
2013-11-26 11:07:00,42.5,32.7,30.05,NE,41,0.0,7.0,68,0.00,,,0.00,123.00,VWS V14.01,2013-11-26 16:07:00,
2013-11-26 11:08:00,42.5,32.7,30.05,North,8,0.0,5.0,68,0.00,,,0.00,121.00,VWS V14.01,2013-11-26 16:08:00,
2013-11-26 11:09:00,42.5,33.1,30.05,NE,56,0.0,4.0,69,0.00,,,0.00,121.00,VWS V14.01,2013-11-26 16:09:00,
2013-11-26 11:10:00,42.5,32.7,30.05,NE,51,0.0,0.0,68,0.00,,,0.00,127.00,VWS V14.01,2013-11-26 16:10:00,
2013-11-26 11:11:00,42.5,33.1,30.05,NE,56,3.0,5.0,69,0.00,,,0.00,111.00,VWS V14.01,2013-11-26 16:11:00,
2013-11-26 11:12:00,42.6,33.2,30.05,NE,46,3.0,5.0,69,0.00,,,0.00,141.00,VWS V14.01,2013-11-26 16:12:00,
2013-11-26 11:13:00,42.6,32.8,30.05,NE,37,0.0,5.0,68,0.00,,,0.00,149.00,VWS V14.01,2013-11-26 16:13:00,
2013-11-26 11:14:00,42.6,32.8,30.05,NE,38,0.0,1.0,68,0.00,,,0.00,160.00,VWS V14.01,2013-11-26 16:14:00,
2013-11-26 11:15:00,42.8,33.3,30.02,ENE,65,0.0,0.0,69,0.00,,,0.00,167.00,VWS V14.01,2013-11-26 16:15:00,
2013-11-26 11:16:00,42.5,32.7,30.05,NE,38,3.0,3.0,68,0.00,,,0.00,121.00,VWS V14.01,2013-11-26 16:16:00,
2013-11-26 11:17:00,42.8,33.3,30.02,NE,50,0.0,1.0,69,0.00,,,0.00,174.00,VWS V14.01,2013-11-26 16:17:00,
2013-11-26 11:18:00,42.9,33.8,30.02,East,88,2.0,3.0,70,0.00,,,0.00,160.00,VWS V14.01,2013-11-26 16:18:00,
2013-11-26 11:19:00,42.9,33.8,30.02,ENE,75,0.0,3.0,70,0.00,,,0.00,146.00,VWS V14.01,2013-11-26 16:19:00,
2013-11-26 11:20:00,42.9,33.8,30.02,ENE,75,0.0,0.0,70,0.00,,,0.00,146.00,VWS V14.01,2013-11-26 16:20:00,
2013-11-26 11:21:00,42.6,32.8,30.05,NE,37,0.0,0.0,68,0.00,,,0.00,149.00,VWS V14.01,2013-11-26 16:21:00,
2013-11-26 11:22:00,43.2,33.7,30.02,NNE,24,0.0,0.0,69,0.00,,,0.00,139.00,VWS V14.01,2013-11-26 16:22:00,
2013-11-26 11:23:00,43.2,33.7,30.02,NE,51,0.0,3.0,69,0.00,,,0.00,141.00,VWS V14.01,2013-11-26 16:23:00,
2013-11-26 11:24:00,43.2,33.7,30.02,NE,51,0.0,0.0,69,0.00,,,0.00,137.00,VWS V14.01,2013-11-26 16:24:00,
2013-11-26 11:25:00,43.3,33.8,30.02,NE,51,0.0,0.0,69,0.00,,,0.00,128.00,VWS V14.01,2013-11-26 16:25:00,
2013-11-26 11:26:00,42.9,33.8,30.02,East,94,2.0,3.0,70,0.00,,,0.00,160.00,VWS V14.01,2013-11-26 16:26:00,
2013-11-26 11:27:00,43.3,33.8,30.02,NE,51,0.0,0.0,69,0.00,,,0.00,104.00,VWS V14.01,2013-11-26 16:27:00,
2013-11-26 11:28:00,43.3,33.8,30.02,NE,51,0.0,0.0,69,0.00,,,0.00,83.00,VWS V14.01,2013-11-26 16:28:00,
2013-11-26 11:29:00,43.5,34.0,30.02,NE,34,3.0,3.0,69,0.00,,,0.00,76.00,VWS V14.01,2013-11-26 16:29:00,
2013-11-26 11:30:00,43.5,34.0,30.01,NNE,29,0.0,3.0,69,0.00,,,0.00,69.00,VWS V14.01,2013-11-26 16:30:00,
2013-11-26 11:31:00,43.2,33.7,30.02,NE,51,0.0,0.0,69,0.00,,,0.00,141.00,VWS V14.01,2013-11-26 16:31:00,
2013-11-26 11:32:00,43.5,33.7,30.01,NNE,18,4.0,4.0,68,0.00,,,0.00,62.00,VWS V14.01,2013-11-26 16:32:00,
2013-11-26 11:33:00,43.5,33.7,30.01,NNE,18,0.0,4.0,68,0.00,,,0.00,62.00,VWS V14.01,2013-11-26 16:33:00,
2013-11-26 11:34:00,43.5,33.7,30.01,NNE,18,0.0,0.0,68,0.00,,,0.00,58.00,VWS V14.01,2013-11-26 16:34:00,
2013-11-26 11:35:00,43.5,33.7,30.01,NNE,18,0.0,0.0,68,0.00,,,0.00,54.00,VWS V14.01,2013-11-26 16:35:00,
2013-11-26 11:36:00,43.5,34.0,30.02,North,358,0.0,1.0,69,0.00,,,0.00,83.00,VWS V14.01,2013-11-26 16:36:00,
2013-11-26 11:37:00,43.5,34.0,30.01,NNE,18,0.0,0.0,69,0.00,,,0.00,51.00,VWS V14.01,2013-11-26 16:37:00,
2013-11-26 11:38:00,43.5,34.0,30.01,NNE,18,0.0,0.0,69,0.00,,,0.00,49.00,VWS V14.01,2013-11-26 16:38:00,
2013-11-26 11:39:00,43.5,34.4,30.01,NNE,18,0.0,0.0,70,0.00,,,0.00,46.00,VWS V14.01,2013-11-26 16:39:00,
2013-11-26 11:40:00,43.5,34.4,30.01,North,9,2.0,4.0,70,0.00,,,0.00,44.00,VWS V14.01,2013-11-26 16:40:00,
2013-11-26 11:41:00,43.5,33.7,30.01,NNE,18,0.0,0.0,68,0.00,,,0.00,60.00,VWS V14.01,2013-11-26 16:41:00,
2013-11-26 11:42:00,43.5,34.0,30.01,North,9,0.0,0.0,69,0.00,,,0.00,44.00,VWS V14.01,2013-11-26 16:42:00,
2013-11-26 11:43:00,43.5,34.0,30.01,North,9,0.0,0.0,69,0.00,,,0.00,46.00,VWS V14.01,2013-11-26 16:43:00,
2013-11-26 11:44:00,43.5,34.0,30.01,North,9,0.0,1.0,69,0.00,,,0.00,49.00,VWS V14.01,2013-11-26 16:44:00,
2013-11-26 11:45:00,43.5,34.0,30.01,North,9,0.0,0.0,69,0.00,,,0.00,49.00,VWS V14.01,2013-11-26 16:45:00,
2013-11-26 11:46:00,43.5,34.0,30.01,NNE,18,0.0,0.0,69,0.00,,,0.00,49.00,VWS V14.01,2013-11-26 16:46:00,
2013-11-26 11:47:00,43.5,34.0,30.01,North,9,0.0,0.0,69,0.00,,,0.00,53.00,VWS V14.01,2013-11-26 16:47:00,
2013-11-26 11:48:00,43.5,34.0,30.01,North,9,0.0,0.0,69,0.00,,,0.00,56.00,VWS V14.01,2013-11-26 16:48:00,
2013-11-26 11:49:00,43.5,34.0,30.01,North,9,0.0,0.0,69,0.00,,,0.00,58.00,VWS V14.01,2013-11-26 16:49:00,
2013-11-26 11:50:00,43.5,34.0,30.01,North,9,0.0,0.0,69,0.00,,,0.00,54.00,VWS V14.01,2013-11-26 16:50:00,
2013-11-26 11:51:00,43.5,34.0,30.01,North,9,0.0,1.0,69,0.00,,,0.00,47.00,VWS V14.01,2013-11-26 16:51:00,
2013-11-26 11:52:00,43.5,34.4,30.01,North,9,0.0,0.0,70,0.00,,,0.00,49.00,VWS V14.01,2013-11-26 16:52:00,
2013-11-26 11:53:00,43.5,34.4,30.01,North,9,0.0,0.0,70,0.00,,,0.00,47.00,VWS V14.01,2013-11-26 16:53:00,
2013-11-26 11:54:00,43.5,34.7,30.01,East,79,3.0,3.0,71,0.00,,,0.00,47.00,VWS V14.01,2013-11-26 16:54:00,
2013-11-26 11:55:00,43.5,34.7,30.01,ENE,78,0.0,3.0,71,0.00,,,0.00,46.00,VWS V14.01,2013-11-26 16:55:00,
2013-11-26 11:56:00,43.5,34.0,30.01,North,9,0.0,0.0,69,0.00,,,0.00,58.00,VWS V14.01,2013-11-26 16:56:00,
2013-11-26 11:57:00,43.5,35.1,30.01,ENE,78,0.0,0.0,72,0.00,,,0.00,49.00,VWS V14.01,2013-11-26 16:57:00,
2013-11-26 11:58:00,43.5,35.1,30.01,ENE,77,3.0,3.0,72,0.00,,,0.00,53.00,VWS V14.01,2013-11-26 16:58:00,
2013-11-26 11:59:00,43.5,35.1,29.99,NE,49,0.0,4.0,72,0.00,,,0.00,56.00,VWS V14.01,2013-11-26 16:59:00,
2013-11-26 12:00:00,43.5,35.1,29.99,NE,53,0.0,3.0,72,0.00,,,0.00,60.00,VWS V14.01,2013-11-26 17:00:00,
2013-11-26 12:01:00,43.5,34.7,30.01,North,9,3.0,3.0,71,0.00,,,0.00,47.00,VWS V14.01,2013-11-26 17:01:00,
2013-11-26 12:05:00,43.5,35.4,29.99,ENE,77,0.0,0.0,73,0.00,,,0.00,58.00,VWS V14.01,2013-11-26 17:05:00,
2013-11-26 12:06:00,43.6,35.9,29.99,ENE,77,0.0,0.0,74,0.00,,,0.00,58.00,VWS V14.01,2013-11-26 17:06:00,
2013-11-26 12:07:00,43.5,35.1,30.01,NE,49,0.0,4.0,72,0.00,,,0.00,56.00,VWS V14.01,2013-11-26 17:07:00,
2013-11-26 12:08:00,43.6,35.9,29.99,ENE,77,0.0,0.0,74,0.00,,,0.00,53.00,VWS V14.01,2013-11-26 17:08:00,
2013-11-26 12:09:00,43.6,36.2,29.99,ENE,77,0.0,0.0,75,0.00,,,0.00,49.00,VWS V14.01,2013-11-26 17:09:00,
2013-11-26 12:10:00,43.6,36.2,29.99,ENE,77,3.0,3.0,75,0.00,,,0.00,47.00,VWS V14.01,2013-11-26 17:10:00,
2013-11-26 12:11:00,43.6,36.2,29.99,ENE,77,0.0,4.0,75,0.00,,,0.00,46.00,VWS V14.01,2013-11-26 17:11:00,
2013-11-26 12:12:00,43.5,35.1,29.99,NE,53,0.0,3.0,72,0.00,,,0.00,60.00,VWS V14.01,2013-11-26 17:12:00,
2013-11-26 12:13:00,43.6,36.5,29.99,ENE,77,0.0,0.0,76,0.00,,,0.00,42.00,VWS V14.01,2013-11-26 17:13:00,
2013-11-26 12:14:00,43.5,36.5,29.98,ENE,77,0.0,0.0,76,0.00,,,0.00,44.00,VWS V14.01,2013-11-26 17:14:00,
2013-11-26 12:15:00,43.5,36.5,29.98,ENE,77,0.0,0.0,76,0.00,,,0.00,44.00,VWS V14.01,2013-11-26 17:15:00,
2013-11-26 12:16:00,43.5,36.5,29.98,ENE,77,3.0,3.0,76,0.00,,,0.00,46.00,VWS V14.01,2013-11-26 17:16:00,
2013-11-26 12:17:00,43.6,36.2,29.99,ENE,77,0.0,0.0,75,0.00,,,0.00,47.00,VWS V14.01,2013-11-26 17:17:00,
2013-11-26 12:18:00,43.5,36.8,29.98,ENE,77,0.0,0.0,77,0.00,,,0.00,46.00,VWS V14.01,2013-11-26 17:18:00,
2013-11-26 12:19:00,43.5,36.8,29.98,ENE,77,0.0,0.0,77,0.01,,,0.01,46.00,VWS V14.01,2013-11-26 17:19:00,
2013-11-26 12:20:00,43.5,36.8,29.98,ENE,77,0.0,0.0,77,0.01,,,0.01,44.00,VWS V14.01,2013-11-26 17:20:00,
2013-11-26 12:21:00,43.5,36.8,29.98,ENE,77,0.0,0.0,77,0.01,,,0.01,46.00,VWS V14.01,2013-11-26 17:21:00,
2013-11-26 12:22:00,43.5,36.8,29.98,ENE,77,0.0,0.0,77,0.01,,,0.01,47.00,VWS V14.01,2013-11-26 17:22:00,
2013-11-26 12:23:00,43.5,36.5,29.98,ENE,77,0.0,0.0,76,0.00,,,0.00,44.00,VWS V14.01,2013-11-26 17:23:00,
2013-11-26 12:24:00,43.5,37.1,29.98,ENE,77,0.0,0.0,78,0.01,,,0.01,47.00,VWS V14.01,2013-11-26 17:24:00,
2013-11-26 12:25:00,43.5,37.1,29.98,ENE,77,0.0,0.0,78,0.01,,,0.01,49.00,VWS V14.01,2013-11-26 17:25:00,
2013-11-26 12:26:00,43.5,37.1,29.98,ENE,77,0.0,0.0,78,0.01,,,0.01,49.00,VWS V14.01,2013-11-26 17:26:00,
2013-11-26 12:27:00,43.3,37.2,29.98,ENE,77,0.0,3.0,79,0.02,,,0.02,46.00,VWS V14.01,2013-11-26 17:27:00,
2013-11-26 12:28:00,43.5,36.8,29.98,ENE,77,0.0,0.0,77,0.01,,,0.01,44.00,VWS V14.01,2013-11-26 17:28:00,
2013-11-26 12:29:00,43.3,37.2,29.97,ENE,77,0.0,1.0,79,0.02,,,0.02,46.00,VWS V14.01,2013-11-26 17:29:00,
2013-11-26 12:30:00,43.3,37.2,29.97,ENE,77,0.0,0.0,79,0.02,,,0.02,49.00,VWS V14.01,2013-11-26 17:30:00,
2013-11-26 12:31:00,43.3,37.2,29.97,ENE,77,1.0,2.0,79,0.02,,,0.02,54.00,VWS V14.01,2013-11-26 17:31:00,
2013-11-26 12:32:00,43.3,37.6,29.97,ENE,77,0.0,1.0,80,0.02,,,0.02,58.00,VWS V14.01,2013-11-26 17:32:00,
2013-11-26 12:33:00,43.5,37.1,29.98,ENE,77,0.0,0.0,78,0.01,,,0.01,49.00,VWS V14.01,2013-11-26 17:33:00,
2013-11-26 12:34:00,43.2,37.5,29.97,ENE,77,1.0,2.0,80,0.02,,,0.02,58.00,VWS V14.01,2013-11-26 17:34:00,
2013-11-26 12:35:00,43.2,37.5,29.97,ENE,77,0.0,1.0,80,0.02,,,0.02,60.00,VWS V14.01,2013-11-26 17:35:00,
2013-11-26 12:36:00,43.2,37.5,29.97,ENE,77,0.0,0.0,80,0.02,,,0.02,62.00,VWS V14.01,2013-11-26 17:36:00,
2013-11-26 12:37:00,43.2,37.8,29.97,ENE,77,0.0,0.0,81,0.02,,,0.02,62.00,VWS V14.01,2013-11-26 17:37:00,
2013-11-26 12:38:00,43.3,37.2,29.97,ENE,77,0.0,0.0,79,0.02,,,0.02,49.00,VWS V14.01,2013-11-26 17:38:00,
2013-11-26 12:39:00,43.2,37.8,29.97,ENE,77,0.0,0.0,81,0.02,,,0.02,56.00,VWS V14.01,2013-11-26 17:39:00,
2013-11-26 12:40:00,43.2,38.1,29.97,ENE,77,0.0,0.0,82,0.02,,,0.02,54.00,VWS V14.01,2013-11-26 17:40:00,
2013-11-26 12:41:00,43.2,38.1,29.97,ENE,77,0.0,0.0,82,0.03,,,0.03,56.00,VWS V14.01,2013-11-26 17:41:00,
2013-11-26 12:42:00,43.2,38.1,29.97,ENE,77,1.0,1.0,82,0.03,,,0.03,60.00,VWS V14.01,2013-11-26 17:42:00,
2013-11-26 12:43:00,43.2,37.5,29.97,ENE,77,0.0,0.0,80,0.02,,,0.02,60.00,VWS V14.01,2013-11-26 17:43:00,
2013-11-26 12:44:00,43.1,38.0,29.97,ENE,77,0.0,0.0,82,0.03,,,0.03,60.00,VWS V14.01,2013-11-26 17:44:00,
2013-11-26 12:45:00,43.1,38.3,29.95,ENE,77,0.0,0.0,83,0.03,,,0.03,58.00,VWS V14.01,2013-11-26 17:45:00,
2013-11-26 12:46:00,43.1,38.3,29.95,NE,46,0.0,4.0,83,0.03,,,0.03,56.00,VWS V14.01,2013-11-26 17:46:00,
2013-11-26 12:47:00,43.1,38.3,29.95,NE,45,0.0,0.0,83,0.04,,,0.04,53.00,VWS V14.01,2013-11-26 17:47:00,
2013-11-26 12:48:00,43.2,38.1,29.97,ENE,77,0.0,0.0,82,0.02,,,0.02,54.00,VWS V14.01,2013-11-26 17:48:00,
2013-11-26 12:49:00,43.1,38.3,29.95,NE,51,2.0,4.0,83,0.04,,,0.04,51.00,VWS V14.01,2013-11-26 17:49:00,
2013-11-26 12:50:00,43.1,38.6,29.95,NE,51,2.0,2.0,84,0.04,,,0.04,47.00,VWS V14.01,2013-11-26 17:50:00,
2013-11-26 12:51:00,43.1,38.6,29.95,NNW,340,4.0,4.0,84,0.04,,,0.04,42.00,VWS V14.01,2013-11-26 17:51:00,
2013-11-26 12:52:00,42.9,38.4,29.95,North,0,0.0,4.0,84,0.04,,,0.04,42.00,VWS V14.01,2013-11-26 17:52:00,
2013-11-26 12:53:00,43.1,38.3,29.95,ENE,63,3.0,3.0,83,0.03,,,0.03,58.00,VWS V14.01,2013-11-26 17:53:00,
2013-11-26 12:54:00,42.9,38.4,29.95,North,0,0.0,0.0,84,0.04,,,0.04,42.00,VWS V14.01,2013-11-26 17:54:00,
2013-11-26 12:55:00,42.9,38.4,29.95,North,0,0.0,0.0,84,0.04,,,0.04,42.00,VWS V14.01,2013-11-26 17:55:00,
2013-11-26 12:56:00,42.8,38.3,29.95,North,0,0.0,0.0,84,0.04,,,0.04,40.00,VWS V14.01,2013-11-26 17:56:00,
2013-11-26 12:57:00,42.8,38.3,29.95,NE,42,0.0,3.0,84,0.04,,,0.04,39.00,VWS V14.01,2013-11-26 17:57:00,
2013-11-26 12:58:00,43.1,38.6,29.95,NE,51,0.0,2.0,84,0.04,,,0.04,47.00,VWS V14.01,2013-11-26 17:58:00,
2013-11-26 12:59:00,42.6,38.4,29.95,ENE,62,0.0,1.0,85,0.04,,,0.04,40.00,VWS V14.01,2013-11-26 17:59:00,
2013-11-26 13:00:00,42.6,38.4,29.94,ENE,62,0.0,0.0,85,0.05,,,0.05,35.00,VWS V14.01,2013-11-26 18:00:00,
2013-11-26 13:01:00,42.6,38.4,29.94,NNE,27,2.0,2.0,85,0.05,,,0.05,33.00,VWS V14.01,2013-11-26 18:01:00,
2013-11-26 13:02:00,42.6,38.4,29.94,NNE,27,0.0,2.0,85,0.05,,,0.05,37.00,VWS V14.01,2013-11-26 18:02:00,
2013-11-26 13:03:00,42.9,38.4,29.95,North,0,0.0,0.0,84,0.04,,,0.04,42.00,VWS V14.01,2013-11-26 18:03:00,
2013-11-26 13:04:00,42.5,38.6,29.94,NNE,27,0.0,0.0,86,0.05,,,0.05,33.00,VWS V14.01,2013-11-26 18:04:00,
2013-11-26 13:05:00,42.5,38.6,29.94,NNE,27,0.0,0.0,86,0.05,,,0.05,32.00,VWS V14.01,2013-11-26 18:05:00,
2013-11-26 13:06:00,42.5,38.6,29.94,NNE,27,0.0,0.0,86,0.05,,,0.05,30.00,VWS V14.01,2013-11-26 18:06:00,
2013-11-26 13:07:00,42.5,38.6,29.94,NNE,27,2.0,3.0,86,0.06,,,0.06,28.00,VWS V14.01,2013-11-26 18:07:00,
2013-11-26 13:08:00,42.6,38.4,29.94,NNE,27,2.0,2.0,85,0.05,,,0.05,33.00,VWS V14.01,2013-11-26 18:08:00,
2013-11-26 13:09:00,42.5,38.6,29.94,NNE,27,0.0,0.0,86,0.06,,,0.06,23.00,VWS V14.01,2013-11-26 18:09:00,
2013-11-26 13:10:00,42.5,38.6,29.94,NNE,27,0.0,0.0,86,0.06,,,0.06,23.00,VWS V14.01,2013-11-26 18:10:00,
2013-11-26 13:11:00,42.5,38.6,29.94,NNE,27,0.0,0.0,86,0.06,,,0.06,23.00,VWS V14.01,2013-11-26 18:11:00,
2013-11-26 13:12:00,42.5,38.9,29.94,NNE,27,0.0,0.0,87,0.06,,,0.06,32.00,VWS V14.01,2013-11-26 18:12:00,
2013-11-26 13:13:00,42.5,38.6,29.94,NNE,27,0.0,0.0,86,0.05,,,0.05,30.00,VWS V14.01,2013-11-26 18:13:00,
2013-11-26 13:14:00,42.3,38.7,29.94,NNE,27,0.0,0.0,87,0.06,,,0.06,35.00,VWS V14.01,2013-11-26 18:14:00,
2013-11-26 13:15:00,42.3,38.7,29.93,NNE,27,0.0,0.0,87,0.06,,,0.06,30.00,VWS V14.01,2013-11-26 18:15:00,
2013-11-26 13:16:00,42.3,38.7,29.93,NNE,27,0.0,0.0,87,0.07,,,0.07,28.00,VWS V14.01,2013-11-26 18:16:00,
2013-11-26 13:17:00,42.3,38.7,29.93,NNE,27,0.0,0.0,87,0.07,,,0.07,30.00,VWS V14.01,2013-11-26 18:17:00,
2013-11-26 13:18:00,42.5,38.6,29.94,NNE,27,0.0,0.0,86,0.06,,,0.06,23.00,VWS V14.01,2013-11-26 18:18:00,
2013-11-26 13:19:00,42.3,39.0,29.93,NNE,27,3.0,3.0,88,0.07,,,0.07,35.00,VWS V14.01,2013-11-26 18:19:00,
2013-11-26 13:20:00,42.3,39.0,29.93,NNE,27,0.0,3.0,88,0.07,,,0.08,33.00,VWS V14.01,2013-11-26 18:20:00,
2013-11-26 13:21:00,42.3,39.0,29.93,NNE,27,0.0,1.0,88,0.07,,,0.08,33.00,VWS V14.01,2013-11-26 18:21:00,
2013-11-26 13:22:00,42.3,39.0,29.93,NNE,28,0.0,0.0,88,0.07,,,0.08,32.00,VWS V14.01,2013-11-26 18:22:00,
2013-11-26 13:23:00,42.3,38.7,29.93,NNE,27,0.0,0.0,87,0.07,,,0.07,28.00,VWS V14.01,2013-11-26 18:23:00,
2013-11-26 13:24:00,42.3,39.0,29.93,NNE,32,0.0,3.0,88,0.07,,,0.08,30.00,VWS V14.01,2013-11-26 18:24:00,
2013-11-26 13:25:00,42.3,39.0,29.93,NNE,32,0.0,0.0,88,0.07,,,0.08,30.00,VWS V14.01,2013-11-26 18:25:00,
2013-11-26 13:26:00,42.2,38.9,29.93,NNE,32,0.0,0.0,88,0.07,,,0.08,33.00,VWS V14.01,2013-11-26 18:26:00,
2013-11-26 13:27:00,42.3,39.0,29.93,NE,54,2.0,2.0,88,0.07,,,0.08,32.00,VWS V14.01,2013-11-26 18:27:00,
2013-11-26 13:28:00,42.3,39.0,29.93,NNE,27,0.0,1.0,88,0.07,,,0.08,33.00,VWS V14.01,2013-11-26 18:28:00,
2013-11-26 13:29:00,42.3,39.0,29.93,NE,50,0.0,4.0,88,0.07,,,0.09,28.00,VWS V14.01,2013-11-26 18:29:00,
2013-11-26 13:30:00,42.3,39.3,29.91,NE,56,0.0,0.0,89,0.07,,,0.09,30.00,VWS V14.01,2013-11-26 18:30:00,
2013-11-26 13:31:00,42.3,39.3,29.91,NE,56,0.0,0.0,89,0.07,,,0.09,33.00,VWS V14.01,2013-11-26 18:31:00,
2013-11-26 13:32:00,42.3,39.3,29.91,NE,56,0.0,0.0,89,0.07,,,0.09,39.00,VWS V14.01,2013-11-26 18:32:00,
2013-11-26 13:33:00,42.2,38.9,29.93,NNE,32,0.0,0.0,88,0.07,,,0.08,33.00,VWS V14.01,2013-11-26 18:33:00,
2013-11-26 13:34:00,42.3,39.3,29.91,NE,56,0.0,0.0,89,0.08,,,0.10,35.00,VWS V14.01,2013-11-26 18:34:00,
2013-11-26 13:35:00,42.3,39.3,29.91,NE,56,0.0,0.0,89,0.08,,,0.10,32.00,VWS V14.01,2013-11-26 18:35:00,
2013-11-26 13:36:00,42.3,39.3,29.91,NE,56,0.0,2.0,89,0.08,,,0.10,32.00,VWS V14.01,2013-11-26 18:36:00,
2013-11-26 13:37:00,42.3,39.3,29.91,NE,56,0.0,0.0,89,0.08,,,0.10,32.00,VWS V14.01,2013-11-26 18:37:00,
2013-11-26 13:38:00,42.3,39.3,29.91,NE,56,0.0,0.0,89,0.08,,,0.10,30.00,VWS V14.01,2013-11-26 18:38:00,
2013-11-26 13:39:00,42.3,39.3,29.91,NE,56,0.0,0.0,89,0.07,,,0.09,33.00,VWS V14.01,2013-11-26 18:39:00,
2013-11-26 13:40:00,42.3,39.3,29.91,NE,56,0.0,0.0,89,0.08,,,0.10,28.00,VWS V14.01,2013-11-26 18:40:00,
2013-11-26 13:41:00,42.3,39.3,29.91,NE,56,0.0,0.0,89,0.08,,,0.10,28.00,VWS V14.01,2013-11-26 18:41:00,
2013-11-26 13:42:00,42.3,39.3,29.91,NE,56,0.0,1.0,89,0.07,,,0.10,25.00,VWS V14.01,2013-11-26 18:42:00,
2013-11-26 13:43:00,42.3,39.3,29.91,NE,56,1.0,1.0,89,0.07,,,0.10,23.00,VWS V14.01,2013-11-26 18:43:00,
2013-11-26 13:44:00,42.3,39.3,29.91,NE,56,0.0,2.0,89,0.08,,,0.10,32.00,VWS V14.01,2013-11-26 18:44:00,
2013-11-26 13:45:00,42.3,39.6,29.90,NE,56,0.0,2.0,90,0.07,,,0.10,26.00,VWS V14.01,2013-11-26 18:45:00,
2013-11-26 13:46:00,42.5,39.8,29.90,ENE,77,3.0,3.0,90,0.07,,,0.10,28.00,VWS V14.01,2013-11-26 18:46:00,
2013-11-26 13:47:00,42.5,39.8,29.90,East,79,0.0,3.0,90,0.07,,,0.10,28.00,VWS V14.01,2013-11-26 18:47:00,
2013-11-26 13:48:00,42.5,39.8,29.90,ENE,78,0.0,4.0,90,0.07,,,0.11,28.00,VWS V14.01,2013-11-26 18:48:00,
2013-11-26 13:49:00,42.3,39.3,29.91,NE,56,0.0,0.0,89,0.08,,,0.10,28.00,VWS V14.01,2013-11-26 18:49:00,
2013-11-26 13:50:00,42.5,39.8,29.90,East,84,0.0,3.0,90,0.07,,,0.11,26.00,VWS V14.01,2013-11-26 18:50:00,
2013-11-26 13:51:00,42.5,39.8,29.90,East,84,0.0,0.0,90,0.07,,,0.11,26.00,VWS V14.01,2013-11-26 18:51:00,
2013-11-26 13:52:00,42.5,39.8,29.90,East,86,2.0,4.0,90,0.07,,,0.11,25.00,VWS V14.01,2013-11-26 18:52:00,
2013-11-26 13:53:00,42.5,39.8,29.90,ENE,73,0.0,3.0,90,0.07,,,0.11,28.00,VWS V14.01,2013-11-26 18:53:00,
2013-11-26 13:54:00,42.5,39.8,29.90,ENE,77,3.0,3.0,90,0.07,,,0.10,28.00,VWS V14.01,2013-11-26 18:54:00,
2013-11-26 13:55:00,42.5,39.8,29.90,ENE,72,0.0,0.0,90,0.08,,,0.12,25.00,VWS V14.01,2013-11-26 18:55:00,
2013-11-26 13:56:00,42.5,39.8,29.90,ENE,72,0.0,0.0,90,0.08,,,0.12,25.00,VWS V14.01,2013-11-26 18:56:00,
2013-11-26 13:57:00,42.5,39.8,29.90,ENE,72,0.0,0.0,90,0.08,,,0.12,25.00,VWS V14.01,2013-11-26 18:57:00,
2013-11-26 13:58:00,42.6,40.2,29.90,ENE,72,0.0,0.0,91,0.08,,,0.12,23.00,VWS V14.01,2013-11-26 18:58:00,
2013-11-26 13:59:00,42.5,39.8,29.90,East,84,0.0,0.0,90,0.07,,,0.11,26.00,VWS V14.01,2013-11-26 18:59:00,
2013-11-26 14:00:00,42.6,40.2,29.89,SE,143,2.0,6.0,91,0.08,,,0.12,21.00,VWS V14.01,2013-11-26 19:00:00,
2013-11-26 14:01:00,42.6,40.2,29.89,NE,53,3.0,4.0,91,0.07,,,0.12,25.00,VWS V14.01,2013-11-26 19:01:00,
2013-11-26 14:02:00,42.6,40.2,29.89,NE,56,0.0,3.0,91,0.07,,,0.12,23.00,VWS V14.01,2013-11-26 19:02:00,
2013-11-26 14:03:00,42.8,40.4,29.89,NE,56,0.0,2.0,91,0.07,,,0.12,23.00,VWS V14.01,2013-11-26 19:03:00,
2013-11-26 14:04:00,42.5,39.8,29.90,ENE,72,0.0,0.0,90,0.08,,,0.12,25.00,VWS V14.01,2013-11-26 19:04:00,
2013-11-26 14:05:00,42.8,40.4,29.89,NE,56,0.0,0.0,91,0.08,,,0.13,19.00,VWS V14.01,2013-11-26 19:05:00,
2013-11-26 14:06:00,42.8,40.4,29.89,NE,56,1.0,2.0,91,0.08,,,0.13,19.00,VWS V14.01,2013-11-26 19:06:00,
2013-11-26 14:07:00,42.8,40.4,29.89,NE,56,0.0,1.0,91,0.08,,,0.13,19.00,VWS V14.01,2013-11-26 19:07:00,
2013-11-26 14:08:00,42.8,40.4,29.89,NE,56,0.0,0.0,91,0.07,,,0.13,19.00,VWS V14.01,2013-11-26 19:08:00,
2013-11-26 14:09:00,42.6,40.2,29.89,NE,53,3.0,4.0,91,0.07,,,0.12,25.00,VWS V14.01,2013-11-26 19:09:00,
2013-11-26 14:10:00,42.9,40.5,29.89,ENE,71,0.0,2.0,91,0.08,,,0.14,19.00,VWS V14.01,2013-11-26 19:10:00,
2013-11-26 14:11:00,42.9,40.5,29.89,ENE,71,0.0,0.0,91,0.08,,,0.14,19.00,VWS V14.01,2013-11-26 19:11:00,
2013-11-26 14:12:00,42.9,40.5,29.89,ENE,71,0.0,0.0,91,0.08,,,0.14,18.00,VWS V14.01,2013-11-26 19:12:00,
2013-11-26 14:13:00,42.9,40.5,29.89,ENE,71,0.0,0.0,91,0.08,,,0.14,18.00,VWS V14.01,2013-11-26 19:13:00,
2013-11-26 14:14:00,42.8,40.4,29.89,NE,56,0.0,1.0,91,0.08,,,0.13,19.00,VWS V14.01,2013-11-26 19:14:00,
2013-11-26 14:15:00,43.1,40.7,29.88,ENE,71,0.0,0.0,91,0.08,,,0.14,18.00,VWS V14.01,2013-11-26 19:15:00,
2013-11-26 14:16:00,43.1,40.7,29.88,ENE,71,0.0,0.0,91,0.08,,,0.14,14.00,VWS V14.01,2013-11-26 19:16:00,
2013-11-26 14:17:00,43.1,40.9,29.88,ENE,71,0.0,0.0,92,0.07,,,0.14,19.00,VWS V14.01,2013-11-26 19:17:00,
2013-11-26 14:18:00,43.1,40.9,29.88,ENE,71,3.0,4.0,92,0.07,,,0.14,16.00,VWS V14.01,2013-11-26 19:18:00,
2013-11-26 14:19:00,42.9,40.5,29.89,ENE,71,0.0,0.0,91,0.08,,,0.14,18.00,VWS V14.01,2013-11-26 19:19:00,
2013-11-26 14:20:00,43.2,41.0,29.88,ENE,71,2.0,2.0,92,0.07,,,0.14,23.00,VWS V14.01,2013-11-26 19:20:00,
2013-11-26 14:21:00,43.2,41.0,29.88,ENE,71,4.0,4.0,92,0.06,,,0.14,21.00,VWS V14.01,2013-11-26 19:21:00,
2013-11-26 14:22:00,43.2,41.0,29.88,ESE,108,2.0,4.0,92,0.06,,,0.14,21.00,VWS V14.01,2013-11-26 19:22:00,
2013-11-26 14:23:00,43.3,41.1,29.88,ESE,108,0.0,3.0,92,0.07,,,0.15,21.00,VWS V14.01,2013-11-26 19:23:00,
2013-11-26 14:24:00,43.1,40.7,29.88,ENE,71,0.0,0.0,91,0.07,,,0.14,16.00,VWS V14.01,2013-11-26 19:24:00,
2013-11-26 14:25:00,43.3,41.1,29.88,East,91,4.0,5.0,92,0.07,,,0.15,23.00,VWS V14.01,2013-11-26 19:25:00,
2013-11-26 14:26:00,43.3,41.1,29.88,East,91,0.0,4.0,92,0.07,,,0.15,26.00,VWS V14.01,2013-11-26 19:26:00,
2013-11-26 14:27:00,43.5,41.3,29.88,East,91,0.0,4.0,92,0.07,,,0.15,26.00,VWS V14.01,2013-11-26 19:27:00,
2013-11-26 14:28:00,43.5,41.3,29.88,East,94,3.0,3.0,92,0.07,,,0.15,25.00,VWS V14.01,2013-11-26 19:28:00,
2013-11-26 14:29:00,43.2,41.0,29.88,East,95,2.0,4.0,92,0.06,,,0.14,21.00,VWS V14.01,2013-11-26 19:29:00,
2013-11-26 14:30:00,43.5,41.3,29.85,East,94,0.0,0.0,92,0.06,,,0.15,28.00,VWS V14.01,2013-11-26 19:30:00,
2013-11-26 14:31:00,43.6,41.4,29.85,East,89,3.0,4.0,92,0.06,,,0.15,26.00,VWS V14.01,2013-11-26 19:31:00,
2013-11-26 14:32:00,43.6,41.4,29.85,East,96,0.0,5.0,92,0.06,,,0.15,26.00,VWS V14.01,2013-11-26 19:32:00,
2013-11-26 14:33:00,43.6,41.4,29.85,East,96,0.0,0.0,92,0.06,,,0.15,25.00,VWS V14.01,2013-11-26 19:33:00,
2013-11-26 14:34:00,43.3,41.1,29.88,East,91,3.0,4.0,92,0.07,,,0.15,26.00,VWS V14.01,2013-11-26 19:34:00,
2013-11-26 14:35:00,43.8,41.6,29.85,ENE,78,3.0,3.0,92,0.05,,,0.15,25.00,VWS V14.01,2013-11-26 19:35:00,
2013-11-26 14:36:00,43.8,41.6,29.85,ENE,58,1.0,3.0,92,0.05,,,0.15,26.00,VWS V14.01,2013-11-26 19:36:00,
2013-11-26 14:37:00,43.8,41.6,29.85,ENE,71,2.0,2.0,92,0.05,,,0.15,25.00,VWS V14.01,2013-11-26 19:37:00,
2013-11-26 14:39:00,43.6,41.4,29.85,East,96,2.0,5.0,92,0.06,,,0.15,26.00,VWS V14.01,2013-11-26 19:39:00,
2013-11-26 14:40:00,43.9,41.7,29.85,NE,52,5.0,5.0,92,0.06,,,0.16,30.00,VWS V14.01,2013-11-26 19:40:00,
2013-11-26 14:41:00,44.1,41.9,29.85,ENE,59,0.0,5.0,92,0.06,,,0.16,25.00,VWS V14.01,2013-11-26 19:41:00,
2013-11-26 14:42:00,44.1,41.9,29.85,ENE,63,0.0,4.0,92,0.06,,,0.16,25.00,VWS V14.01,2013-11-26 19:42:00,
2013-11-26 14:43:00,44.1,41.9,29.85,ESE,110,1.0,1.0,92,0.06,,,0.16,25.00,VWS V14.01,2013-11-26 19:43:00,
2013-11-26 14:44:00,43.8,41.6,29.85,ENE,60,0.0,1.0,92,0.05,,,0.15,25.00,VWS V14.01,2013-11-26 19:44:00,
2013-11-26 14:45:00,44.2,42.3,29.83,ESE,107,0.0,0.0,93,0.06,,,0.16,25.00,VWS V14.01,2013-11-26 19:45:00,
2013-11-26 14:46:00,44.2,42.3,29.83,ESE,107,0.0,0.0,93,0.06,,,0.16,25.00,VWS V14.01,2013-11-26 19:46:00,
2013-11-26 14:47:00,44.2,42.3,29.83,ESE,107,0.0,0.0,93,0.06,,,0.16,21.00,VWS V14.01,2013-11-26 19:47:00,
2013-11-26 14:48:00,44.2,42.3,29.83,ESE,115,3.0,6.0,93,0.06,,,0.16,19.00,VWS V14.01,2013-11-26 19:48:00,
2013-11-26 14:49:00,44.1,41.9,29.85,ENE,63,0.0,4.0,92,0.06,,,0.16,25.00,VWS V14.01,2013-11-26 19:49:00,
2013-11-26 14:50:00,44.3,42.4,29.83,ENE,77,2.0,6.0,93,0.05,,,0.16,21.00,VWS V14.01,2013-11-26 19:50:00,
2013-11-26 14:51:00,44.5,42.6,29.83,East,80,0.0,2.0,93,0.05,,,0.16,21.00,VWS V14.01,2013-11-26 19:51:00,
2013-11-26 14:52:00,44.5,42.6,29.83,East,80,0.0,0.0,93,0.05,,,0.16,21.00,VWS V14.01,2013-11-26 19:52:00,
2013-11-26 14:53:00,44.5,42.6,29.83,ESE,110,3.0,3.0,93,0.05,,,0.16,18.00,VWS V14.01,2013-11-26 19:53:00,
2013-11-26 14:54:00,44.6,42.7,29.83,ESE,121,3.0,4.0,93,0.05,,,0.16,19.00,VWS V14.01,2013-11-26 19:54:00,
2013-11-26 14:55:00,44.2,42.3,29.83,ESE,107,0.0,0.0,93,0.06,,,0.16,21.00,VWS V14.01,2013-11-26 19:55:00,
2013-11-26 14:56:00,44.6,42.7,29.83,East,93,3.0,4.0,93,0.04,,,0.16,16.00,VWS V14.01,2013-11-26 19:56:00,
2013-11-26 14:57:00,44.8,42.9,29.83,SE,131,5.0,5.0,93,0.04,,,0.16,14.00,VWS V14.01,2013-11-26 19:57:00,
2013-11-26 14:58:00,44.8,42.9,29.83,ESE,104,2.0,7.0,93,0.04,,,0.16,19.00,VWS V14.01,2013-11-26 19:58:00,
2013-11-26 14:59:00,44.9,43.0,29.83,ESE,105,0.0,2.0,93,0.04,,,0.16,16.00,VWS V14.01,2013-11-26 19:59:00,
2013-11-26 15:00:00,44.5,42.6,29.83,East,80,0.0,0.0,93,0.05,,,0.16,21.00,VWS V14.01,2013-11-26 20:00:00,
2013-11-26 15:01:00,44.9,43.0,29.82,ESE,105,0.0,3.0,93,0.04,,,0.16,14.00,VWS V14.01,2013-11-26 20:01:00,
2013-11-26 15:02:00,45.1,43.2,29.82,ESE,105,2.0,3.0,93,0.04,,,0.16,16.00,VWS V14.01,2013-11-26 20:02:00,
2013-11-26 15:03:00,45.1,43.5,29.82,ESE,105,0.0,2.0,94,0.04,,,0.16,16.00,VWS V14.01,2013-11-26 20:03:00,
2013-11-26 15:04:00,45.2,43.6,29.82,ESE,105,0.0,0.0,94,0.05,,,0.17,14.00,VWS V14.01,2013-11-26 20:04:00,
2013-11-26 15:05:00,44.8,42.9,29.83,SE,131,5.0,5.0,93,0.04,,,0.16,14.00,VWS V14.01,2013-11-26 20:05:00,
2013-11-26 15:06:00,45.2,43.6,29.82,SE,136,0.0,2.0,94,0.04,,,0.17,14.00,VWS V14.01,2013-11-26 20:06:00,
2013-11-26 15:07:00,45.4,43.8,29.82,ESE,109,3.0,3.0,94,0.04,,,0.17,12.00,VWS V14.01,2013-11-26 20:07:00,
2013-11-26 15:08:00,45.4,43.8,29.82,ESE,120,2.0,3.0,94,0.04,,,0.17,11.00,VWS V14.01,2013-11-26 20:08:00,
2013-11-26 15:09:00,45.5,43.9,29.82,ESE,120,0.0,3.0,94,0.04,,,0.17,11.00,VWS V14.01,2013-11-26 20:09:00,
2013-11-26 15:10:00,45.1,43.2,29.82,ESE,105,2.0,3.0,93,0.04,,,0.16,16.00,VWS V14.01,2013-11-26 20:10:00,
2013-11-26 15:11:00,45.7,44.1,29.82,ESE,120,0.0,0.0,94,0.03,,,0.17,9.00,VWS V14.01,2013-11-26 20:11:00,
2013-11-26 15:12:00,45.7,44.1,29.82,ESE,107,4.0,4.0,94,0.03,,,0.17,9.00,VWS V14.01,2013-11-26 20:12:00,
2013-11-26 15:13:00,45.7,44.1,29.82,ESE,120,0.0,4.0,94,0.03,,,0.17,9.00,VWS V14.01,2013-11-26 20:13:00,
2013-11-26 15:14:00,45.8,44.2,29.82,ESE,122,2.0,2.0,94,0.03,,,0.17,9.00,VWS V14.01,2013-11-26 20:14:00,
2013-11-26 15:15:00,45.4,43.8,29.82,ESE,117,3.0,3.0,94,0.04,,,0.17,11.00,VWS V14.01,2013-11-26 20:15:00,
2013-11-26 15:16:00,46.0,44.4,29.82,SE,125,2.0,6.0,94,0.04,,,0.18,9.00,VWS V14.01,2013-11-26 20:16:00,
2013-11-26 15:17:00,46.0,44.4,29.82,SE,126,0.0,2.0,94,0.04,,,0.18,9.00,VWS V14.01,2013-11-26 20:17:00,
2013-11-26 15:18:00,46.1,44.5,29.82,ESE,115,2.0,3.0,94,0.04,,,0.18,9.00,VWS V14.01,2013-11-26 20:18:00,
2013-11-26 15:19:00,46.1,44.5,29.82,ESE,115,0.0,2.0,94,0.04,,,0.18,7.00,VWS V14.01,2013-11-26 20:19:00,
2013-11-26 15:20:00,45.7,44.1,29.82,ESE,114,3.0,4.0,94,0.03,,,0.17,9.00,VWS V14.01,2013-11-26 20:20:00,
2013-11-26 15:21:00,46.2,44.6,29.82,East,86,2.0,4.0,94,0.05,,,0.19,9.00,VWS V14.01,2013-11-26 20:21:00,
2013-11-26 15:22:00,46.2,44.6,29.82,East,87,3.0,3.0,94,0.05,,,0.19,9.00,VWS V14.01,2013-11-26 20:22:00,
2013-11-26 15:23:00,46.4,44.8,29.82,East,88,0.0,3.0,94,0.05,,,0.19,9.00,VWS V14.01,2013-11-26 20:23:00,
2013-11-26 15:24:00,46.4,44.8,29.82,East,88,0.0,0.0,94,0.05,,,0.20,7.00,VWS V14.01,2013-11-26 20:24:00,
2013-11-26 15:25:00,46.1,44.5,29.82,ESE,119,3.0,3.0,94,0.04,,,0.18,9.00,VWS V14.01,2013-11-26 20:25:00,
2013-11-26 15:26:00,46.4,44.8,29.82,East,88,0.0,0.0,94,0.05,,,0.20,7.00,VWS V14.01,2013-11-26 20:26:00,
2013-11-26 15:27:00,46.4,44.8,29.82,East,88,0.0,0.0,94,0.05,,,0.20,7.00,VWS V14.01,2013-11-26 20:27:00,
2013-11-26 15:28:00,46.4,44.8,29.82,East,88,0.0,0.0,94,0.05,,,0.20,7.00,VWS V14.01,2013-11-26 20:28:00,
2013-11-26 15:29:00,46.4,44.8,29.82,ESE,113,4.0,4.0,94,0.06,,,0.21,7.00,VWS V14.01,2013-11-26 20:29:00,
2013-11-26 15:30:00,46.4,44.8,29.82,East,88,0.0,3.0,94,0.05,,,0.19,9.00,VWS V14.01,2013-11-26 20:30:00,
2013-11-26 15:31:00,46.5,44.9,29.81,ESE,113,0.0,0.0,94,0.06,,,0.21,7.00,VWS V14.01,2013-11-26 20:31:00,
2013-11-26 15:32:00,46.5,44.9,29.81,ESE,113,0.0,0.0,94,0.06,,,0.21,7.00,VWS V14.01,2013-11-26 20:32:00,
2013-11-26 15:33:00,46.7,45.1,29.81,ESE,113,0.0,2.0,94,0.06,,,0.21,7.00,VWS V14.01,2013-11-26 20:33:00,
2013-11-26 15:34:00,46.7,45.1,29.81,ESE,113,0.0,0.0,94,0.07,,,0.22,9.00,VWS V14.01,2013-11-26 20:34:00,
2013-11-26 15:35:00,46.4,44.8,29.82,East,88,0.0,0.0,94,0.05,,,0.20,7.00,VWS V14.01,2013-11-26 20:35:00,
2013-11-26 15:36:00,46.8,45.2,29.81,ESE,113,0.0,0.0,94,0.07,,,0.22,9.00,VWS V14.01,2013-11-26 20:36:00,
2013-11-26 15:37:00,46.8,45.2,29.81,ESE,113,0.0,0.0,94,0.07,,,0.22,11.00,VWS V14.01,2013-11-26 20:37:00,
2013-11-26 15:38:00,46.8,45.2,29.81,ESE,113,0.0,0.0,94,0.07,,,0.22,11.00,VWS V14.01,2013-11-26 20:38:00,
2013-11-26 15:39:00,46.8,45.2,29.81,ESE,113,0.0,0.0,94,0.07,,,0.22,11.00,VWS V14.01,2013-11-26 20:39:00,
2013-11-26 15:40:00,46.5,44.9,29.81,ESE,113,1.0,1.0,94,0.06,,,0.21,7.00,VWS V14.01,2013-11-26 20:40:00,
2013-11-26 15:41:00,47.0,45.4,29.81,ESE,113,0.0,0.0,94,0.07,,,0.23,9.00,VWS V14.01,2013-11-26 20:41:00,
2013-11-26 15:42:00,47.0,45.4,29.81,ESE,113,0.0,0.0,94,0.07,,,0.23,9.00,VWS V14.01,2013-11-26 20:42:00,
2013-11-26 15:43:00,47.0,45.7,29.81,ESE,113,0.0,0.0,95,0.07,,,0.23,9.00,VWS V14.01,2013-11-26 20:43:00,
2013-11-26 15:44:00,47.1,45.7,29.79,ESE,113,0.0,0.0,95,0.07,,,0.23,9.00,VWS V14.01,2013-11-26 20:44:00,
2013-11-26 15:45:00,46.8,45.2,29.81,ESE,113,0.0,0.0,94,0.07,,,0.22,11.00,VWS V14.01,2013-11-26 20:45:00,
2013-11-26 15:46:00,47.3,45.9,29.79,ESE,113,0.0,0.0,95,0.08,,,0.24,7.00,VWS V14.01,2013-11-26 20:46:00,
2013-11-26 15:47:00,47.3,45.9,29.79,ESE,113,0.0,0.0,95,0.08,,,0.24,7.00,VWS V14.01,2013-11-26 20:47:00,
2013-11-26 15:48:00,47.4,46.0,29.79,ESE,113,0.0,0.0,95,0.08,,,0.24,9.00,VWS V14.01,2013-11-26 20:48:00,
2013-11-26 15:49:00,47.4,46.0,29.79,ESE,113,3.0,3.0,95,0.08,,,0.24,7.00,VWS V14.01,2013-11-26 20:49:00,
2013-11-26 15:50:00,47.0,45.4,29.81,ESE,113,0.0,0.0,94,0.07,,,0.23,9.00,VWS V14.01,2013-11-26 20:50:00,
2013-11-26 15:51:00,47.6,46.2,29.79,ESE,114,0.0,0.0,95,0.08,,,0.24,9.00,VWS V14.01,2013-11-26 20:51:00,
2013-11-26 15:52:00,47.6,46.2,29.79,ESE,114,0.0,0.0,95,0.08,,,0.24,9.00,VWS V14.01,2013-11-26 20:52:00,
2013-11-26 15:53:00,47.6,46.2,29.79,East,84,3.0,4.0,95,0.09,,,0.25,7.00,VWS V14.01,2013-11-26 20:53:00,
2013-11-26 15:54:00,47.7,46.3,29.79,East,90,4.0,4.0,95,0.09,,,0.25,7.00,VWS V14.01,2013-11-26 20:54:00,
2013-11-26 15:55:00,47.3,45.9,29.79,ESE,113,0.0,0.0,95,0.08,,,0.24,9.00,VWS V14.01,2013-11-26 20:55:00,
2013-11-26 15:56:00,47.9,46.5,29.79,East,91,0.0,4.0,95,0.09,,,0.25,9.00,VWS V14.01,2013-11-26 20:56:00,
2013-11-26 15:57:00,48.0,46.6,29.79,SE,124,5.0,5.0,95,0.09,,,0.25,7.00,VWS V14.01,2013-11-26 20:57:00,
2013-11-26 15:58:00,48.0,46.6,29.79,ESE,116,3.0,5.0,95,0.09,,,0.25,7.00,VWS V14.01,2013-11-26 20:58:00,
2013-11-26 15:59:00,48.2,46.8,29.79,SE,131,3.0,4.0,95,0.10,,,0.26,9.00,VWS V14.01,2013-11-26 20:59:00,
2013-11-26 16:00:00,48.3,46.9,29.77,ESE,117,0.0,4.0,95,0.10,,,0.26,9.00,VWS V14.01,2013-11-26 21:00:00,
2013-11-26 16:01:00,47.6,46.2,29.79,ESE,103,2.0,4.0,95,0.08,,,0.24,7.00,VWS V14.01,2013-11-26 21:01:00,
2013-11-26 16:02:00,48.5,47.1,29.77,ESE,120,4.0,4.0,95,0.10,,,0.26,7.00,VWS V14.01,2013-11-26 21:02:00,
2013-11-26 16:03:00,48.6,47.2,29.77,ESE,120,1.0,5.0,95,0.10,,,0.26,7.00,VWS V14.01,2013-11-26 21:03:00,
2013-11-26 16:04:00,48.8,47.4,29.77,ESE,117,3.0,5.0,95,0.10,,,0.26,7.00,VWS V14.01,2013-11-26 21:04:00,
2013-11-26 16:05:00,48.9,47.5,29.77,SE,142,2.0,4.0,95,0.09,,,0.26,7.00,VWS V14.01,2013-11-26 21:05:00,
2013-11-26 16:06:00,48.0,46.6,29.79,ESE,116,3.0,5.0,95,0.09,,,0.25,7.00,VWS V14.01,2013-11-26 21:06:00,
2013-11-26 16:07:00,49.2,47.8,29.77,East,98,6.0,7.0,95,0.09,,,0.26,7.00,VWS V14.01,2013-11-26 21:07:00,
2013-11-26 16:08:00,49.4,48.0,29.77,ESE,121,4.0,6.0,95,0.10,,,0.27,7.00,VWS V14.01,2013-11-26 21:08:00,
2013-11-26 16:09:00,49.4,48.0,29.77,SE,131,3.0,5.0,95,0.10,,,0.27,5.00,VWS V14.01,2013-11-26 21:09:00,
2013-11-26 16:10:00,49.5,48.1,29.77,ESE,122,0.0,3.0,95,0.10,,,0.27,5.00,VWS V14.01,2013-11-26 21:10:00,
2013-11-26 16:11:00,48.6,47.2,29.77,ESE,113,5.0,5.0,95,0.10,,,0.26,7.00,VWS V14.01,2013-11-26 21:11:00,
2013-11-26 16:12:00,49.6,48.5,29.77,SE,136,0.0,0.0,96,0.10,,,0.27,5.00,VWS V14.01,2013-11-26 21:12:00,
2013-11-26 16:16:00,49.2,47.8,29.77,East,96,3.0,6.0,95,0.10,,,0.27,7.00,VWS V14.01,2013-11-26 21:16:00,
2013-11-26 16:17:00,50.2,49.1,29.75,SE,134,5.0,7.0,96,0.10,,,0.28,5.00,VWS V14.01,2013-11-26 21:17:00,
2013-11-26 16:18:00,50.4,49.3,29.75,SE,133,2.0,7.0,96,0.10,,,0.28,5.00,VWS V14.01,2013-11-26 21:18:00,
2013-11-26 16:21:00,49.6,48.5,29.77,SE,124,9.0,9.0,96,0.10,,,0.27,5.00,VWS V14.01,2013-11-26 21:21:00,
2013-11-26 16:23:00,51.0,49.9,29.75,SE,131,2.0,10.0,96,0.09,,,0.28,0.00,VWS V14.01,2013-11-26 21:23:00,
2013-11-26 16:24:00,51.1,50.0,29.75,ESE,117,11.0,11.0,96,0.09,,,0.28,0.00,VWS V14.01,2013-11-26 21:24:00,
2013-11-26 16:25:00,51.3,50.2,29.75,South,181,3.0,11.0,96,0.08,,,0.28,0.00,VWS V14.01,2013-11-26 21:25:00,
2013-11-26 16:26:00,50.4,49.3,29.75,SE,133,2.0,7.0,96,0.10,,,0.28,5.00,VWS V14.01,2013-11-26 21:26:00,
2013-11-26 16:31:00,51.0,49.9,29.75,East,98,4.0,4.0,96,0.09,,,0.28,0.00,VWS V14.01,2013-11-26 21:31:00,
2013-11-26 16:32:00,52.0,50.9,29.73,SE,126,5.0,10.0,96,0.08,,,0.29,0.00,VWS V14.01,2013-11-26 21:32:00,
2013-11-26 16:33:00,52.0,50.9,29.73,SSE,163,8.0,8.0,96,0.08,,,0.29,0.00,VWS V14.01,2013-11-26 21:33:00,
2013-11-26 16:35:00,52.2,51.1,29.73,SSE,166,3.0,8.0,96,0.07,,,0.29,0.00,VWS V14.01,2013-11-26 21:35:00,
2013-11-26 16:36:00,51.7,50.6,29.75,East,101,11.0,11.0,96,0.09,,,0.29,0.00,VWS V14.01,2013-11-26 21:36:00,
2013-11-26 16:39:00,52.2,51.1,29.73,ESE,109,5.0,5.0,96,0.07,,,0.29,0.00,VWS V14.01,2013-11-26 21:39:00,
2013-11-26 16:40:00,52.3,51.2,29.73,SSE,152,7.0,7.0,96,0.07,,,0.29,0.00,VWS V14.01,2013-11-26 21:40:00,
2013-11-26 16:41:00,52.0,50.9,29.73,SSE,163,8.0,8.0,96,0.08,,,0.29,0.00,VWS V14.01,2013-11-26 21:41:00,
2013-11-26 16:42:00,52.3,51.2,29.73,SE,133,4.0,6.0,96,0.06,,,0.29,0.00,VWS V14.01,2013-11-26 21:42:00,
2013-11-26 16:44:00,52.3,51.2,29.73,ESE,119,6.0,10.0,96,0.07,,,0.30,0.00,VWS V14.01,2013-11-26 21:44:00,
2013-11-26 16:45:00,52.3,51.2,29.72,ESE,105,4.0,6.0,96,0.07,,,0.30,0.00,VWS V14.01,2013-11-26 21:45:00,
2013-11-26 16:46:00,52.2,51.1,29.73,East,86,4.0,4.0,96,0.07,,,0.29,0.00,VWS V14.01,2013-11-26 21:46:00,
2013-11-26 16:47:00,52.3,51.2,29.72,ESE,109,8.0,12.0,96,0.06,,,0.30,0.00,VWS V14.01,2013-11-26 21:47:00,
2013-11-26 16:48:00,52.3,51.2,29.72,SE,131,4.0,11.0,96,0.06,,,0.30,0.00,VWS V14.01,2013-11-26 21:48:00,
2013-11-26 16:49:00,52.3,51.2,29.72,SE,139,5.0,9.0,96,0.06,,,0.30,0.00,VWS V14.01,2013-11-26 21:49:00,
2013-11-26 16:51:00,52.3,51.2,29.73,SE,140,3.0,10.0,96,0.07,,,0.30,0.00,VWS V14.01,2013-11-26 21:51:00,
2013-11-26 16:52:00,52.5,51.4,29.72,SSE,156,5.0,5.0,96,0.06,,,0.30,0.00,VWS V14.01,2013-11-26 21:52:00,
2013-11-26 16:53:00,52.5,51.4,29.72,SE,136,7.0,7.0,96,0.06,,,0.30,0.00,VWS V14.01,2013-11-26 21:53:00,
2013-11-26 16:54:00,52.6,51.5,29.72,ESE,112,6.0,9.0,96,0.05,,,0.30,0.00,VWS V14.01,2013-11-26 21:54:00,
2013-11-26 16:55:00,52.6,51.5,29.72,SSE,147,0.0,6.0,96,0.05,,,0.30,0.00,VWS V14.01,2013-11-26 21:55:00,
2013-11-26 16:56:00,52.3,51.2,29.72,ESE,107,6.0,9.0,96,0.06,,,0.30,0.00,VWS V14.01,2013-11-26 21:56:00,
2013-11-26 16:57:00,52.8,51.7,29.72,ESE,116,0.0,0.0,96,0.05,,,0.30,0.00,VWS V14.01,2013-11-26 21:57:00,
2013-11-26 16:58:00,52.8,51.7,29.72,ESE,108,0.0,0.0,96,0.05,,,0.30,0.00,VWS V14.01,2013-11-26 21:58:00,
2013-11-26 16:59:00,52.8,51.7,29.72,SE,138,4.0,4.0,96,0.05,,,0.30,0.00,VWS V14.01,2013-11-26 21:59:00,
2013-11-26 17:00:00,52.8,51.7,29.70,SSE,155,5.0,6.0,96,0.04,,,0.30,0.00,VWS V14.01,2013-11-26 22:00:00,
2013-11-26 17:01:00,52.6,51.5,29.72,ESE,122,6.0,9.0,96,0.05,,,0.30,0.00,VWS V14.01,2013-11-26 22:01:00,
2013-11-26 17:02:00,52.9,51.8,29.70,East,99,2.0,4.0,96,0.04,,,0.30,0.00,VWS V14.01,2013-11-26 22:02:00,
2013-11-26 17:03:00,52.9,51.8,29.70,SE,140,3.0,5.0,96,0.04,,,0.30,0.00,VWS V14.01,2013-11-26 22:03:00,
2013-11-26 17:04:00,53.1,52.0,29.70,ESE,110,0.0,4.0,96,0.04,,,0.30,0.00,VWS V14.01,2013-11-26 22:04:00,
2013-11-26 17:05:00,53.1,52.0,29.70,ESE,119,4.0,4.0,96,0.04,,,0.30,0.00,VWS V14.01,2013-11-26 22:05:00,
2013-11-26 17:06:00,52.8,51.7,29.72,SE,138,4.0,4.0,96,0.05,,,0.30,0.00,VWS V14.01,2013-11-26 22:06:00,
2013-11-26 17:07:00,53.2,52.1,29.70,ESE,107,5.0,5.0,96,0.04,,,0.30,0.00,VWS V14.01,2013-11-26 22:07:00,
2013-11-26 17:08:00,53.2,52.1,29.70,ESE,106,6.0,7.0,96,0.04,,,0.30,0.00,VWS V14.01,2013-11-26 22:08:00,
2013-11-26 17:09:00,53.3,52.2,29.70,ESE,115,5.0,6.0,96,0.03,,,0.30,0.00,VWS V14.01,2013-11-26 22:09:00,
2013-11-26 17:11:00,53.1,52.0,29.70,ESE,113,0.0,4.0,96,0.04,,,0.30,0.00,VWS V14.01,2013-11-26 22:11:00,
2013-11-26 17:12:00,53.5,52.4,29.70,ESE,117,1.0,2.0,96,0.03,,,0.30,0.00,VWS V14.01,2013-11-26 22:12:00,
2013-11-26 17:13:00,53.5,52.4,29.70,SE,131,10.0,10.0,96,0.03,,,0.30,0.00,VWS V14.01,2013-11-26 22:13:00,
2013-11-26 17:14:00,53.6,52.5,29.70,SE,133,7.0,10.0,96,0.03,,,0.30,0.00,VWS V14.01,2013-11-26 22:14:00,
2013-11-26 17:15:00,53.8,52.7,29.68,East,90,10.0,10.0,96,0.03,,,0.30,0.00,VWS V14.01,2013-11-26 22:15:00,
2013-11-26 17:16:00,53.8,52.7,29.68,ESE,118,6.0,10.0,96,0.03,,,0.30,0.00,VWS V14.01,2013-11-26 22:16:00,
2013-11-26 17:17:00,53.3,52.2,29.70,ESE,115,5.0,6.0,96,0.03,,,0.30,0.00,VWS V14.01,2013-11-26 22:17:00,
2013-11-26 17:18:00,53.9,52.8,29.68,SE,130,4.0,4.0,96,0.03,,,0.31,0.00,VWS V14.01,2013-11-26 22:18:00,
2013-11-26 17:19:00,54.1,53.0,29.68,ESE,116,5.0,7.0,96,0.03,,,0.31,0.00,VWS V14.01,2013-11-26 22:19:00,
2013-11-26 17:20:00,54.1,53.0,29.68,ESE,117,0.0,5.0,96,0.03,,,0.31,0.00,VWS V14.01,2013-11-26 22:20:00,
2013-11-26 17:21:00,54.1,53.0,29.68,SE,124,4.0,7.0,96,0.03,,,0.31,0.00,VWS V14.01,2013-11-26 22:21:00,
2013-11-26 17:22:00,53.6,52.5,29.70,SE,133,7.0,10.0,96,0.03,,,0.30,0.00,VWS V14.01,2013-11-26 22:22:00,
2013-11-26 17:23:00,54.2,53.1,29.68,SE,145,6.0,6.0,96,0.03,,,0.31,0.00,VWS V14.01,2013-11-26 22:23:00,
2013-11-26 17:24:00,54.4,53.3,29.68,East,97,6.0,8.0,96,0.03,,,0.31,0.00,VWS V14.01,2013-11-26 22:24:00,
2013-11-26 17:25:00,54.4,53.3,29.68,ESE,107,0.0,9.0,96,0.03,,,0.31,0.00,VWS V14.01,2013-11-26 22:25:00,
2013-11-26 17:26:00,54.4,53.3,29.68,SE,131,5.0,5.0,96,0.03,,,0.31,0.00,VWS V14.01,2013-11-26 22:26:00,
2013-11-26 17:27:00,54.1,53.0,29.68,ESE,116,5.0,7.0,96,0.03,,,0.31,0.00,VWS V14.01,2013-11-26 22:27:00,
2013-11-26 17:28:00,54.5,53.4,29.68,SE,136,7.0,11.0,96,0.02,,,0.31,0.00,VWS V14.01,2013-11-26 22:28:00,
2013-11-26 17:29:00,54.5,53.4,29.68,SE,137,0.0,7.0,96,0.02,,,0.31,0.00,VWS V14.01,2013-11-26 22:29:00,
2013-11-26 17:30:00,54.7,53.6,29.66,SSE,160,4.0,4.0,96,0.02,,,0.31,0.00,VWS V14.01,2013-11-26 22:30:00,
2013-11-26 17:31:00,54.7,53.6,29.66,SSE,150,5.0,10.0,96,0.02,,,0.31,0.00,VWS V14.01,2013-11-26 22:31:00,
2013-11-26 17:32:00,54.4,53.3,29.68,ESE,113,5.0,9.0,96,0.03,,,0.31,0.00,VWS V14.01,2013-11-26 22:32:00,
2013-11-26 17:33:00,54.8,53.7,29.66,SE,141,5.0,5.0,96,0.03,,,0.32,0.00,VWS V14.01,2013-11-26 22:33:00,
2013-11-26 17:34:00,55.0,53.9,29.66,ESE,115,3.0,7.0,96,0.03,,,0.32,0.00,VWS V14.01,2013-11-26 22:34:00,
2013-11-26 17:35:00,55.0,53.9,29.66,East,97,4.0,7.0,96,0.03,,,0.32,0.00,VWS V14.01,2013-11-26 22:35:00,
2013-11-26 17:36:00,55.1,54.0,29.66,SE,127,3.0,4.0,96,0.03,,,0.32,0.00,VWS V14.01,2013-11-26 22:36:00,
2013-11-26 17:37:00,54.7,53.6,29.66,SE,129,2.0,2.0,96,0.02,,,0.31,0.00,VWS V14.01,2013-11-26 22:37:00,
2013-11-26 17:38:00,55.3,54.2,29.66,ESE,109,3.0,10.0,96,0.03,,,0.32,0.00,VWS V14.01,2013-11-26 22:38:00,
2013-11-26 17:39:00,55.3,54.2,29.66,ESE,121,6.0,6.0,96,0.03,,,0.32,0.00,VWS V14.01,2013-11-26 22:39:00,
2013-11-26 17:40:00,55.4,54.3,29.66,East,88,5.0,7.0,96,0.03,,,0.32,0.00,VWS V14.01,2013-11-26 22:40:00,
2013-11-26 17:41:00,55.4,54.3,29.66,ENE,71,5.0,8.0,96,0.03,,,0.32,0.00,VWS V14.01,2013-11-26 22:41:00,
2013-11-26 17:42:00,55.0,53.9,29.66,ESE,115,3.0,7.0,96,0.03,,,0.32,0.00,VWS V14.01,2013-11-26 22:42:00,
2013-11-26 17:43:00,55.6,54.5,29.66,SSE,153,4.0,10.0,96,0.03,,,0.32,0.00,VWS V14.01,2013-11-26 22:43:00,
2013-11-26 17:44:00,55.7,54.6,29.66,SE,145,3.0,6.0,96,0.03,,,0.32,0.00,VWS V14.01,2013-11-26 22:44:00,
2013-11-26 17:45:00,55.7,54.6,29.65,ESE,111,5.0,8.0,96,0.02,,,0.32,0.00,VWS V14.01,2013-11-26 22:45:00,
2013-11-26 17:46:00,55.9,54.8,29.65,SSE,166,3.0,5.0,96,0.02,,,0.32,0.00,VWS V14.01,2013-11-26 22:46:00,
2013-11-26 17:47:00,55.3,54.2,29.66,SSE,156,3.0,6.0,96,0.03,,,0.32,0.00,VWS V14.01,2013-11-26 22:47:00,
2013-11-26 17:48:00,56.0,54.9,29.65,SSE,148,4.0,7.0,96,0.02,,,0.32,0.00,VWS V14.01,2013-11-26 22:48:00,
2013-11-26 17:49:00,56.0,54.9,29.65,SE,136,7.0,7.0,96,0.02,,,0.32,0.00,VWS V14.01,2013-11-26 22:49:00,
2013-11-26 17:50:00,56.2,55.1,29.65,SE,142,5.0,7.0,96,0.02,,,0.32,0.00,VWS V14.01,2013-11-26 22:50:00,
2013-11-26 17:51:00,56.2,55.1,29.65,ESE,107,6.0,9.0,96,0.02,,,0.32,0.00,VWS V14.01,2013-11-26 22:51:00,
2013-11-26 17:52:00,55.7,54.6,29.65,SE,143,2.0,3.0,96,0.02,,,0.32,0.00,VWS V14.01,2013-11-26 22:52:00,
2013-11-26 17:53:00,56.3,55.2,29.65,SSE,150,2.0,7.0,96,0.03,,,0.33,0.00,VWS V14.01,2013-11-26 22:53:00,
2013-11-26 17:54:00,56.3,55.2,29.65,ESE,122,3.0,10.0,96,0.03,,,0.33,0.00,VWS V14.01,2013-11-26 22:54:00,
2013-11-26 17:55:00,56.5,55.4,29.65,SE,140,6.0,6.0,96,0.03,,,0.33,0.00,VWS V14.01,2013-11-26 22:55:00,
2013-11-26 17:56:00,56.5,55.4,29.65,SE,141,4.0,8.0,96,0.03,,,0.33,0.00,VWS V14.01,2013-11-26 22:56:00,
2013-11-26 17:57:00,56.0,54.9,29.65,SSE,148,2.0,7.0,96,0.02,,,0.32,0.00,VWS V14.01,2013-11-26 22:57:00,
2013-11-26 17:58:00,56.5,55.4,29.65,ESE,105,10.0,10.0,96,0.03,,,0.33,0.00,VWS V14.01,2013-11-26 22:58:00,
2013-11-26 17:59:00,56.6,55.5,29.65,SE,137,9.0,10.0,96,0.04,,,0.34,0.00,VWS V14.01,2013-11-26 22:59:00,
2013-11-26 18:00:00,56.6,55.5,29.64,SSE,158,3.0,9.0,96,0.04,,,0.34,0.00,VWS V14.01,2013-11-26 23:00:00,
2013-11-26 18:01:00,56.7,55.6,29.64,SE,126,3.0,4.0,96,0.04,,,0.34,0.00,VWS V14.01,2013-11-26 23:01:00,
2013-11-26 18:02:00,56.3,55.2,29.65,SE,136,1.0,4.0,96,0.03,,,0.33,0.00,VWS V14.01,2013-11-26 23:02:00,
2013-11-26 18:03:00,56.9,55.8,29.64,SE,132,6.0,8.0,96,0.04,,,0.34,0.00,VWS V14.01,2013-11-26 23:03:00,
2013-11-26 18:04:00,56.9,55.8,29.64,SE,146,8.0,10.0,96,0.04,,,0.34,0.00,VWS V14.01,2013-11-26 23:04:00,
2013-11-26 18:05:00,57.0,55.9,29.64,SSE,158,6.0,9.0,96,0.04,,,0.34,0.00,VWS V14.01,2013-11-26 23:05:00,
2013-11-26 18:06:00,57.0,55.9,29.64,SSE,148,1.0,6.0,96,0.04,,,0.34,0.00,VWS V14.01,2013-11-26 23:06:00,
2013-11-26 18:07:00,56.6,55.5,29.64,SSE,153,6.0,9.0,96,0.04,,,0.34,0.00,VWS V14.01,2013-11-26 23:07:00,
2013-11-26 18:08:00,57.2,56.1,29.64,WSW,246,4.0,10.0,96,0.04,,,0.34,0.00,VWS V14.01,2013-11-26 23:08:00,
2013-11-26 18:09:00,57.2,56.1,29.64,South,174,5.0,8.0,96,0.04,,,0.34,0.00,VWS V14.01,2013-11-26 23:09:00,
2013-11-26 18:10:00,57.2,56.1,29.64,East,79,5.0,10.0,96,0.04,,,0.34,0.00,VWS V14.01,2013-11-26 23:10:00,
2013-11-26 18:11:00,57.2,56.1,29.64,SE,135,4.0,5.0,96,0.04,,,0.34,0.00,VWS V14.01,2013-11-26 23:11:00,
2013-11-26 18:12:00,56.9,55.8,29.64,South,172,5.0,9.0,96,0.04,,,0.34,0.00,VWS V14.01,2013-11-26 23:12:00,
2013-11-26 18:13:00,57.3,56.2,29.64,SE,145,3.0,6.0,96,0.04,,,0.34,0.00,VWS V14.01,2013-11-26 23:13:00,
2013-11-26 18:14:00,57.3,56.2,29.64,SE,138,5.0,6.0,96,0.04,,,0.34,0.00,VWS V14.01,2013-11-26 23:14:00,
2013-11-26 18:15:00,57.3,56.2,29.63,SE,124,4.0,7.0,96,0.04,,,0.34,0.00,VWS V14.01,2013-11-26 23:15:00,
2013-11-26 18:16:00,57.3,56.2,29.63,SE,129,0.0,4.0,96,0.05,,,0.35,0.00,VWS V14.01,2013-11-26 23:16:00,
2013-11-26 18:17:00,57.2,56.1,29.64,ESE,108,6.0,10.0,96,0.04,,,0.34,0.00,VWS V14.01,2013-11-26 23:17:00,
2013-11-26 18:18:00,57.5,56.4,29.63,SE,142,4.0,8.0,96,0.04,,,0.35,0.00,VWS V14.01,2013-11-26 23:18:00,
2013-11-26 18:19:00,57.5,56.4,29.63,SSE,149,10.0,10.0,96,0.04,,,0.35,0.00,VWS V14.01,2013-11-26 23:19:00,
2013-11-26 18:20:00,57.5,56.4,29.63,ESE,106,5.0,10.0,96,0.04,,,0.35,0.00,VWS V14.01,2013-11-26 23:20:00,
2013-11-26 18:21:00,57.6,56.5,29.63,ESE,114,2.0,5.0,96,0.04,,,0.35,0.00,VWS V14.01,2013-11-26 23:21:00,
2013-11-26 18:22:00,57.3,56.2,29.63,ESE,107,2.0,7.0,96,0.04,,,0.34,0.00,VWS V14.01,2013-11-26 23:22:00,
2013-11-26 18:23:00,57.6,56.5,29.63,ESE,120,1.0,3.0,96,0.04,,,0.35,0.00,VWS V14.01,2013-11-26 23:23:00,
2013-11-26 18:24:00,57.6,56.5,29.63,SSE,152,3.0,5.0,96,0.05,,,0.36,0.00,VWS V14.01,2013-11-26 23:24:00,
2013-11-26 18:25:00,57.6,56.5,29.63,SSE,153,6.0,6.0,96,0.05,,,0.36,0.00,VWS V14.01,2013-11-26 23:25:00,
2013-11-26 18:26:00,57.6,56.5,29.63,SSE,165,4.0,9.0,96,0.05,,,0.36,0.00,VWS V14.01,2013-11-26 23:26:00,
2013-11-26 18:27:00,57.5,56.4,29.63,East,96,4.0,10.0,96,0.04,,,0.35,0.00,VWS V14.01,2013-11-26 23:27:00,
2013-11-26 18:28:00,57.8,56.7,29.63,ESE,116,0.0,4.0,96,0.05,,,0.36,0.00,VWS V14.01,2013-11-26 23:28:00,
2013-11-26 18:29:00,57.8,56.7,29.61,SSE,148,5.0,6.0,96,0.05,,,0.36,0.00,VWS V14.01,2013-11-26 23:29:00,
2013-11-26 18:30:00,57.8,56.7,29.61,SE,142,3.0,5.0,96,0.05,,,0.36,0.00,VWS V14.01,2013-11-26 23:30:00,
2013-11-26 18:31:00,57.8,56.7,29.61,SE,132,5.0,5.0,96,0.05,,,0.36,0.00,VWS V14.01,2013-11-26 23:31:00,
2013-11-26 18:32:00,57.8,56.7,29.61,SSE,150,3.0,6.0,96,0.05,,,0.36,0.00,VWS V14.01,2013-11-26 23:32:00,
2013-11-26 18:33:00,57.6,56.5,29.63,ESE,122,4.0,5.0,96,0.05,,,0.36,0.00,VWS V14.01,2013-11-26 23:33:00,
2013-11-26 18:34:00,58.0,56.9,29.61,SE,136,10.0,11.0,96,0.04,,,0.36,0.00,VWS V14.01,2013-11-26 23:34:00,
2013-11-26 18:35:00,58.0,56.9,29.61,SSE,154,2.0,10.0,96,0.04,,,0.36,0.00,VWS V14.01,2013-11-26 23:35:00,
2013-11-26 18:36:00,58.0,56.9,29.61,SE,130,5.0,8.0,96,0.04,,,0.36,0.00,VWS V14.01,2013-11-26 23:36:00,
2013-11-26 18:37:00,58.1,57.0,29.61,SSE,154,3.0,9.0,96,0.04,,,0.36,0.00,VWS V14.01,2013-11-26 23:37:00,
2013-11-26 18:38:00,57.8,56.7,29.61,SE,142,3.0,5.0,96,0.05,,,0.36,0.00,VWS V14.01,2013-11-26 23:38:00,
2013-11-26 18:39:00,58.3,57.2,29.61,SE,136,6.0,9.0,96,0.04,,,0.36,0.00,VWS V14.01,2013-11-26 23:39:00,
2013-11-26 18:40:00,58.3,57.2,29.61,ESE,110,5.0,6.0,96,0.04,,,0.36,0.00,VWS V14.01,2013-11-26 23:40:00,
2013-11-26 18:41:00,58.3,57.2,29.61,SE,133,4.0,10.0,96,0.05,,,0.37,0.00,VWS V14.01,2013-11-26 23:41:00,
2013-11-26 18:42:00,58.4,57.3,29.61,SE,143,6.0,10.0,96,0.06,,,0.38,0.00,VWS V14.01,2013-11-26 23:42:00,
2013-11-26 18:43:00,58.0,56.9,29.61,SSE,154,2.0,10.0,96,0.04,,,0.36,0.00,VWS V14.01,2013-11-26 23:43:00,
2013-11-26 18:44:00,58.4,57.3,29.61,SE,146,0.0,5.0,96,0.06,,,0.38,0.00,VWS V14.01,2013-11-26 23:44:00,
2013-11-26 18:45:00,58.4,57.3,29.61,SSE,155,3.0,4.0,96,0.06,,,0.38,0.00,VWS V14.01,2013-11-26 23:45:00,
2013-11-26 18:46:00,58.6,57.5,29.61,ENE,71,0.0,3.0,96,0.06,,,0.38,0.00,VWS V14.01,2013-11-26 23:46:00,
2013-11-26 18:47:00,58.6,57.5,29.61,SSE,152,4.0,8.0,96,0.06,,,0.38,0.00,VWS V14.01,2013-11-26 23:47:00,
2013-11-26 18:48:00,58.3,57.2,29.61,SE,146,10.0,10.0,96,0.04,,,0.36,0.00,VWS V14.01,2013-11-26 23:48:00,
2013-11-26 18:49:00,58.7,57.6,29.61,ENE,77,0.0,4.0,96,0.06,,,0.38,0.00,VWS V14.01,2013-11-26 23:49:00,
2013-11-26 18:50:00,58.7,57.6,29.61,ESE,103,3.0,3.0,96,0.07,,,0.39,0.00,VWS V14.01,2013-11-26 23:50:00,
2013-11-26 18:51:00,58.7,57.6,29.61,SSE,160,4.0,4.0,96,0.07,,,0.39,0.00,VWS V14.01,2013-11-26 23:51:00,
2013-11-26 18:52:00,58.9,57.8,29.61,SSE,160,1.0,5.0,96,0.07,,,0.39,0.00,VWS V14.01,2013-11-26 23:52:00,
2013-11-26 18:53:00,58.4,57.3,29.61,SSE,155,3.0,4.0,96,0.06,,,0.38,0.00,VWS V14.01,2013-11-26 23:53:00,
2013-11-26 18:54:00,58.9,57.8,29.61,SE,126,5.0,5.0,96,0.06,,,0.39,0.00,VWS V14.01,2013-11-26 23:54:00,
2013-11-26 18:55:00,58.9,57.8,29.61,SE,128,2.0,5.0,96,0.06,,,0.39,0.00,VWS V14.01,2013-11-26 23:55:00,
2013-11-26 18:56:00,59.0,57.9,29.61,SSE,155,5.0,5.0,96,0.06,,,0.39,0.00,VWS V14.01,2013-11-26 23:56:00,
2013-11-26 18:57:00,59.0,57.9,29.61,SE,143,0.0,5.0,96,0.06,,,0.39,0.00,VWS V14.01,2013-11-26 23:57:00,
2013-11-26 18:58:00,58.7,57.6,29.61,SSE,158,3.0,4.0,96,0.07,,,0.39,0.00,VWS V14.01,2013-11-26 23:58:00,
2013-11-26 18:59:00,59.2,58.1,29.61,SSE,166,4.0,5.0,96,0.07,,,0.40,0.00,VWS V14.01,2013-11-26 23:59:00,
2013-11-26 19:00:00,59.3,58.2,29.60,South,175,4.0,5.0,96,0.06,,,0.40,0.00,VWS V14.01,2013-11-27 00:00:00,
2013-11-26 19:01:00,59.3,58.2,29.60,SSE,167,6.0,6.0,96,0.06,,,0.40,0.00,VWS V14.01,2013-11-27 00:01:00,
2013-11-26 19:02:00,59.5,58.4,29.60,South,177,4.0,6.0,96,0.07,,,0.41,0.00,VWS V14.01,2013-11-27 00:02:00,
2013-11-26 19:03:00,58.9,57.8,29.61,SSE,155,3.0,3.0,96,0.06,,,0.39,0.00,VWS V14.01,2013-11-27 00:03:00,
2013-11-26 19:04:00,59.6,58.8,29.60,South,180,6.0,6.0,97,0.08,,,0.42,0.00,VWS V14.01,2013-11-27 00:04:00,
2013-11-26 19:05:00,59.6,58.5,29.60,SE,136,2.0,9.0,96,0.08,,,0.42,0.00,VWS V14.01,2013-11-27 00:05:00,
2013-11-26 19:06:00,59.8,58.7,29.60,South,173,3.0,17.0,96,0.08,,,0.42,0.00,VWS V14.01,2013-11-27 00:06:00,
2013-11-26 19:07:00,59.9,59.0,29.60,SSW,201,6.0,16.0,97,0.08,,,0.42,0.00,VWS V14.01,2013-11-27 00:07:00,
2013-11-26 19:08:00,59.3,58.2,29.60,South,175,4.0,5.0,96,0.06,,,0.40,0.00,VWS V14.01,2013-11-27 00:08:00,
2013-11-26 19:09:00,60.1,59.2,29.60,SE,141,4.0,9.0,97,0.09,,,0.43,0.00,VWS V14.01,2013-11-27 00:09:00,
2013-11-26 19:10:00,60.1,59.2,29.60,SE,146,5.0,7.0,97,0.10,,,0.44,0.00,VWS V14.01,2013-11-27 00:10:00,
2013-11-26 19:11:00,60.2,59.3,29.60,SE,129,5.0,5.0,97,0.10,,,0.44,0.00,VWS V14.01,2013-11-27 00:11:00,
2013-11-26 19:12:00,60.2,59.3,29.60,SSE,155,0.0,5.0,97,0.10,,,0.44,0.00,VWS V14.01,2013-11-27 00:12:00,
2013-11-26 19:13:00,59.8,58.7,29.60,SSE,165,4.0,4.0,96,0.08,,,0.42,0.00,VWS V14.01,2013-11-27 00:13:00,
2013-11-26 19:14:00,60.4,59.5,29.59,SSE,153,5.0,5.0,97,0.11,,,0.45,0.00,VWS V14.01,2013-11-27 00:14:00,
2013-11-26 19:15:00,60.4,59.5,29.59,SE,145,3.0,5.0,97,0.11,,,0.45,0.00,VWS V14.01,2013-11-27 00:15:00,
2013-11-26 19:16:00,60.4,59.5,29.59,SSE,152,9.0,9.0,97,0.11,,,0.45,0.00,VWS V14.01,2013-11-27 00:16:00,
2013-11-26 19:17:00,60.5,59.7,29.59,South,169,7.0,9.0,97,0.11,,,0.46,0.00,VWS V14.01,2013-11-27 00:17:00,
2013-11-26 19:18:00,60.2,59.3,29.60,South,174,5.0,5.0,97,0.10,,,0.44,0.00,VWS V14.01,2013-11-27 00:18:00,
2013-11-26 19:19:00,60.5,59.7,29.59,South,188,4.0,4.0,97,0.11,,,0.46,0.00,VWS V14.01,2013-11-27 00:19:00,
2013-11-26 19:20:00,60.7,59.8,29.59,ESE,118,6.0,6.0,97,0.12,,,0.47,0.00,VWS V14.01,2013-11-27 00:20:00,
2013-11-26 19:21:00,60.7,59.8,29.59,South,170,2.0,6.0,97,0.13,,,0.48,0.00,VWS V14.01,2013-11-27 00:21:00,
2013-11-26 19:22:00,60.9,60.0,29.59,SSW,195,10.0,10.0,97,0.13,,,0.48,0.00,VWS V14.01,2013-11-27 00:22:00,
2013-11-26 19:23:00,60.4,59.5,29.59,SSE,166,9.0,9.0,97,0.11,,,0.45,0.00,VWS V14.01,2013-11-27 00:23:00,
2013-11-26 19:24:00,61.0,60.2,29.59,SSW,192,11.0,11.0,97,0.14,,,0.49,0.00,VWS V14.01,2013-11-27 00:24:00,
2013-11-26 19:25:00,61.2,60.3,29.59,South,172,3.0,11.0,97,0.13,,,0.49,0.00,VWS V14.01,2013-11-27 00:25:00,
2013-11-26 19:26:00,61.2,60.3,29.59,South,186,14.0,14.0,97,0.14,,,0.50,0.00,VWS V14.01,2013-11-27 00:26:00,
2013-11-26 19:27:00,61.2,60.3,29.59,South,185,5.0,14.0,97,0.14,,,0.50,0.00,VWS V14.01,2013-11-27 00:27:00,
2013-11-26 19:28:00,60.7,59.8,29.59,SE,138,3.0,6.0,97,0.12,,,0.47,0.00,VWS V14.01,2013-11-27 00:28:00,
2013-11-26 19:29:00,61.3,60.4,29.58,SSW,195,4.0,12.0,97,0.14,,,0.50,0.00,VWS V14.01,2013-11-27 00:29:00,
2013-11-26 19:30:00,61.3,60.4,29.58,SSW,194,1.0,5.0,97,0.15,,,0.51,0.00,VWS V14.01,2013-11-27 00:30:00,
2013-11-26 19:31:00,61.5,60.6,29.58,SE,143,3.0,4.0,97,0.15,,,0.51,0.00,VWS V14.01,2013-11-27 00:31:00,
2013-11-26 19:32:00,61.5,60.6,29.58,South,178,12.0,12.0,97,0.16,,,0.52,0.00,VWS V14.01,2013-11-27 00:32:00,
2013-11-26 19:33:00,61.2,60.3,29.59,ESE,117,9.0,9.0,97,0.14,,,0.50,0.00,VWS V14.01,2013-11-27 00:33:00,
2013-11-26 19:34:00,61.5,60.6,29.58,South,188,5.0,6.0,97,0.17,,,0.53,0.00,VWS V14.01,2013-11-27 00:34:00,
2013-11-26 19:35:00,61.6,60.7,29.58,South,177,6.0,15.0,97,0.18,,,0.54,0.00,VWS V14.01,2013-11-27 00:35:00,
2013-11-26 19:36:00,61.6,60.7,29.58,SE,136,0.0,6.0,97,0.18,,,0.54,0.00,VWS V14.01,2013-11-27 00:36:00,
2013-11-26 19:37:00,61.6,60.7,29.58,SE,135,0.0,0.0,97,0.18,,,0.54,0.00,VWS V14.01,2013-11-27 00:37:00,
2013-11-26 19:38:00,61.5,60.6,29.58,South,191,4.0,4.0,97,0.15,,,0.51,0.00,VWS V14.01,2013-11-27 00:38:00,
2013-11-26 19:39:00,61.8,60.9,29.58,South,172,9.0,13.0,97,0.19,,,0.55,0.00,VWS V14.01,2013-11-27 00:39:00,
2013-11-26 19:40:00,61.8,60.9,29.58,SSE,158,7.0,10.0,97,0.19,,,0.55,0.00,VWS V14.01,2013-11-27 00:40:00,
2013-11-26 19:41:00,61.8,60.9,29.58,SSW,196,2.0,7.0,97,0.19,,,0.55,0.00,VWS V14.01,2013-11-27 00:41:00,
2013-11-26 19:42:00,61.8,60.9,29.58,SE,146,4.0,13.0,97,0.18,,,0.55,0.00,VWS V14.01,2013-11-27 00:42:00,
2013-11-26 19:43:00,61.8,60.9,29.58,South,170,4.0,5.0,97,0.18,,,0.56,0.00,VWS V14.01,2013-11-27 00:43:00,
2013-11-26 19:44:00,61.6,60.7,29.58,SE,136,0.0,6.0,97,0.18,,,0.54,0.00,VWS V14.01,2013-11-27 00:44:00,
2013-11-26 19:45:00,62.0,60.8,29.58,South,185,11.0,11.0,96,0.18,,,0.56,0.00,VWS V14.01,2013-11-27 00:45:00,
2013-11-26 19:46:00,62.0,60.8,29.58,South,179,6.0,11.0,96,0.18,,,0.56,0.00,VWS V14.01,2013-11-27 00:46:00,
2013-11-26 19:47:00,62.0,60.8,29.58,SSE,157,5.0,9.0,96,0.18,,,0.56,0.00,VWS V14.01,2013-11-27 00:47:00,
2013-11-26 19:48:00,62.0,61.1,29.58,SSE,160,2.0,7.0,97,0.18,,,0.56,0.00,VWS V14.01,2013-11-27 00:48:00,
2013-11-26 19:49:00,61.8,60.9,29.58,SSW,196,2.0,7.0,97,0.19,,,0.55,0.00,VWS V14.01,2013-11-27 00:49:00,
2013-11-26 19:50:00,62.0,61.1,29.58,SE,140,5.0,10.0,97,0.18,,,0.56,0.00,VWS V14.01,2013-11-27 00:50:00,
2013-11-26 19:51:00,62.0,61.1,29.58,SSE,148,4.0,6.0,97,0.17,,,0.56,0.00,VWS V14.01,2013-11-27 00:51:00,
2013-11-26 19:52:00,62.0,60.8,29.58,SE,129,4.0,6.0,96,0.17,,,0.56,0.00,VWS V14.01,2013-11-27 00:52:00,
2013-11-26 19:53:00,62.0,60.8,29.58,SSE,167,5.0,8.0,96,0.17,,,0.56,0.00,VWS V14.01,2013-11-27 00:53:00,
2013-11-26 19:54:00,62.0,60.8,29.58,South,179,6.0,11.0,96,0.18,,,0.56,0.00,VWS V14.01,2013-11-27 00:54:00,
2013-11-26 19:55:00,62.1,61.0,29.58,SSE,151,5.0,5.0,96,0.17,,,0.56,0.00,VWS V14.01,2013-11-27 00:55:00,
2013-11-26 19:56:00,62.1,61.0,29.58,South,186,4.0,9.0,96,0.17,,,0.56,0.00,VWS V14.01,2013-11-27 00:56:00,
2013-11-26 19:57:00,62.1,61.0,29.58,SE,146,7.0,12.0,96,0.17,,,0.56,0.00,VWS V14.01,2013-11-27 00:57:00,
2013-11-26 19:58:00,62.1,61.0,29.58,SSE,158,6.0,8.0,96,0.17,,,0.56,0.00,VWS V14.01,2013-11-27 00:58:00,
2013-11-26 19:59:00,62.0,61.1,29.58,SSE,148,4.0,6.0,97,0.17,,,0.56,0.00,VWS V14.01,2013-11-27 00:59:00,
2013-11-26 20:00:00,62.1,61.0,29.56,SSE,162,6.0,7.0,96,0.16,,,0.56,0.00,VWS V14.01,2013-11-27 01:00:00,
2013-11-26 20:01:00,62.1,61.0,29.56,South,187,7.0,7.0,96,0.16,,,0.56,0.00,VWS V14.01,2013-11-27 01:01:00,
2013-11-26 20:02:00,62.1,61.0,29.56,South,185,10.0,10.0,96,0.16,,,0.56,0.00,VWS V14.01,2013-11-27 01:02:00,
2013-11-26 20:03:00,62.3,61.2,29.56,SSE,168,6.0,11.0,96,0.15,,,0.56,0.00,VWS V14.01,2013-11-27 01:03:00,
2013-11-26 20:04:00,62.1,61.0,29.58,South,183,4.0,4.0,96,0.17,,,0.56,0.00,VWS V14.01,2013-11-27 01:04:00,
2013-11-26 20:05:00,62.3,61.2,29.56,South,180,3.0,9.0,96,0.15,,,0.57,0.00,VWS V14.01,2013-11-27 01:05:00,
2013-11-26 20:06:00,62.3,61.2,29.56,SSE,153,3.0,4.0,96,0.15,,,0.57,0.00,VWS V14.01,2013-11-27 01:06:00,
2013-11-26 20:07:00,62.3,61.2,29.56,South,175,3.0,5.0,96,0.15,,,0.57,0.00,VWS V14.01,2013-11-27 01:07:00,
2013-11-26 20:08:00,62.4,61.2,29.56,SSE,168,5.0,9.0,96,0.15,,,0.57,0.00,VWS V14.01,2013-11-27 01:08:00,
2013-11-26 20:09:00,62.1,61.0,29.56,South,177,4.0,7.0,96,0.16,,,0.56,0.00,VWS V14.01,2013-11-27 01:09:00,
2013-11-26 20:10:00,62.4,61.2,29.56,South,174,3.0,10.0,96,0.15,,,0.58,0.00,VWS V14.01,2013-11-27 01:10:00,
2013-11-26 20:11:00,62.4,61.2,29.56,SSE,162,5.0,5.0,96,0.14,,,0.58,0.00,VWS V14.01,2013-11-27 01:11:00,
2013-11-26 20:12:00,62.4,61.2,29.56,SSE,166,9.0,11.0,96,0.14,,,0.58,0.00,VWS V14.01,2013-11-27 01:12:00,
2013-11-26 20:14:00,62.3,61.2,29.56,South,171,4.0,4.0,96,0.15,,,0.57,0.00,VWS V14.01,2013-11-27 01:14:00,
2013-11-26 20:15:00,62.6,61.7,29.57,SE,137,7.0,8.0,97,0.15,,,0.60,0.00,VWS V14.01,2013-11-27 01:15:00,
2013-11-26 20:16:00,62.6,61.7,29.57,South,172,4.0,7.0,97,0.15,,,0.60,0.00,VWS V14.01,2013-11-27 01:16:00,
2013-11-26 20:17:00,62.7,61.8,29.57,South,190,7.0,9.0,97,0.16,,,0.61,0.00,VWS V14.01,2013-11-27 01:17:00,
2013-11-26 20:18:00,62.7,61.8,29.57,SSE,167,6.0,11.0,97,0.16,,,0.62,0.00,VWS V14.01,2013-11-27 01:18:00,
2013-11-26 20:19:00,62.4,61.2,29.56,South,183,7.0,7.0,96,0.14,,,0.58,0.00,VWS V14.01,2013-11-27 01:19:00,
2013-11-26 20:20:00,62.9,62.0,29.57,South,182,5.0,11.0,97,0.16,,,0.62,0.00,VWS V14.01,2013-11-27 01:20:00,
2013-11-26 20:21:00,62.9,61.8,29.57,SSE,167,10.0,10.0,96,0.15,,,0.62,0.00,VWS V14.01,2013-11-27 01:21:00,
2013-11-26 20:22:00,62.9,61.8,29.57,South,172,5.0,10.0,96,0.15,,,0.63,0.00,VWS V14.01,2013-11-27 01:22:00,
2013-11-26 20:23:00,63.1,62.2,29.57,South,181,7.0,14.0,97,0.15,,,0.63,0.00,VWS V14.01,2013-11-27 01:23:00,
2013-11-26 20:24:00,62.6,61.7,29.57,South,171,6.0,7.0,97,0.16,,,0.61,0.00,VWS V14.01,2013-11-27 01:24:00,
2013-11-26 20:25:00,63.1,61.9,29.57,South,172,5.0,5.0,96,0.15,,,0.64,0.00,VWS V14.01,2013-11-27 01:25:00,
2013-11-26 20:26:00,63.1,61.9,29.57,SSE,158,10.0,10.0,96,0.15,,,0.64,0.00,VWS V14.01,2013-11-27 01:26:00,
2013-11-26 20:27:00,63.1,61.9,29.57,SE,130,6.0,10.0,96,0.14,,,0.64,0.00,VWS V14.01,2013-11-27 01:27:00,
2013-11-26 20:28:00,63.1,62.2,29.57,South,177,4.0,11.0,97,0.14,,,0.64,0.00,VWS V14.01,2013-11-27 01:28:00,
2013-11-26 20:29:00,62.9,61.8,29.57,South,176,6.0,10.0,96,0.14,,,0.62,0.00,VWS V14.01,2013-11-27 01:29:00,
2013-11-26 20:30:00,63.2,62.3,29.56,South,178,0.0,3.0,97,0.14,,,0.64,0.00,VWS V14.01,2013-11-27 01:30:00,
2013-11-26 20:31:00,63.2,62.3,29.56,South,181,10.0,10.0,97,0.13,,,0.64,0.00,VWS V14.01,2013-11-27 01:31:00,
2013-11-26 20:32:00,63.2,62.3,29.56,South,182,3.0,10.0,97,0.13,,,0.64,0.00,VWS V14.01,2013-11-27 01:32:00,
2013-11-26 20:33:00,63.2,62.3,29.56,SSW,201,6.0,7.0,97,0.12,,,0.64,0.00,VWS V14.01,2013-11-27 01:33:00,
2013-11-26 20:34:00,63.1,61.9,29.57,South,191,1.0,10.0,96,0.14,,,0.64,0.00,VWS V14.01,2013-11-27 01:34:00,
2013-11-26 20:35:00,63.2,62.0,29.56,SSE,162,0.0,11.0,96,0.11,,,0.64,0.00,VWS V14.01,2013-11-27 01:35:00,
2013-11-26 20:36:00,63.4,62.5,29.56,South,184,6.0,10.0,97,0.10,,,0.64,0.00,VWS V14.01,2013-11-27 01:36:00,
2013-11-26 20:37:00,63.4,62.5,29.56,SSE,166,5.0,6.0,97,0.10,,,0.64,0.00,VWS V14.01,2013-11-27 01:37:00,
2013-11-26 20:38:00,63.4,62.2,29.56,South,185,4.0,6.0,96,0.10,,,0.64,0.00,VWS V14.01,2013-11-27 01:38:00,
2013-11-26 20:39:00,63.2,62.3,29.56,SSW,203,4.0,10.0,97,0.13,,,0.64,0.00,VWS V14.01,2013-11-27 01:39:00,
2013-11-26 20:40:00,63.4,62.2,29.56,SSE,160,3.0,5.0,96,0.09,,,0.64,0.00,VWS V14.01,2013-11-27 01:40:00,
2013-11-26 20:41:00,63.4,62.2,29.56,SSE,162,4.0,6.0,96,0.09,,,0.64,0.00,VWS V14.01,2013-11-27 01:41:00,
2013-11-26 20:42:00,63.4,62.2,29.56,South,179,4.0,10.0,96,0.09,,,0.64,0.00,VWS V14.01,2013-11-27 01:42:00,
2013-11-26 20:43:00,63.4,62.2,29.56,South,173,9.0,9.0,96,0.09,,,0.64,0.00,VWS V14.01,2013-11-27 01:43:00,
2013-11-26 20:44:00,63.4,62.5,29.56,South,191,3.0,6.0,97,0.10,,,0.64,0.00,VWS V14.01,2013-11-27 01:44:00,
2013-11-26 20:45:00,63.4,62.2,29.55,SSW,198,5.0,5.0,96,0.09,,,0.65,0.00,VWS V14.01,2013-11-27 01:45:00,
2013-11-26 20:46:00,63.4,62.2,29.55,SW,232,2.0,9.0,96,0.09,,,0.65,0.00,VWS V14.01,2013-11-27 01:46:00,
2013-11-26 20:47:00,63.5,62.3,29.55,SE,144,5.0,11.0,96,0.09,,,0.65,0.00,VWS V14.01,2013-11-27 01:47:00,
2013-11-26 20:48:00,63.5,62.3,29.55,SSW,197,11.0,11.0,96,0.09,,,0.65,0.00,VWS V14.01,2013-11-27 01:48:00,
2013-11-26 20:49:00,63.4,62.2,29.56,SW,215,4.0,10.0,96,0.09,,,0.64,0.00,VWS V14.01,2013-11-27 01:49:00,
2013-11-26 20:50:00,63.5,62.3,29.55,South,179,5.0,6.0,96,0.09,,,0.65,0.00,VWS V14.01,2013-11-27 01:50:00,
2013-11-26 20:51:00,63.5,62.3,29.55,South,181,2.0,9.0,96,0.10,,,0.66,0.00,VWS V14.01,2013-11-27 01:51:00,
2013-11-26 20:52:00,63.5,62.3,29.55,South,184,3.0,4.0,96,0.10,,,0.66,0.00,VWS V14.01,2013-11-27 01:52:00,
2013-11-26 20:53:00,63.5,62.3,29.55,South,172,4.0,4.0,96,0.10,,,0.66,0.00,VWS V14.01,2013-11-27 01:53:00,
2013-11-26 20:54:00,63.5,62.3,29.55,South,169,4.0,4.0,96,0.10,,,0.66,0.00,VWS V14.01,2013-11-27 01:54:00,
2013-11-26 20:55:00,63.4,62.2,29.55,SSW,200,11.0,11.0,96,0.09,,,0.65,0.00,VWS V14.01,2013-11-27 01:55:00,
2013-11-26 20:56:00,63.7,62.5,29.55,SSE,155,10.0,10.0,96,0.10,,,0.66,0.00,VWS V14.01,2013-11-27 01:56:00,
2013-11-26 20:57:00,63.7,62.5,29.55,SW,214,2.0,10.0,96,0.10,,,0.66,0.00,VWS V14.01,2013-11-27 01:57:00,
2013-11-26 20:58:00,63.7,62.5,29.55,South,179,4.0,8.0,96,0.10,,,0.66,0.00,VWS V14.01,2013-11-27 01:58:00,
2013-11-26 20:59:00,63.7,62.5,29.55,SSW,200,9.0,9.0,96,0.10,,,0.66,0.00,VWS V14.01,2013-11-27 01:59:00,
2013-11-26 21:00:00,63.5,62.3,29.55,South,184,3.0,4.0,96,0.10,,,0.66,0.00,VWS V14.01,2013-11-27 02:00:00,
2013-11-26 21:01:00,63.7,62.5,29.53,South,181,5.0,10.0,96,0.10,,,0.66,0.00,VWS V14.01,2013-11-27 02:01:00,
2013-11-26 21:02:00,63.9,62.7,29.53,SSW,203,11.0,11.0,96,0.10,,,0.66,0.00,VWS V14.01,2013-11-27 02:02:00,
2013-11-26 21:03:00,63.9,62.7,29.53,SSW,207,6.0,14.0,96,0.10,,,0.66,0.00,VWS V14.01,2013-11-27 02:03:00,
2013-11-26 21:04:00,63.9,62.7,29.53,SSW,205,3.0,9.0,96,0.10,,,0.66,0.00,VWS V14.01,2013-11-27 02:04:00,
2013-11-26 21:05:00,63.7,62.5,29.55,SW,218,5.0,10.0,96,0.10,,,0.66,0.00,VWS V14.01,2013-11-27 02:05:00,
2013-11-26 21:06:00,63.9,62.7,29.53,South,180,7.0,7.0,96,0.09,,,0.66,0.00,VWS V14.01,2013-11-27 02:06:00,
2013-11-26 21:07:00,63.9,62.7,29.53,SSE,154,4.0,7.0,96,0.09,,,0.66,0.00,VWS V14.01,2013-11-27 02:07:00,
2013-11-26 21:08:00,63.9,62.7,29.53,SSW,198,3.0,10.0,96,0.09,,,0.66,0.00,VWS V14.01,2013-11-27 02:08:00,
2013-11-26 21:09:00,64.0,62.8,29.53,South,184,9.0,9.0,96,0.09,,,0.66,0.00,VWS V14.01,2013-11-27 02:09:00,
2013-11-26 21:10:00,63.9,62.7,29.53,SSW,196,11.0,11.0,96,0.10,,,0.66,0.00,VWS V14.01,2013-11-27 02:10:00,
2013-11-26 21:11:00,64.0,62.8,29.53,South,171,5.0,5.0,96,0.08,,,0.66,0.00,VWS V14.01,2013-11-27 02:11:00,
2013-11-26 21:12:00,64.0,62.8,29.53,SSE,160,6.0,6.0,96,0.08,,,0.66,0.00,VWS V14.01,2013-11-27 02:12:00,
2013-11-26 21:13:00,64.0,62.8,29.53,South,175,9.0,11.0,96,0.08,,,0.66,0.00,VWS V14.01,2013-11-27 02:13:00,
2013-11-26 21:14:00,64.0,62.8,29.52,SW,234,11.0,11.0,96,0.08,,,0.66,0.00,VWS V14.01,2013-11-27 02:14:00,
2013-11-26 21:15:00,63.9,62.7,29.53,SSE,154,4.0,7.0,96,0.09,,,0.66,0.00,VWS V14.01,2013-11-27 02:15:00,
2013-11-26 21:16:00,64.2,63.0,29.52,South,191,4.0,6.0,96,0.06,,,0.66,0.00,VWS V14.01,2013-11-27 02:16:00,
2013-11-26 21:17:00,64.2,63.0,29.52,WSW,240,5.0,9.0,96,0.06,,,0.66,0.00,VWS V14.01,2013-11-27 02:17:00,
2013-11-26 21:18:00,64.2,63.0,29.52,South,189,9.0,10.0,96,0.05,,,0.66,0.00,VWS V14.01,2013-11-27 02:18:00,
2013-11-26 21:19:00,64.2,63.0,29.52,SSW,197,3.0,11.0,96,0.04,,,0.66,0.00,VWS V14.01,2013-11-27 02:19:00,
2013-11-26 21:20:00,64.0,62.8,29.53,SSE,160,6.0,6.0,96,0.08,,,0.66,0.00,VWS V14.01,2013-11-27 02:20:00,
2013-11-26 21:21:00,64.2,63.0,29.52,South,179,5.0,7.0,96,0.04,,,0.66,0.00,VWS V14.01,2013-11-27 02:21:00,
2013-11-26 21:22:00,64.2,63.0,29.52,South,174,6.0,12.0,96,0.04,,,0.66,0.00,VWS V14.01,2013-11-27 02:22:00,
2013-11-26 21:23:00,64.3,63.1,29.52,SSW,203,6.0,7.0,96,0.03,,,0.66,0.00,VWS V14.01,2013-11-27 02:23:00,
2013-11-26 21:24:00,64.3,63.1,29.52,South,188,14.0,14.0,96,0.03,,,0.66,0.00,VWS V14.01,2013-11-27 02:24:00,
2013-11-26 21:25:00,64.2,63.0,29.52,WSW,240,5.0,9.0,96,0.06,,,0.66,0.00,VWS V14.01,2013-11-27 02:25:00,
2013-11-26 21:26:00,64.3,63.1,29.52,South,179,2.0,6.0,96,0.02,,,0.66,0.00,VWS V14.01,2013-11-27 02:26:00,
2013-11-26 21:27:00,64.3,63.1,29.52,South,172,8.0,8.0,96,0.02,,,0.66,0.00,VWS V14.01,2013-11-27 02:27:00,
2013-11-26 21:28:00,64.3,63.1,29.52,SW,218,5.0,8.0,96,0.02,,,0.66,0.00,VWS V14.01,2013-11-27 02:28:00,
2013-11-26 21:29:00,64.3,63.1,29.51,SSW,201,10.0,10.0,96,0.02,,,0.66,0.00,VWS V14.01,2013-11-27 02:29:00,
2013-11-26 21:30:00,64.3,63.1,29.52,SSW,198,7.0,7.0,96,0.03,,,0.66,0.00,VWS V14.01,2013-11-27 02:30:00,
2013-11-26 21:31:00,64.5,63.3,29.51,South,188,10.0,10.0,96,0.02,,,0.66,0.00,VWS V14.01,2013-11-27 02:31:00,
2013-11-26 21:32:00,64.5,63.3,29.51,SSE,167,2.0,10.0,96,0.02,,,0.66,0.00,VWS V14.01,2013-11-27 02:32:00,
2013-11-26 21:33:00,64.5,63.3,29.51,South,169,5.0,6.0,96,0.02,,,0.66,0.00,VWS V14.01,2013-11-27 02:33:00,
2013-11-26 21:34:00,64.5,63.3,29.51,South,184,5.0,10.0,96,0.03,,,0.67,0.00,VWS V14.01,2013-11-27 02:34:00,
2013-11-26 21:35:00,64.3,63.1,29.52,South,188,8.0,8.0,96,0.02,,,0.66,0.00,VWS V14.01,2013-11-27 02:35:00,
2013-11-26 21:36:00,64.5,63.3,29.51,SW,224,4.0,9.0,96,0.03,,,0.67,0.00,VWS V14.01,2013-11-27 02:36:00,
2013-11-26 21:37:00,64.7,63.5,29.51,SSW,201,11.0,11.0,96,0.03,,,0.67,0.00,VWS V14.01,2013-11-27 02:37:00,
2013-11-26 21:38:00,64.7,63.5,29.51,SSW,200,4.0,11.0,96,0.03,,,0.67,0.00,VWS V14.01,2013-11-27 02:38:00,
2013-11-26 21:39:00,64.7,63.5,29.51,SE,130,0.0,6.0,96,0.03,,,0.67,0.00,VWS V14.01,2013-11-27 02:39:00,
2013-11-26 21:40:00,64.5,63.3,29.51,South,170,4.0,6.0,96,0.02,,,0.66,0.00,VWS V14.01,2013-11-27 02:40:00,
2013-11-26 21:41:00,64.7,63.5,29.51,South,188,4.0,4.0,96,0.04,,,0.68,0.00,VWS V14.01,2013-11-27 02:41:00,
2013-11-26 21:42:00,64.7,63.5,29.51,South,173,3.0,9.0,96,0.04,,,0.68,0.00,VWS V14.01,2013-11-27 02:42:00,
2013-11-26 21:43:00,64.7,63.5,29.51,SW,220,6.0,11.0,96,0.04,,,0.68,0.00,VWS V14.01,2013-11-27 02:43:00,
2013-11-26 21:44:00,64.7,63.5,29.50,South,169,6.0,9.0,96,0.04,,,0.68,0.00,VWS V14.01,2013-11-27 02:44:00,
2013-11-26 21:45:00,64.5,63.3,29.51,South,188,4.0,11.0,96,0.03,,,0.67,0.00,VWS V14.01,2013-11-27 02:45:00,
2013-11-26 21:46:00,64.7,63.5,29.50,South,175,5.0,6.0,96,0.03,,,0.68,0.00,VWS V14.01,2013-11-27 02:46:00,
2013-11-26 21:47:00,64.8,63.6,29.50,SSE,167,6.0,7.0,96,0.04,,,0.69,0.00,VWS V14.01,2013-11-27 02:47:00,
2013-11-26 21:48:00,64.8,63.6,29.50,SSE,168,4.0,10.0,96,0.04,,,0.69,0.00,VWS V14.01,2013-11-27 02:48:00,
2013-11-26 21:49:00,64.8,63.6,29.50,SSE,155,5.0,7.0,96,0.04,,,0.69,0.00,VWS V14.01,2013-11-27 02:49:00,
2013-11-26 21:50:00,64.7,63.5,29.51,SSE,160,6.0,11.0,96,0.04,,,0.68,0.00,VWS V14.01,2013-11-27 02:50:00,
2013-11-26 21:51:00,64.8,63.6,29.50,SW,229,4.0,8.0,96,0.05,,,0.70,0.00,VWS V14.01,2013-11-27 02:51:00,
2013-11-26 21:52:00,64.8,63.6,29.50,SSE,160,4.0,9.0,96,0.04,,,0.70,0.00,VWS V14.01,2013-11-27 02:52:00,
2013-11-26 21:53:00,64.8,63.6,29.50,SSW,201,4.0,9.0,96,0.04,,,0.70,0.00,VWS V14.01,2013-11-27 02:53:00,
2013-11-26 21:54:00,64.8,63.6,29.50,SSE,156,6.0,6.0,96,0.04,,,0.70,0.00,VWS V14.01,2013-11-27 02:54:00,
2013-11-26 21:55:00,64.8,63.6,29.50,South,176,4.0,10.0,96,0.04,,,0.69,0.00,VWS V14.01,2013-11-27 02:55:00,
2013-11-26 21:56:00,65.0,63.8,29.50,SSW,192,11.0,11.0,96,0.04,,,0.70,0.00,VWS V14.01,2013-11-27 02:56:00,
2013-11-26 21:57:00,65.0,63.8,29.50,SSW,212,4.0,11.0,96,0.04,,,0.70,0.00,VWS V14.01,2013-11-27 02:57:00,
2013-11-26 21:58:00,65.0,63.8,29.50,SW,236,6.0,13.0,96,0.04,,,0.70,0.00,VWS V14.01,2013-11-27 02:58:00,
2013-11-26 21:59:00,65.0,63.8,29.50,SW,233,0.0,6.0,96,0.04,,,0.70,0.00,VWS V14.01,2013-11-27 02:59:00,
2013-11-26 22:00:00,64.8,63.6,29.50,SSW,210,5.0,9.0,96,0.04,,,0.70,0.00,VWS V14.01,2013-11-27 03:00:00,
2013-11-26 22:01:00,65.0,63.8,29.50,SSW,195,1.0,5.0,96,0.04,,,0.70,0.00,VWS V14.01,2013-11-27 03:01:00,
2013-11-26 22:02:00,65.0,63.8,29.50,South,189,10.0,10.0,96,0.04,,,0.70,0.00,VWS V14.01,2013-11-27 03:02:00,
2013-11-26 22:03:00,65.2,64.0,29.50,SSW,211,0.0,10.0,96,0.04,,,0.70,0.00,VWS V14.01,2013-11-27 03:03:00,
2013-11-26 22:04:00,65.2,64.0,29.50,SSW,211,0.0,0.0,96,0.04,,,0.70,0.00,VWS V14.01,2013-11-27 03:04:00,
2013-11-26 22:05:00,65.2,64.0,29.50,SSW,200,6.0,10.0,96,0.04,,,0.70,0.00,VWS V14.01,2013-11-27 03:05:00,
2013-11-26 22:06:00,65.0,63.8,29.50,SSW,203,7.0,13.0,96,0.04,,,0.70,0.00,VWS V14.01,2013-11-27 03:06:00,
2013-11-26 22:07:00,65.2,64.0,29.50,SSW,205,4.0,10.0,96,0.04,,,0.70,0.00,VWS V14.01,2013-11-27 03:07:00,
2013-11-26 22:08:00,65.2,64.0,29.50,SSW,200,4.0,10.0,96,0.04,,,0.70,0.00,VWS V14.01,2013-11-27 03:08:00,
2013-11-26 22:09:00,65.3,64.1,29.50,SSW,200,10.0,11.0,96,0.04,,,0.70,0.00,VWS V14.01,2013-11-27 03:09:00,
2013-11-26 22:10:00,65.3,64.1,29.50,SW,226,10.0,10.0,96,0.04,,,0.70,0.00,VWS V14.01,2013-11-27 03:10:00,
2013-11-26 22:11:00,65.2,64.0,29.50,SSW,211,0.0,10.0,96,0.04,,,0.70,0.00,VWS V14.01,2013-11-27 03:11:00,
2013-11-26 22:12:00,65.3,64.1,29.50,SSW,199,8.0,12.0,96,0.04,,,0.70,0.00,VWS V14.01,2013-11-27 03:12:00,
2013-11-26 22:13:00,65.3,64.1,29.50,South,171,4.0,8.0,96,0.04,,,0.70,0.00,VWS V14.01,2013-11-27 03:13:00,
2013-11-26 22:14:00,65.3,64.1,29.48,South,171,4.0,4.0,96,0.04,,,0.70,0.00,VWS V14.01,2013-11-27 03:14:00,
2013-11-26 22:15:00,65.5,64.3,29.48,South,186,6.0,15.0,96,0.04,,,0.70,0.00,VWS V14.01,2013-11-27 03:15:00,
2013-11-26 22:16:00,65.2,64.0,29.50,SSW,200,4.0,10.0,96,0.04,,,0.70,0.00,VWS V14.01,2013-11-27 03:16:00,
2013-11-26 22:17:00,65.5,64.3,29.48,SSW,201,7.0,9.0,96,0.04,,,0.70,0.00,VWS V14.01,2013-11-27 03:17:00,
2013-11-26 22:18:00,65.5,64.3,29.48,South,177,5.0,14.0,96,0.04,,,0.70,0.00,VWS V14.01,2013-11-27 03:18:00,
2013-11-26 22:19:00,65.5,64.3,29.48,SW,219,12.0,12.0,96,0.04,,,0.70,0.00,VWS V14.01,2013-11-27 03:19:00,
2013-11-26 22:20:00,65.5,64.3,29.48,South,179,6.0,12.0,96,0.04,,,0.70,0.00,VWS V14.01,2013-11-27 03:20:00,
2013-11-26 22:21:00,65.3,64.1,29.50,South,171,4.0,8.0,96,0.04,,,0.70,0.00,VWS V14.01,2013-11-27 03:21:00,
2013-11-26 22:22:00,65.6,64.4,29.48,South,191,4.0,6.0,96,0.04,,,0.70,0.00,VWS V14.01,2013-11-27 03:22:00,
2013-11-26 22:23:00,65.6,64.4,29.48,SW,214,5.0,13.0,96,0.04,,,0.70,0.00,VWS V14.01,2013-11-27 03:23:00,
2013-11-26 22:24:00,65.6,64.4,29.48,South,190,6.0,10.0,96,0.04,,,0.70,0.00,VWS V14.01,2013-11-27 03:24:00,
2013-11-26 22:25:00,65.6,64.4,29.48,South,172,7.0,7.0,96,0.04,,,0.70,0.00,VWS V14.01,2013-11-27 03:25:00,
2013-11-26 22:26:00,65.5,64.3,29.48,SSW,198,6.0,14.0,96,0.04,,,0.70,0.00,VWS V14.01,2013-11-27 03:26:00,
2013-11-26 22:27:00,65.6,64.4,29.48,SSW,192,5.0,9.0,96,0.04,,,0.70,0.00,VWS V14.01,2013-11-27 03:27:00,
2013-11-26 22:28:00,65.6,64.4,29.48,SW,220,7.0,7.0,96,0.04,,,0.70,0.00,VWS V14.01,2013-11-27 03:28:00,
2013-11-26 22:29:00,65.6,64.4,29.48,SSW,193,7.0,10.0,96,0.04,,,0.70,0.00,VWS V14.01,2013-11-27 03:29:00,
2013-11-26 22:30:00,65.6,64.4,29.48,South,188,7.0,7.0,96,0.04,,,0.70,0.00,VWS V14.01,2013-11-27 03:30:00,
2013-11-26 22:31:00,65.6,64.4,29.48,SW,214,5.0,13.0,96,0.04,,,0.70,0.00,VWS V14.01,2013-11-27 03:31:00,
2013-11-26 22:32:00,65.8,64.6,29.48,SSW,203,5.0,10.0,96,0.04,,,0.70,0.00,VWS V14.01,2013-11-27 03:32:00,
2013-11-26 22:33:00,65.8,64.6,29.48,SW,226,6.0,9.0,96,0.04,,,0.70,0.00,VWS V14.01,2013-11-27 03:33:00,
2013-11-26 22:34:00,65.8,64.6,29.48,South,184,7.0,7.0,96,0.04,,,0.70,0.00,VWS V14.01,2013-11-27 03:34:00,
2013-11-26 22:35:00,65.8,64.6,29.48,South,184,8.0,8.0,96,0.03,,,0.70,0.00,VWS V14.01,2013-11-27 03:35:00,
2013-11-26 22:36:00,65.6,64.4,29.48,SW,220,7.0,7.0,96,0.04,,,0.70,0.00,VWS V14.01,2013-11-27 03:36:00,
2013-11-26 22:37:00,66.0,64.8,29.48,SSE,163,6.0,13.0,96,0.03,,,0.70,0.00,VWS V14.01,2013-11-27 03:37:00,
2013-11-26 22:38:00,66.0,64.8,29.48,SSW,203,7.0,8.0,96,0.03,,,0.70,0.00,VWS V14.01,2013-11-27 03:38:00,
2013-11-26 22:39:00,66.0,64.8,29.48,SSW,203,5.0,13.0,96,0.03,,,0.70,0.00,VWS V14.01,2013-11-27 03:39:00,
2013-11-26 22:40:00,66.0,64.8,29.48,SSW,192,4.0,5.0,96,0.03,,,0.70,0.00,VWS V14.01,2013-11-27 03:40:00,
2013-11-26 22:41:00,65.8,64.6,29.48,SW,224,5.0,6.0,96,0.04,,,0.70,0.00,VWS V14.01,2013-11-27 03:41:00,
2013-11-26 22:42:00,66.0,64.8,29.48,SW,214,0.0,5.0,96,0.02,,,0.70,0.00,VWS V14.01,2013-11-27 03:42:00,
2013-11-26 22:43:00,66.0,64.8,29.48,SSW,195,4.0,10.0,96,0.02,,,0.70,0.00,VWS V14.01,2013-11-27 03:43:00,
2013-11-26 22:44:00,66.0,64.8,29.48,South,182,9.0,12.0,96,0.02,,,0.70,0.00,VWS V14.01,2013-11-27 03:44:00,
2013-11-26 22:45:00,66.0,64.8,29.47,SSW,197,4.0,9.0,96,0.02,,,0.70,0.00,VWS V14.01,2013-11-27 03:45:00,
2013-11-26 22:46:00,66.0,64.8,29.48,SW,228,5.0,10.0,96,0.03,,,0.70,0.00,VWS V14.01,2013-11-27 03:46:00,
2013-11-26 22:47:00,66.0,64.8,29.47,SSE,166,7.0,7.0,96,0.02,,,0.70,0.00,VWS V14.01,2013-11-27 03:47:00,
2013-11-26 22:48:00,66.0,64.8,29.47,SSW,193,12.0,12.0,96,0.01,,,0.70,0.00,VWS V14.01,2013-11-27 03:48:00,
2013-11-26 22:49:00,66.0,64.8,29.47,SSW,199,12.0,12.0,96,0.01,,,0.70,0.00,VWS V14.01,2013-11-27 03:49:00,
2013-11-26 22:50:00,66.0,64.8,29.47,South,191,5.0,13.0,96,0.01,,,0.70,0.00,VWS V14.01,2013-11-27 03:50:00,
2013-11-26 22:51:00,66.0,64.8,29.48,SSW,208,9.0,12.0,96,0.02,,,0.70,0.00,VWS V14.01,2013-11-27 03:51:00,
2013-11-26 22:52:00,66.0,64.8,29.47,South,172,6.0,13.0,96,0.00,,,0.70,0.00,VWS V14.01,2013-11-27 03:52:00,
2013-11-26 22:53:00,66.1,64.9,29.47,South,178,5.0,8.0,96,0.00,,,0.70,0.00,VWS V14.01,2013-11-27 03:53:00,
2013-11-26 22:54:00,66.1,64.9,29.47,SSW,193,6.0,12.0,96,0.00,,,0.70,0.00,VWS V14.01,2013-11-27 03:54:00,
2013-11-26 22:55:00,66.1,64.9,29.47,South,184,13.0,15.0,96,0.00,,,0.70,0.00,VWS V14.01,2013-11-27 03:55:00,
2013-11-26 22:56:00,66.0,64.8,29.47,SSW,210,6.0,12.0,96,0.01,,,0.70,0.00,VWS V14.01,2013-11-27 03:56:00,
2013-11-26 22:57:00,66.1,64.9,29.47,SSW,208,11.0,11.0,96,0.00,,,0.70,0.00,VWS V14.01,2013-11-27 03:57:00,
2013-11-26 22:58:00,66.1,64.9,29.47,SSW,207,6.0,11.0,96,0.00,,,0.70,0.00,VWS V14.01,2013-11-27 03:58:00,
2013-11-26 22:59:00,66.1,64.9,29.47,South,184,9.0,13.0,96,0.00,,,0.70,0.00,VWS V14.01,2013-11-27 03:59:00,
2013-11-26 23:00:00,66.1,64.9,29.46,SW,227,11.0,11.0,96,0.00,,,0.70,0.00,VWS V14.01,2013-11-27 04:00:00,
2013-11-26 23:01:00,66.1,64.9,29.47,South,175,10.0,10.0,96,0.00,,,0.70,0.00,VWS V14.01,2013-11-27 04:01:00,
2013-11-26 23:02:00,66.1,64.9,29.46,SSW,209,8.0,12.0,96,0.00,,,0.70,0.00,VWS V14.01,2013-11-27 04:02:00,
2013-11-26 23:03:00,66.1,64.9,29.46,SSW,197,5.0,9.0,96,0.00,,,0.70,0.00,VWS V14.01,2013-11-27 04:03:00,
2013-11-26 23:04:00,66.1,64.9,29.46,South,189,11.0,11.0,96,0.00,,,0.70,0.00,VWS V14.01,2013-11-27 04:04:00,
2013-11-26 23:05:00,66.3,64.8,29.46,South,180,10.0,11.0,95,0.00,,,0.70,0.00,VWS V14.01,2013-11-27 04:05:00,
2013-11-26 23:06:00,66.1,64.9,29.47,South,184,9.0,13.0,96,0.00,,,0.70,0.00,VWS V14.01,2013-11-27 04:06:00,
2013-11-26 23:07:00,66.3,65.1,29.46,SSW,198,4.0,9.0,96,0.00,,,0.70,0.00,VWS V14.01,2013-11-27 04:07:00,
2013-11-26 23:08:00,66.3,65.1,29.46,SSE,168,6.0,12.0,96,0.00,,,0.70,0.00,VWS V14.01,2013-11-27 04:08:00,
2013-11-26 23:09:00,66.3,65.1,29.46,SW,214,3.0,9.0,96,0.00,,,0.70,0.00,VWS V14.01,2013-11-27 04:09:00,
2013-11-26 23:10:00,66.3,65.1,29.46,SW,234,5.0,10.0,96,0.00,,,0.70,0.00,VWS V14.01,2013-11-27 04:10:00,
2013-11-26 23:11:00,66.1,64.9,29.46,South,184,9.0,9.0,96,0.00,,,0.70,0.00,VWS V14.01,2013-11-27 04:11:00,
2013-11-26 23:12:00,66.3,65.1,29.46,SSW,212,10.0,10.0,96,0.00,,,0.70,0.00,VWS V14.01,2013-11-27 04:12:00,
2013-11-26 23:13:00,66.3,65.1,29.46,WSW,241,3.0,10.0,96,0.00,,,0.70,0.00,VWS V14.01,2013-11-27 04:13:00,
2013-11-26 23:14:00,66.3,65.1,29.46,South,190,2.0,12.0,96,0.00,,,0.70,0.00,VWS V14.01,2013-11-27 04:14:00,
2013-11-26 23:15:00,66.3,65.1,29.46,SW,236,7.0,9.0,96,0.00,,,0.70,0.00,VWS V14.01,2013-11-27 04:15:00,
2013-11-26 23:16:00,66.3,65.1,29.46,SW,220,5.0,7.0,96,0.00,,,0.70,0.00,VWS V14.01,2013-11-27 04:16:00,
2013-11-26 23:17:00,66.3,65.1,29.46,SSW,210,7.0,9.0,96,0.00,,,0.70,0.00,VWS V14.01,2013-11-27 04:17:00,
2013-11-26 23:18:00,66.3,65.1,29.46,SSW,211,3.0,6.0,96,0.00,,,0.70,0.00,VWS V14.01,2013-11-27 04:18:00,
2013-11-26 23:19:00,66.3,64.8,29.46,SSW,203,2.0,3.0,95,0.00,,,0.70,0.00,VWS V14.01,2013-11-27 04:19:00,
2013-11-26 23:20:00,66.3,64.8,29.46,SSW,209,6.0,6.0,95,0.00,,,0.70,0.00,VWS V14.01,2013-11-27 04:20:00,
2013-11-26 23:21:00,66.3,64.8,29.46,WSW,245,2.0,6.0,95,0.00,,,0.70,0.00,VWS V14.01,2013-11-27 04:21:00,
2013-11-26 23:22:00,66.3,65.1,29.46,SSW,199,6.0,12.0,96,0.00,,,0.70,0.00,VWS V14.01,2013-11-27 04:22:00,
2013-11-26 23:23:00,66.3,64.8,29.46,SSW,193,5.0,5.0,95,0.00,,,0.70,0.00,VWS V14.01,2013-11-27 04:23:00,
2013-11-26 23:24:00,66.3,64.8,29.46,SSW,205,4.0,8.0,95,0.00,,,0.70,0.00,VWS V14.01,2013-11-27 04:24:00,
2013-11-26 23:25:00,66.3,64.8,29.46,SSW,206,5.0,5.0,95,0.00,,,0.70,0.00,VWS V14.01,2013-11-27 04:25:00,
2013-11-26 23:26:00,66.3,64.8,29.46,SSW,208,4.0,8.0,95,0.00,,,0.70,0.00,VWS V14.01,2013-11-27 04:26:00,
2013-11-26 23:27:00,66.3,65.1,29.46,SSW,203,2.0,3.0,96,0.00,,,0.70,0.00,VWS V14.01,2013-11-27 04:27:00,
2013-11-26 23:28:00,66.3,64.8,29.46,South,176,4.0,10.0,95,0.00,,,0.70,0.00,VWS V14.01,2013-11-27 04:28:00,
2013-11-26 23:29:00,66.3,64.8,29.45,SSW,196,4.0,6.0,95,0.00,,,0.70,0.00,VWS V14.01,2013-11-27 04:29:00,
2013-11-26 23:30:00,66.3,64.8,29.45,South,191,6.0,9.0,95,0.00,,,0.70,0.00,VWS V14.01,2013-11-27 04:30:00,
2013-11-26 23:31:00,66.4,64.9,29.45,SW,223,8.0,9.0,95,0.00,,,0.70,0.00,VWS V14.01,2013-11-27 04:31:00,
2013-11-26 23:32:00,66.3,64.8,29.46,SSW,205,4.0,8.0,95,0.00,,,0.70,0.00,VWS V14.01,2013-11-27 04:32:00,
2013-11-26 23:33:00,66.4,64.9,29.45,SSE,153,6.0,7.0,95,0.01,,,0.71,0.00,VWS V14.01,2013-11-27 04:33:00,
2013-11-26 23:34:00,66.4,64.9,29.45,SSW,207,2.0,7.0,95,0.01,,,0.71,0.00,VWS V14.01,2013-11-27 04:34:00,
2013-11-26 23:35:00,66.4,64.9,29.45,SSW,200,1.0,4.0,95,0.02,,,0.72,0.00,VWS V14.01,2013-11-27 04:35:00,
2013-11-26 23:36:00,66.4,64.9,29.45,South,191,0.0,8.0,95,0.02,,,0.72,0.00,VWS V14.01,2013-11-27 04:36:00,
2013-11-26 23:37:00,66.3,64.8,29.45,SSW,196,4.0,6.0,95,0.00,,,0.70,0.00,VWS V14.01,2013-11-27 04:37:00,
2013-11-26 23:38:00,66.4,64.9,29.45,SSW,199,1.0,5.0,95,0.02,,,0.72,0.00,VWS V14.01,2013-11-27 04:38:00,
2013-11-26 23:39:00,66.4,64.9,29.45,South,188,2.0,6.0,95,0.02,,,0.72,0.00,VWS V14.01,2013-11-27 04:39:00,
2013-11-26 23:40:00,66.4,64.9,29.45,South,188,0.0,2.0,95,0.02,,,0.72,0.00,VWS V14.01,2013-11-27 04:40:00,
2013-11-26 23:41:00,66.4,64.9,29.45,South,188,3.0,6.0,95,0.02,,,0.72,0.00,VWS V14.01,2013-11-27 04:41:00,
2013-11-26 23:42:00,66.4,64.9,29.45,SSW,195,4.0,4.0,95,0.01,,,0.71,0.00,VWS V14.01,2013-11-27 04:42:00,
2013-11-26 23:43:00,66.4,64.9,29.45,South,171,6.0,7.0,95,0.02,,,0.72,0.00,VWS V14.01,2013-11-27 04:43:00,
2013-11-26 23:44:00,66.4,64.9,29.45,SSW,199,7.0,7.0,95,0.02,,,0.72,0.00,VWS V14.01,2013-11-27 04:44:00,
2013-11-26 23:45:00,66.4,64.9,29.45,SSW,197,4.0,9.0,95,0.02,,,0.72,0.00,VWS V14.01,2013-11-27 04:45:00,
2013-11-26 23:46:00,66.4,64.9,29.45,SW,224,9.0,11.0,95,0.02,,,0.72,0.00,VWS V14.01,2013-11-27 04:46:00,
2013-11-26 23:47:00,66.4,64.9,29.45,South,188,2.0,2.0,95,0.02,,,0.72,0.00,VWS V14.01,2013-11-27 04:47:00,
2013-11-26 23:48:00,66.4,64.9,29.45,SW,222,4.0,6.0,95,0.02,,,0.72,0.00,VWS V14.01,2013-11-27 04:48:00,
2013-11-26 23:49:00,66.4,64.9,29.45,WSW,240,3.0,10.0,95,0.02,,,0.72,0.00,VWS V14.01,2013-11-27 04:49:00,
2013-11-26 23:50:00,66.4,64.9,29.45,SSW,205,2.0,6.0,95,0.02,,,0.72,0.00,VWS V14.01,2013-11-27 04:50:00,
2013-11-26 23:51:00,66.6,65.1,29.45,SW,219,5.0,6.0,95,0.02,,,0.72,0.00,VWS V14.01,2013-11-27 04:51:00,
2013-11-26 23:52:00,66.4,64.9,29.45,South,179,4.0,9.0,95,0.02,,,0.72,0.00,VWS V14.01,2013-11-27 04:52:00,
2013-11-26 23:53:00,66.6,65.1,29.45,West,266,1.0,5.0,95,0.02,,,0.72,0.00,VWS V14.01,2013-11-27 04:53:00,
2013-11-26 23:54:00,66.6,65.1,29.45,SW,221,3.0,4.0,95,0.02,,,0.72,0.00,VWS V14.01,2013-11-27 04:54:00,
2013-11-26 23:55:00,66.6,65.1,29.45,SW,219,0.0,3.0,95,0.02,,,0.72,0.00,VWS V14.01,2013-11-27 04:55:00,
2013-11-26 23:56:00,66.6,65.1,29.45,SW,229,4.0,5.0,95,0.02,,,0.72,0.00,VWS V14.01,2013-11-27 04:56:00,
2013-11-26 23:57:00,66.4,64.9,29.45,South,186,4.0,6.0,95,0.02,,,0.72,0.00,VWS V14.01,2013-11-27 04:57:00,
2013-11-26 23:58:00,66.6,65.1,29.45,SW,221,5.0,7.0,95,0.02,,,0.72,0.00,VWS V14.01,2013-11-27 04:58:00,
2013-11-26 23:59:00,66.6,65.1,29.45,SW,215,5.0,10.0,95,0.02,,,0.72,0.00,VWS V14.01,2013-11-27 04:59:00,